<?xml version="1.0" encoding="UTF-8" standalone="no" ?>
<gpx xmlns="http://www.topografix.com/GPX/1/1" xmlns:xsi="http://www.w3.org/2001/XMLSchema-instance" xsi:schemaLocation="http://www.topografix.com/GPX/1/1 http://www.topografix.com/GPX/1/1/gpx.xsd" version="1.1" creator="VisuGPX - https://www.visugpx.com">
  <metadata>
    <name>bourguignon sous montbavin</name>
    <desc><![CDATA[Randonnée autour de Bourguignon sous montbavin]]></desc>
  </metadata>
  <trk>
    <name><![CDATA[09/05/2016 14:16]]></name>
    <desc><![CDATA[]]></desc>
    <trkseg>
      <trkpt lat="49.52672" lon="3.53344">
        <ele>213.4</ele>
        <time>2016-05-09T12:16:36.528Z</time>
      </trkpt>
      <trkpt lat="49.52666" lon="3.53335">
        <ele>206.7</ele>
        <time>2016-05-09T12:16:53.809Z</time>
      </trkpt>
      <trkpt lat="49.52666" lon="3.53333">
        <ele>206.6</ele>
        <time>2016-05-09T12:16:54.711Z</time>
      </trkpt>
      <trkpt lat="49.52664" lon="3.5332">
        <ele>206</ele>
        <time>2016-05-09T12:17:07.846Z</time>
      </trkpt>
      <trkpt lat="49.52664" lon="3.53316">
        <ele>205.1</ele>
        <time>2016-05-09T12:17:08.744Z</time>
      </trkpt>
      <trkpt lat="49.52663" lon="3.53303">
        <ele>205.3</ele>
        <time>2016-05-09T12:17:17.750Z</time>
      </trkpt>
      <trkpt lat="49.52665" lon="3.53298">
        <ele>205.6</ele>
        <time>2016-05-09T12:17:18.732Z</time>
      </trkpt>
      <trkpt lat="49.52668" lon="3.53286">
        <ele>208.4</ele>
        <time>2016-05-09T12:17:28.763Z</time>
      </trkpt>
      <trkpt lat="49.52668" lon="3.53283">
        <ele>208.1</ele>
        <time>2016-05-09T12:17:29.757Z</time>
      </trkpt>
      <trkpt lat="49.52664" lon="3.53271">
        <ele>207.8</ele>
        <time>2016-05-09T12:17:36.842Z</time>
      </trkpt>
      <trkpt lat="49.52664" lon="3.53269">
        <ele>207.8</ele>
        <time>2016-05-09T12:17:37.829Z</time>
      </trkpt>
      <trkpt lat="49.52662" lon="3.53257">
        <ele>209.4</ele>
        <time>2016-05-09T12:17:43.864Z</time>
      </trkpt>
      <trkpt lat="49.52662" lon="3.53255">
        <ele>209.7</ele>
        <time>2016-05-09T12:17:44.818Z</time>
      </trkpt>
      <trkpt lat="49.52658" lon="3.53242">
        <ele>211.8</ele>
        <time>2016-05-09T12:17:54.803Z</time>
      </trkpt>
      <trkpt lat="49.52658" lon="3.53241">
        <ele>212.2</ele>
        <time>2016-05-09T12:17:55.797Z</time>
      </trkpt>
      <trkpt lat="49.52656" lon="3.53238">
        <ele>211.7</ele>
        <time>2016-05-09T12:17:59.854Z</time>
      </trkpt>
      <trkpt lat="49.52656" lon="3.53238">
        <ele>212</ele>
        <time>2016-05-09T12:18:00.849Z</time>
      </trkpt>
      <trkpt lat="49.52656" lon="3.53238">
        <ele>212</ele>
        <time>2016-05-09T12:18:00.961Z</time>
      </trkpt>
      <trkpt lat="49.52656" lon="3.53238">
        <ele>212</ele>
        <time>2016-05-09T12:18:01.743Z</time>
      </trkpt>
      <trkpt lat="49.5265" lon="3.53228">
        <ele>213.3</ele>
        <time>2016-05-09T12:18:15.790Z</time>
      </trkpt>
      <trkpt lat="49.5265" lon="3.53226">
        <ele>213.2</ele>
        <time>2016-05-09T12:18:16.774Z</time>
      </trkpt>
      <trkpt lat="49.52651" lon="3.53213">
        <ele>213.8</ele>
        <time>2016-05-09T12:18:22.766Z</time>
      </trkpt>
      <trkpt lat="49.52651" lon="3.53211">
        <ele>214</ele>
        <time>2016-05-09T12:18:23.768Z</time>
      </trkpt>
      <trkpt lat="49.5265" lon="3.53205">
        <ele>214</ele>
        <time>2016-05-09T12:18:28.855Z</time>
      </trkpt>
      <trkpt lat="49.52649" lon="3.53205">
        <ele>214.2</ele>
        <time>2016-05-09T12:18:29.831Z</time>
      </trkpt>
      <trkpt lat="49.52649" lon="3.53205">
        <ele>214.5</ele>
        <time>2016-05-09T12:18:42.864Z</time>
      </trkpt>
      <trkpt lat="49.52649" lon="3.53203">
        <ele>215.4</ele>
        <time>2016-05-09T12:18:43.734Z</time>
      </trkpt>
      <trkpt lat="49.52649" lon="3.53203">
        <ele>215.5</ele>
        <time>2016-05-09T12:18:44.776Z</time>
      </trkpt>
      <trkpt lat="49.52649" lon="3.53203">
        <ele>215.5</ele>
        <time>2016-05-09T12:18:45.748Z</time>
      </trkpt>
      <trkpt lat="49.52649" lon="3.53203">
        <ele>215.6</ele>
        <time>2016-05-09T12:19:50.767Z</time>
      </trkpt>
      <trkpt lat="49.52646" lon="3.532">
        <ele>214.4</ele>
        <time>2016-05-09T12:19:51.754Z</time>
      </trkpt>
      <trkpt lat="49.52645" lon="3.53187">
        <ele>214.3</ele>
        <time>2016-05-09T12:20:01.806Z</time>
      </trkpt>
      <trkpt lat="49.52644" lon="3.53186">
        <ele>214.3</ele>
        <time>2016-05-09T12:20:02.794Z</time>
      </trkpt>
      <trkpt lat="49.52645" lon="3.53174">
        <ele>214</ele>
        <time>2016-05-09T12:20:09.766Z</time>
      </trkpt>
      <trkpt lat="49.52645" lon="3.53172">
        <ele>213.9</ele>
        <time>2016-05-09T12:20:10.750Z</time>
      </trkpt>
      <trkpt lat="49.52647" lon="3.53159">
        <ele>214.2</ele>
        <time>2016-05-09T12:20:16.759Z</time>
      </trkpt>
      <trkpt lat="49.52647" lon="3.53157">
        <ele>214.1</ele>
        <time>2016-05-09T12:20:17.763Z</time>
      </trkpt>
      <trkpt lat="49.52648" lon="3.53145">
        <ele>214.3</ele>
        <time>2016-05-09T12:20:28.760Z</time>
      </trkpt>
      <trkpt lat="49.52648" lon="3.53143">
        <ele>214.2</ele>
        <time>2016-05-09T12:20:29.772Z</time>
      </trkpt>
      <trkpt lat="49.52648" lon="3.53131">
        <ele>213.8</ele>
        <time>2016-05-09T12:20:34.830Z</time>
      </trkpt>
      <trkpt lat="49.52648" lon="3.53129">
        <ele>213.7</ele>
        <time>2016-05-09T12:20:35.830Z</time>
      </trkpt>
      <trkpt lat="49.52646" lon="3.53117">
        <ele>214.6</ele>
        <time>2016-05-09T12:20:41.795Z</time>
      </trkpt>
      <trkpt lat="49.52646" lon="3.53114">
        <ele>214.8</ele>
        <time>2016-05-09T12:20:42.789Z</time>
      </trkpt>
      <trkpt lat="49.52641" lon="3.53103">
        <ele>216</ele>
        <time>2016-05-09T12:20:51.782Z</time>
      </trkpt>
      <trkpt lat="49.52641" lon="3.53102">
        <ele>216</ele>
        <time>2016-05-09T12:20:52.778Z</time>
      </trkpt>
      <trkpt lat="49.52638" lon="3.53089">
        <ele>216.1</ele>
        <time>2016-05-09T12:21:03.831Z</time>
      </trkpt>
      <trkpt lat="49.52638" lon="3.53088">
        <ele>216.3</ele>
        <time>2016-05-09T12:21:04.732Z</time>
      </trkpt>
      <trkpt lat="49.52638" lon="3.53088">
        <ele>216.3</ele>
        <time>2016-05-09T12:21:04.746Z</time>
      </trkpt>
      <trkpt lat="49.52638" lon="3.53087">
        <ele>216.4</ele>
        <time>2016-05-09T12:21:05.842Z</time>
      </trkpt>
      <trkpt lat="49.52638" lon="3.53087">
        <ele>216.4</ele>
        <time>2016-05-09T12:21:05.863Z</time>
      </trkpt>
      <trkpt lat="49.52638" lon="3.53086">
        <ele>216.5</ele>
        <time>2016-05-09T12:21:06.759Z</time>
      </trkpt>
      <trkpt lat="49.52637" lon="3.53086">
        <ele>216.6</ele>
        <time>2016-05-09T12:21:07.764Z</time>
      </trkpt>
      <trkpt lat="49.52637" lon="3.53085">
        <ele>216.7</ele>
        <time>2016-05-09T12:21:08.759Z</time>
      </trkpt>
      <trkpt lat="49.52637" lon="3.53085">
        <ele>216.7</ele>
        <time>2016-05-09T12:21:08.774Z</time>
      </trkpt>
      <trkpt lat="49.52637" lon="3.53086">
        <ele>216.8</ele>
        <time>2016-05-09T12:21:09.772Z</time>
      </trkpt>
      <trkpt lat="49.52635" lon="3.53074">
        <ele>216.7</ele>
        <time>2016-05-09T12:21:18.009Z</time>
      </trkpt>
      <trkpt lat="49.52635" lon="3.53073">
        <ele>216.7</ele>
        <time>2016-05-09T12:21:18.767Z</time>
      </trkpt>
      <trkpt lat="49.52635" lon="3.53072">
        <ele>216.7</ele>
        <time>2016-05-09T12:21:21.803Z</time>
      </trkpt>
      <trkpt lat="49.52635" lon="3.53068">
        <ele>216.7</ele>
        <time>2016-05-09T12:21:22.808Z</time>
      </trkpt>
      <trkpt lat="49.52635" lon="3.53066">
        <ele>216.8</ele>
        <time>2016-05-09T12:21:23.826Z</time>
      </trkpt>
      <trkpt lat="49.52634" lon="3.53064">
        <ele>216.7</ele>
        <time>2016-05-09T12:21:24.817Z</time>
      </trkpt>
      <trkpt lat="49.52634" lon="3.53063">
        <ele>216.9</ele>
        <time>2016-05-09T12:21:25.750Z</time>
      </trkpt>
      <trkpt lat="49.52634" lon="3.5306">
        <ele>217</ele>
        <time>2016-05-09T12:21:26.738Z</time>
      </trkpt>
      <trkpt lat="49.52634" lon="3.53046">
        <ele>216.9</ele>
        <time>2016-05-09T12:21:31.806Z</time>
      </trkpt>
      <trkpt lat="49.52634" lon="3.53044">
        <ele>216.9</ele>
        <time>2016-05-09T12:21:32.787Z</time>
      </trkpt>
      <trkpt lat="49.52634" lon="3.53032">
        <ele>217.3</ele>
        <time>2016-05-09T12:21:38.750Z</time>
      </trkpt>
      <trkpt lat="49.52634" lon="3.53029">
        <ele>217.3</ele>
        <time>2016-05-09T12:21:39.736Z</time>
      </trkpt>
      <trkpt lat="49.52636" lon="3.53016">
        <ele>217.2</ele>
        <time>2016-05-09T12:21:43.792Z</time>
      </trkpt>
      <trkpt lat="49.52637" lon="3.53015">
        <ele>217.1</ele>
        <time>2016-05-09T12:21:44.795Z</time>
      </trkpt>
      <trkpt lat="49.52637" lon="3.53003">
        <ele>217.4</ele>
        <time>2016-05-09T12:21:49.752Z</time>
      </trkpt>
      <trkpt lat="49.52637" lon="3.53001">
        <ele>217.5</ele>
        <time>2016-05-09T12:21:50.744Z</time>
      </trkpt>
      <trkpt lat="49.52634" lon="3.52989">
        <ele>219.2</ele>
        <time>2016-05-09T12:22:01.748Z</time>
      </trkpt>
      <trkpt lat="49.52634" lon="3.52987">
        <ele>219.2</ele>
        <time>2016-05-09T12:22:02.738Z</time>
      </trkpt>
      <trkpt lat="49.52633" lon="3.52975">
        <ele>218.9</ele>
        <time>2016-05-09T12:22:08.805Z</time>
      </trkpt>
      <trkpt lat="49.52634" lon="3.52973">
        <ele>218.9</ele>
        <time>2016-05-09T12:22:09.795Z</time>
      </trkpt>
      <trkpt lat="49.52631" lon="3.52965">
        <ele>219.4</ele>
        <time>2016-05-09T12:22:15.744Z</time>
      </trkpt>
      <trkpt lat="49.52631" lon="3.52963">
        <ele>219.3</ele>
        <time>2016-05-09T12:22:16.741Z</time>
      </trkpt>
      <trkpt lat="49.52631" lon="3.52963">
        <ele>219.3</ele>
        <time>2016-05-09T12:22:16.757Z</time>
      </trkpt>
      <trkpt lat="49.52632" lon="3.52961">
        <ele>219.3</ele>
        <time>2016-05-09T12:22:17.759Z</time>
      </trkpt>
      <trkpt lat="49.52632" lon="3.52948">
        <ele>219.3</ele>
        <time>2016-05-09T12:22:24.850Z</time>
      </trkpt>
      <trkpt lat="49.52632" lon="3.52946">
        <ele>219.3</ele>
        <time>2016-05-09T12:22:25.745Z</time>
      </trkpt>
      <trkpt lat="49.52631" lon="3.52934">
        <ele>219.3</ele>
        <time>2016-05-09T12:22:31.815Z</time>
      </trkpt>
      <trkpt lat="49.52631" lon="3.52932">
        <ele>219.4</ele>
        <time>2016-05-09T12:22:32.798Z</time>
      </trkpt>
      <trkpt lat="49.5263" lon="3.52931">
        <ele>219.6</ele>
        <time>2016-05-09T12:22:33.830Z</time>
      </trkpt>
      <trkpt lat="49.5263" lon="3.5293">
        <ele>219.8</ele>
        <time>2016-05-09T12:22:34.816Z</time>
      </trkpt>
      <trkpt lat="49.5263" lon="3.52929">
        <ele>220.1</ele>
        <time>2016-05-09T12:22:35.845Z</time>
      </trkpt>
      <trkpt lat="49.5263" lon="3.52928">
        <ele>220.2</ele>
        <time>2016-05-09T12:22:36.853Z</time>
      </trkpt>
      <trkpt lat="49.52629" lon="3.52914">
        <ele>221.8</ele>
        <time>2016-05-09T12:22:43.807Z</time>
      </trkpt>
      <trkpt lat="49.52629" lon="3.52913">
        <ele>222</ele>
        <time>2016-05-09T12:22:44.811Z</time>
      </trkpt>
      <trkpt lat="49.52629" lon="3.529">
        <ele>222</ele>
        <time>2016-05-09T12:22:53.803Z</time>
      </trkpt>
      <trkpt lat="49.52629" lon="3.52899">
        <ele>221.9</ele>
        <time>2016-05-09T12:22:54.790Z</time>
      </trkpt>
      <trkpt lat="49.52628" lon="3.52896">
        <ele>221.8</ele>
        <time>2016-05-09T12:22:57.846Z</time>
      </trkpt>
      <trkpt lat="49.52628" lon="3.52895">
        <ele>221.9</ele>
        <time>2016-05-09T12:22:58.749Z</time>
      </trkpt>
      <trkpt lat="49.52628" lon="3.52895">
        <ele>221.9</ele>
        <time>2016-05-09T12:22:58.772Z</time>
      </trkpt>
      <trkpt lat="49.52629" lon="3.52893">
        <ele>222</ele>
        <time>2016-05-09T12:22:59.851Z</time>
      </trkpt>
      <trkpt lat="49.52628" lon="3.52888">
        <ele>222.3</ele>
        <time>2016-05-09T12:23:02.764Z</time>
      </trkpt>
      <trkpt lat="49.52629" lon="3.52886">
        <ele>222.4</ele>
        <time>2016-05-09T12:23:03.758Z</time>
      </trkpt>
      <trkpt lat="49.52629" lon="3.52886">
        <ele>222.4</ele>
        <time>2016-05-09T12:23:03.774Z</time>
      </trkpt>
      <trkpt lat="49.52629" lon="3.52885">
        <ele>222.4</ele>
        <time>2016-05-09T12:23:04.771Z</time>
      </trkpt>
      <trkpt lat="49.52628" lon="3.52873">
        <ele>223</ele>
        <time>2016-05-09T12:23:10.832Z</time>
      </trkpt>
      <trkpt lat="49.52627" lon="3.52871">
        <ele>223</ele>
        <time>2016-05-09T12:23:11.829Z</time>
      </trkpt>
      <trkpt lat="49.52622" lon="3.52861">
        <ele>223.6</ele>
        <time>2016-05-09T12:23:17.805Z</time>
      </trkpt>
      <trkpt lat="49.52621" lon="3.5286">
        <ele>223.8</ele>
        <time>2016-05-09T12:23:18.795Z</time>
      </trkpt>
      <trkpt lat="49.52615" lon="3.52851">
        <ele>224.5</ele>
        <time>2016-05-09T12:23:26.773Z</time>
      </trkpt>
      <trkpt lat="49.52615" lon="3.52849">
        <ele>224.4</ele>
        <time>2016-05-09T12:23:27.764Z</time>
      </trkpt>
      <trkpt lat="49.52618" lon="3.52836">
        <ele>224.3</ele>
        <time>2016-05-09T12:23:34.778Z</time>
      </trkpt>
      <trkpt lat="49.52618" lon="3.52834">
        <ele>224.3</ele>
        <time>2016-05-09T12:23:35.767Z</time>
      </trkpt>
      <trkpt lat="49.52618" lon="3.52824">
        <ele>223.1</ele>
        <time>2016-05-09T12:23:40.833Z</time>
      </trkpt>
      <trkpt lat="49.52619" lon="3.52818">
        <ele>221</ele>
        <time>2016-05-09T12:23:41.824Z</time>
      </trkpt>
      <trkpt lat="49.52618" lon="3.52806">
        <ele>218</ele>
        <time>2016-05-09T12:23:44.765Z</time>
      </trkpt>
      <trkpt lat="49.52619" lon="3.52804">
        <ele>217.5</ele>
        <time>2016-05-09T12:23:45.755Z</time>
      </trkpt>
      <trkpt lat="49.5262" lon="3.5279">
        <ele>216.1</ele>
        <time>2016-05-09T12:23:51.844Z</time>
      </trkpt>
      <trkpt lat="49.5262" lon="3.52788">
        <ele>216.2</ele>
        <time>2016-05-09T12:23:52.832Z</time>
      </trkpt>
      <trkpt lat="49.52624" lon="3.52776">
        <ele>215.6</ele>
        <time>2016-05-09T12:23:58.785Z</time>
      </trkpt>
      <trkpt lat="49.52624" lon="3.52774">
        <ele>215.6</ele>
        <time>2016-05-09T12:23:59.786Z</time>
      </trkpt>
      <trkpt lat="49.52625" lon="3.52768">
        <ele>215.3</ele>
        <time>2016-05-09T12:24:05.880Z</time>
      </trkpt>
      <trkpt lat="49.52626" lon="3.52768">
        <ele>215.3</ele>
        <time>2016-05-09T12:24:06.851Z</time>
      </trkpt>
      <trkpt lat="49.52626" lon="3.52768">
        <ele>215.3</ele>
        <time>2016-05-09T12:24:08.788Z</time>
      </trkpt>
      <trkpt lat="49.52624" lon="3.52767">
        <ele>215.2</ele>
        <time>2016-05-09T12:24:09.771Z</time>
      </trkpt>
      <trkpt lat="49.52619" lon="3.52757">
        <ele>216.1</ele>
        <time>2016-05-09T12:24:32.993Z</time>
      </trkpt>
      <trkpt lat="49.52619" lon="3.52755">
        <ele>216.1</ele>
        <time>2016-05-09T12:24:33.803Z</time>
      </trkpt>
      <trkpt lat="49.52623" lon="3.52743">
        <ele>216.9</ele>
        <time>2016-05-09T12:24:46.749Z</time>
      </trkpt>
      <trkpt lat="49.52624" lon="3.52741">
        <ele>216.9</ele>
        <time>2016-05-09T12:24:47.764Z</time>
      </trkpt>
      <trkpt lat="49.52624" lon="3.52729">
        <ele>217.4</ele>
        <time>2016-05-09T12:24:54.837Z</time>
      </trkpt>
      <trkpt lat="49.52623" lon="3.52727">
        <ele>217.6</ele>
        <time>2016-05-09T12:24:55.734Z</time>
      </trkpt>
      <trkpt lat="49.52619" lon="3.52716">
        <ele>217.5</ele>
        <time>2016-05-09T12:25:02.821Z</time>
      </trkpt>
      <trkpt lat="49.52618" lon="3.52714">
        <ele>217.5</ele>
        <time>2016-05-09T12:25:03.814Z</time>
      </trkpt>
      <trkpt lat="49.52616" lon="3.52702">
        <ele>217.3</ele>
        <time>2016-05-09T12:25:10.790Z</time>
      </trkpt>
      <trkpt lat="49.52615" lon="3.527">
        <ele>217.3</ele>
        <time>2016-05-09T12:25:11.782Z</time>
      </trkpt>
      <trkpt lat="49.52612" lon="3.52689">
        <ele>217</ele>
        <time>2016-05-09T12:25:18.774Z</time>
      </trkpt>
      <trkpt lat="49.52611" lon="3.52688">
        <ele>217</ele>
        <time>2016-05-09T12:25:19.744Z</time>
      </trkpt>
      <trkpt lat="49.52608" lon="3.52676">
        <ele>216.7</ele>
        <time>2016-05-09T12:25:26.828Z</time>
      </trkpt>
      <trkpt lat="49.52607" lon="3.52675">
        <ele>216.7</ele>
        <time>2016-05-09T12:25:27.814Z</time>
      </trkpt>
      <trkpt lat="49.52603" lon="3.52663">
        <ele>216.6</ele>
        <time>2016-05-09T12:25:35.783Z</time>
      </trkpt>
      <trkpt lat="49.52602" lon="3.52662">
        <ele>216.4</ele>
        <time>2016-05-09T12:25:36.781Z</time>
      </trkpt>
      <trkpt lat="49.52598" lon="3.5265">
        <ele>215.2</ele>
        <time>2016-05-09T12:25:43.758Z</time>
      </trkpt>
      <trkpt lat="49.52597" lon="3.52649">
        <ele>215</ele>
        <time>2016-05-09T12:25:44.762Z</time>
      </trkpt>
      <trkpt lat="49.5259" lon="3.5264">
        <ele>213.5</ele>
        <time>2016-05-09T12:25:52.756Z</time>
      </trkpt>
      <trkpt lat="49.52588" lon="3.5264">
        <ele>212.9</ele>
        <time>2016-05-09T12:25:53.773Z</time>
      </trkpt>
      <trkpt lat="49.52581" lon="3.52635">
        <ele>211.2</ele>
        <time>2016-05-09T12:25:59.841Z</time>
      </trkpt>
      <trkpt lat="49.5258" lon="3.52634">
        <ele>211</ele>
        <time>2016-05-09T12:26:00.858Z</time>
      </trkpt>
      <trkpt lat="49.52572" lon="3.52627">
        <ele>211</ele>
        <time>2016-05-09T12:26:08.815Z</time>
      </trkpt>
      <trkpt lat="49.52571" lon="3.52626">
        <ele>211</ele>
        <time>2016-05-09T12:26:09.805Z</time>
      </trkpt>
      <trkpt lat="49.52564" lon="3.5262">
        <ele>210.6</ele>
        <time>2016-05-09T12:26:17.792Z</time>
      </trkpt>
      <trkpt lat="49.52563" lon="3.52619">
        <ele>210.6</ele>
        <time>2016-05-09T12:26:18.791Z</time>
      </trkpt>
      <trkpt lat="49.52556" lon="3.5261">
        <ele>209.7</ele>
        <time>2016-05-09T12:26:25.763Z</time>
      </trkpt>
      <trkpt lat="49.52556" lon="3.52608">
        <ele>209.6</ele>
        <time>2016-05-09T12:26:26.759Z</time>
      </trkpt>
      <trkpt lat="49.52549" lon="3.52601">
        <ele>209</ele>
        <time>2016-05-09T12:26:33.852Z</time>
      </trkpt>
      <trkpt lat="49.52548" lon="3.526">
        <ele>208.9</ele>
        <time>2016-05-09T12:26:34.839Z</time>
      </trkpt>
      <trkpt lat="49.52541" lon="3.52593">
        <ele>208.2</ele>
        <time>2016-05-09T12:26:42.807Z</time>
      </trkpt>
      <trkpt lat="49.5254" lon="3.52592">
        <ele>208.3</ele>
        <time>2016-05-09T12:26:43.795Z</time>
      </trkpt>
      <trkpt lat="49.52533" lon="3.52584">
        <ele>208.5</ele>
        <time>2016-05-09T12:26:50.769Z</time>
      </trkpt>
      <trkpt lat="49.52532" lon="3.52583">
        <ele>208.5</ele>
        <time>2016-05-09T12:26:51.761Z</time>
      </trkpt>
      <trkpt lat="49.52525" lon="3.52575">
        <ele>208.7</ele>
        <time>2016-05-09T12:26:58.833Z</time>
      </trkpt>
      <trkpt lat="49.52524" lon="3.52574">
        <ele>208.6</ele>
        <time>2016-05-09T12:26:59.819Z</time>
      </trkpt>
      <trkpt lat="49.52517" lon="3.52566">
        <ele>208.3</ele>
        <time>2016-05-09T12:27:07.803Z</time>
      </trkpt>
      <trkpt lat="49.52516" lon="3.52565">
        <ele>208.4</ele>
        <time>2016-05-09T12:27:08.794Z</time>
      </trkpt>
      <trkpt lat="49.5251" lon="3.52557">
        <ele>208.3</ele>
        <time>2016-05-09T12:27:16.779Z</time>
      </trkpt>
      <trkpt lat="49.52509" lon="3.52556">
        <ele>208.2</ele>
        <time>2016-05-09T12:27:17.784Z</time>
      </trkpt>
      <trkpt lat="49.52502" lon="3.52549">
        <ele>208.3</ele>
        <time>2016-05-09T12:27:29.829Z</time>
      </trkpt>
      <trkpt lat="49.52502" lon="3.52548">
        <ele>208.4</ele>
        <time>2016-05-09T12:27:30.818Z</time>
      </trkpt>
      <trkpt lat="49.52502" lon="3.52548">
        <ele>208.3</ele>
        <time>2016-05-09T12:27:35.798Z</time>
      </trkpt>
      <trkpt lat="49.52503" lon="3.52549">
        <ele>208.1</ele>
        <time>2016-05-09T12:27:36.785Z</time>
      </trkpt>
      <trkpt lat="49.52504" lon="3.52536">
        <ele>209</ele>
        <time>2016-05-09T12:28:07.803Z</time>
      </trkpt>
      <trkpt lat="49.52505" lon="3.52534">
        <ele>208.9</ele>
        <time>2016-05-09T12:28:08.790Z</time>
      </trkpt>
      <trkpt lat="49.5251" lon="3.52523">
        <ele>208.7</ele>
        <time>2016-05-09T12:28:16.783Z</time>
      </trkpt>
      <trkpt lat="49.5251" lon="3.52522">
        <ele>208.7</ele>
        <time>2016-05-09T12:28:17.775Z</time>
      </trkpt>
      <trkpt lat="49.52514" lon="3.52512">
        <ele>208.5</ele>
        <time>2016-05-09T12:28:24.776Z</time>
      </trkpt>
      <trkpt lat="49.52515" lon="3.5251">
        <ele>208.4</ele>
        <time>2016-05-09T12:28:25.745Z</time>
      </trkpt>
      <trkpt lat="49.52517" lon="3.52497">
        <ele>207.7</ele>
        <time>2016-05-09T12:28:33.846Z</time>
      </trkpt>
      <trkpt lat="49.52518" lon="3.52495">
        <ele>207.6</ele>
        <time>2016-05-09T12:28:34.826Z</time>
      </trkpt>
      <trkpt lat="49.52519" lon="3.52482">
        <ele>206.9</ele>
        <time>2016-05-09T12:28:42.818Z</time>
      </trkpt>
      <trkpt lat="49.52519" lon="3.5248">
        <ele>207</ele>
        <time>2016-05-09T12:28:43.813Z</time>
      </trkpt>
      <trkpt lat="49.52519" lon="3.52468">
        <ele>206.6</ele>
        <time>2016-05-09T12:28:50.976Z</time>
      </trkpt>
      <trkpt lat="49.5252" lon="3.52466">
        <ele>206.6</ele>
        <time>2016-05-09T12:28:51.803Z</time>
      </trkpt>
      <trkpt lat="49.52518" lon="3.52453">
        <ele>206.8</ele>
        <time>2016-05-09T12:29:01.815Z</time>
      </trkpt>
      <trkpt lat="49.52518" lon="3.52451">
        <ele>206.7</ele>
        <time>2016-05-09T12:29:02.799Z</time>
      </trkpt>
      <trkpt lat="49.52514" lon="3.5244">
        <ele>206.4</ele>
        <time>2016-05-09T12:29:10.772Z</time>
      </trkpt>
      <trkpt lat="49.52513" lon="3.52439">
        <ele>206.4</ele>
        <time>2016-05-09T12:29:11.789Z</time>
      </trkpt>
      <trkpt lat="49.52507" lon="3.52429">
        <ele>205.8</ele>
        <time>2016-05-09T12:29:21.780Z</time>
      </trkpt>
      <trkpt lat="49.52506" lon="3.52427">
        <ele>205.8</ele>
        <time>2016-05-09T12:29:22.771Z</time>
      </trkpt>
      <trkpt lat="49.525" lon="3.52418">
        <ele>205.2</ele>
        <time>2016-05-09T12:29:30.848Z</time>
      </trkpt>
      <trkpt lat="49.525" lon="3.52417">
        <ele>205.1</ele>
        <time>2016-05-09T12:29:31.743Z</time>
      </trkpt>
      <trkpt lat="49.52493" lon="3.52408">
        <ele>204.7</ele>
        <time>2016-05-09T12:29:41.849Z</time>
      </trkpt>
      <trkpt lat="49.52493" lon="3.52406">
        <ele>204.8</ele>
        <time>2016-05-09T12:29:42.855Z</time>
      </trkpt>
      <trkpt lat="49.52487" lon="3.52397">
        <ele>203.4</ele>
        <time>2016-05-09T12:29:50.826Z</time>
      </trkpt>
      <trkpt lat="49.52486" lon="3.52396">
        <ele>203.2</ele>
        <time>2016-05-09T12:29:51.820Z</time>
      </trkpt>
      <trkpt lat="49.52481" lon="3.52387">
        <ele>201.8</ele>
        <time>2016-05-09T12:29:56.872Z</time>
      </trkpt>
      <trkpt lat="49.5248" lon="3.52385">
        <ele>201.8</ele>
        <time>2016-05-09T12:29:57.827Z</time>
      </trkpt>
      <trkpt lat="49.52474" lon="3.52376">
        <ele>201.6</ele>
        <time>2016-05-09T12:30:04.788Z</time>
      </trkpt>
      <trkpt lat="49.52473" lon="3.52374">
        <ele>201.8</ele>
        <time>2016-05-09T12:30:05.784Z</time>
      </trkpt>
      <trkpt lat="49.5247" lon="3.52368">
        <ele>202.1</ele>
        <time>2016-05-09T12:30:11.855Z</time>
      </trkpt>
      <trkpt lat="49.52469" lon="3.52368">
        <ele>202.3</ele>
        <time>2016-05-09T12:30:12.839Z</time>
      </trkpt>
      <trkpt lat="49.52469" lon="3.52367">
        <ele>202.4</ele>
        <time>2016-05-09T12:30:13.973Z</time>
      </trkpt>
      <trkpt lat="49.52469" lon="3.52367">
        <ele>202.3</ele>
        <time>2016-05-09T12:30:14.749Z</time>
      </trkpt>
      <trkpt lat="49.52469" lon="3.52367">
        <ele>202.2</ele>
        <time>2016-05-09T12:30:15.790Z</time>
      </trkpt>
      <trkpt lat="49.52468" lon="3.52366">
        <ele>202.2</ele>
        <time>2016-05-09T12:30:16.775Z</time>
      </trkpt>
      <trkpt lat="49.52468" lon="3.52366">
        <ele>202.2</ele>
        <time>2016-05-09T12:30:16.793Z</time>
      </trkpt>
      <trkpt lat="49.52468" lon="3.52366">
        <ele>202.1</ele>
        <time>2016-05-09T12:30:17.781Z</time>
      </trkpt>
      <trkpt lat="49.52461" lon="3.52359">
        <ele>202.5</ele>
        <time>2016-05-09T12:30:25.759Z</time>
      </trkpt>
      <trkpt lat="49.52459" lon="3.52358">
        <ele>202.6</ele>
        <time>2016-05-09T12:30:26.753Z</time>
      </trkpt>
      <trkpt lat="49.52452" lon="3.52351">
        <ele>202.5</ele>
        <time>2016-05-09T12:30:33.756Z</time>
      </trkpt>
      <trkpt lat="49.5245" lon="3.5235">
        <ele>201.7</ele>
        <time>2016-05-09T12:30:34.735Z</time>
      </trkpt>
      <trkpt lat="49.52443" lon="3.52343">
        <ele>199.5</ele>
        <time>2016-05-09T12:30:40.819Z</time>
      </trkpt>
      <trkpt lat="49.52442" lon="3.52341">
        <ele>199.6</ele>
        <time>2016-05-09T12:30:41.814Z</time>
      </trkpt>
      <trkpt lat="49.52434" lon="3.52338">
        <ele>198.3</ele>
        <time>2016-05-09T12:30:50.822Z</time>
      </trkpt>
      <trkpt lat="49.52433" lon="3.52337">
        <ele>198.2</ele>
        <time>2016-05-09T12:30:51.812Z</time>
      </trkpt>
      <trkpt lat="49.52425" lon="3.52338">
        <ele>197.6</ele>
        <time>2016-05-09T12:31:00.836Z</time>
      </trkpt>
      <trkpt lat="49.52424" lon="3.52338">
        <ele>197.6</ele>
        <time>2016-05-09T12:31:01.733Z</time>
      </trkpt>
      <trkpt lat="49.52424" lon="3.52338">
        <ele>197.6</ele>
        <time>2016-05-09T12:31:01.746Z</time>
      </trkpt>
      <trkpt lat="49.52424" lon="3.52336">
        <ele>197.6</ele>
        <time>2016-05-09T12:31:02.738Z</time>
      </trkpt>
      <trkpt lat="49.52416" lon="3.52334">
        <ele>197.4</ele>
        <time>2016-05-09T12:31:08.833Z</time>
      </trkpt>
      <trkpt lat="49.52415" lon="3.52333">
        <ele>197.3</ele>
        <time>2016-05-09T12:31:09.823Z</time>
      </trkpt>
      <trkpt lat="49.52407" lon="3.52327">
        <ele>197.8</ele>
        <time>2016-05-09T12:31:18.833Z</time>
      </trkpt>
      <trkpt lat="49.52405" lon="3.52325">
        <ele>197.2</ele>
        <time>2016-05-09T12:31:19.820Z</time>
      </trkpt>
      <trkpt lat="49.52398" lon="3.52318">
        <ele>196</ele>
        <time>2016-05-09T12:31:25.797Z</time>
      </trkpt>
      <trkpt lat="49.52397" lon="3.52316">
        <ele>195.7</ele>
        <time>2016-05-09T12:31:26.793Z</time>
      </trkpt>
      <trkpt lat="49.52391" lon="3.52307">
        <ele>195</ele>
        <time>2016-05-09T12:31:32.755Z</time>
      </trkpt>
      <trkpt lat="49.52391" lon="3.52306">
        <ele>195.2</ele>
        <time>2016-05-09T12:31:33.749Z</time>
      </trkpt>
      <trkpt lat="49.52383" lon="3.523">
        <ele>195.5</ele>
        <time>2016-05-09T12:31:39.740Z</time>
      </trkpt>
      <trkpt lat="49.52382" lon="3.52298">
        <ele>195.3</ele>
        <time>2016-05-09T12:31:40.724Z</time>
      </trkpt>
      <trkpt lat="49.52375" lon="3.52291">
        <ele>195.6</ele>
        <time>2016-05-09T12:31:46.802Z</time>
      </trkpt>
      <trkpt lat="49.52375" lon="3.5229">
        <ele>195.6</ele>
        <time>2016-05-09T12:31:47.803Z</time>
      </trkpt>
      <trkpt lat="49.52368" lon="3.52283">
        <ele>195.8</ele>
        <time>2016-05-09T12:31:54.774Z</time>
      </trkpt>
      <trkpt lat="49.52367" lon="3.52283">
        <ele>195.9</ele>
        <time>2016-05-09T12:31:55.737Z</time>
      </trkpt>
      <trkpt lat="49.5236" lon="3.52275">
        <ele>197.4</ele>
        <time>2016-05-09T12:32:03.749Z</time>
      </trkpt>
      <trkpt lat="49.52359" lon="3.52275">
        <ele>197.4</ele>
        <time>2016-05-09T12:32:04.737Z</time>
      </trkpt>
      <trkpt lat="49.52352" lon="3.52269">
        <ele>196.2</ele>
        <time>2016-05-09T12:32:13.727Z</time>
      </trkpt>
      <trkpt lat="49.52352" lon="3.52269">
        <ele>196.1</ele>
        <time>2016-05-09T12:32:14.730Z</time>
      </trkpt>
      <trkpt lat="49.52352" lon="3.52269">
        <ele>196.1</ele>
        <time>2016-05-09T12:32:14.750Z</time>
      </trkpt>
      <trkpt lat="49.52352" lon="3.52268">
        <ele>196</ele>
        <time>2016-05-09T12:32:15.738Z</time>
      </trkpt>
      <trkpt lat="49.52347" lon="3.52258">
        <ele>196.4</ele>
        <time>2016-05-09T12:32:25.739Z</time>
      </trkpt>
      <trkpt lat="49.52347" lon="3.52256">
        <ele>196.7</ele>
        <time>2016-05-09T12:32:26.730Z</time>
      </trkpt>
      <trkpt lat="49.52341" lon="3.52245">
        <ele>196.8</ele>
        <time>2016-05-09T12:32:36.854Z</time>
      </trkpt>
      <trkpt lat="49.5234" lon="3.52245">
        <ele>196.9</ele>
        <time>2016-05-09T12:32:37.725Z</time>
      </trkpt>
      <trkpt lat="49.5234" lon="3.52245">
        <ele>196.9</ele>
        <time>2016-05-09T12:32:37.755Z</time>
      </trkpt>
      <trkpt lat="49.5234" lon="3.52244">
        <ele>197</ele>
        <time>2016-05-09T12:32:39.762Z</time>
      </trkpt>
      <trkpt lat="49.52339" lon="3.52243">
        <ele>196.9</ele>
        <time>2016-05-09T12:32:40.754Z</time>
      </trkpt>
      <trkpt lat="49.52335" lon="3.5224">
        <ele>196.2</ele>
        <time>2016-05-09T12:32:43.807Z</time>
      </trkpt>
      <trkpt lat="49.52335" lon="3.52239">
        <ele>196.1</ele>
        <time>2016-05-09T12:32:44.795Z</time>
      </trkpt>
      <trkpt lat="49.52334" lon="3.52238">
        <ele>196</ele>
        <time>2016-05-09T12:32:58.743Z</time>
      </trkpt>
      <trkpt lat="49.52329" lon="3.52226">
        <ele>195.4</ele>
        <time>2016-05-09T12:32:59.741Z</time>
      </trkpt>
      <trkpt lat="49.52325" lon="3.52217">
        <ele>195.5</ele>
        <time>2016-05-09T12:33:06.838Z</time>
      </trkpt>
      <trkpt lat="49.52325" lon="3.52216">
        <ele>195.5</ele>
        <time>2016-05-09T12:33:07.724Z</time>
      </trkpt>
      <trkpt lat="49.52325" lon="3.52215">
        <ele>195.8</ele>
        <time>2016-05-09T12:33:11.774Z</time>
      </trkpt>
      <trkpt lat="49.52325" lon="3.5221">
        <ele>195.5</ele>
        <time>2016-05-09T12:33:12.775Z</time>
      </trkpt>
      <trkpt lat="49.52322" lon="3.52199">
        <ele>196.1</ele>
        <time>2016-05-09T12:33:20.748Z</time>
      </trkpt>
      <trkpt lat="49.52321" lon="3.52197">
        <ele>195.9</ele>
        <time>2016-05-09T12:33:21.739Z</time>
      </trkpt>
      <trkpt lat="49.52317" lon="3.52186">
        <ele>195.7</ele>
        <time>2016-05-09T12:33:29.827Z</time>
      </trkpt>
      <trkpt lat="49.52316" lon="3.52184">
        <ele>195.4</ele>
        <time>2016-05-09T12:33:30.818Z</time>
      </trkpt>
      <trkpt lat="49.52311" lon="3.52174">
        <ele>194.9</ele>
        <time>2016-05-09T12:33:35.753Z</time>
      </trkpt>
      <trkpt lat="49.52311" lon="3.52172">
        <ele>194.7</ele>
        <time>2016-05-09T12:33:36.751Z</time>
      </trkpt>
      <trkpt lat="49.52306" lon="3.52161">
        <ele>194.5</ele>
        <time>2016-05-09T12:33:42.821Z</time>
      </trkpt>
      <trkpt lat="49.52306" lon="3.5216">
        <ele>194.4</ele>
        <time>2016-05-09T12:33:43.807Z</time>
      </trkpt>
      <trkpt lat="49.52302" lon="3.52148">
        <ele>193.3</ele>
        <time>2016-05-09T12:33:53.833Z</time>
      </trkpt>
      <trkpt lat="49.52302" lon="3.52146">
        <ele>193.4</ele>
        <time>2016-05-09T12:33:54.820Z</time>
      </trkpt>
      <trkpt lat="49.52295" lon="3.5214">
        <ele>192.4</ele>
        <time>2016-05-09T12:34:01.795Z</time>
      </trkpt>
      <trkpt lat="49.52294" lon="3.52139">
        <ele>192.4</ele>
        <time>2016-05-09T12:34:02.787Z</time>
      </trkpt>
      <trkpt lat="49.52292" lon="3.52127">
        <ele>191.9</ele>
        <time>2016-05-09T12:34:12.795Z</time>
      </trkpt>
      <trkpt lat="49.52291" lon="3.52123">
        <ele>191.8</ele>
        <time>2016-05-09T12:34:13.788Z</time>
      </trkpt>
      <trkpt lat="49.52286" lon="3.52112">
        <ele>191.7</ele>
        <time>2016-05-09T12:34:20.944Z</time>
      </trkpt>
      <trkpt lat="49.52286" lon="3.52111">
        <ele>191.5</ele>
        <time>2016-05-09T12:34:21.738Z</time>
      </trkpt>
      <trkpt lat="49.52281" lon="3.521">
        <ele>190.5</ele>
        <time>2016-05-09T12:34:32.751Z</time>
      </trkpt>
      <trkpt lat="49.5228" lon="3.52097">
        <ele>190.7</ele>
        <time>2016-05-09T12:34:33.738Z</time>
      </trkpt>
      <trkpt lat="49.52275" lon="3.52087">
        <ele>190.3</ele>
        <time>2016-05-09T12:34:40.743Z</time>
      </trkpt>
      <trkpt lat="49.52274" lon="3.52085">
        <ele>190.3</ele>
        <time>2016-05-09T12:34:41.763Z</time>
      </trkpt>
      <trkpt lat="49.52274" lon="3.52084">
        <ele>190.5</ele>
        <time>2016-05-09T12:34:42.797Z</time>
      </trkpt>
      <trkpt lat="49.52273" lon="3.52083">
        <ele>190.6</ele>
        <time>2016-05-09T12:34:43.788Z</time>
      </trkpt>
      <trkpt lat="49.52273" lon="3.52083">
        <ele>190.6</ele>
        <time>2016-05-09T12:34:43.805Z</time>
      </trkpt>
      <trkpt lat="49.52273" lon="3.52081">
        <ele>190.6</ele>
        <time>2016-05-09T12:34:44.793Z</time>
      </trkpt>
      <trkpt lat="49.52267" lon="3.5207">
        <ele>190.4</ele>
        <time>2016-05-09T12:34:53.776Z</time>
      </trkpt>
      <trkpt lat="49.52267" lon="3.52069">
        <ele>190.4</ele>
        <time>2016-05-09T12:34:54.766Z</time>
      </trkpt>
      <trkpt lat="49.52264" lon="3.52057">
        <ele>190.3</ele>
        <time>2016-05-09T12:35:00.853Z</time>
      </trkpt>
      <trkpt lat="49.52263" lon="3.52055">
        <ele>190.2</ele>
        <time>2016-05-09T12:35:01.724Z</time>
      </trkpt>
      <trkpt lat="49.52258" lon="3.52044">
        <ele>187.8</ele>
        <time>2016-05-09T12:35:12.859Z</time>
      </trkpt>
      <trkpt lat="49.52257" lon="3.52042">
        <ele>187.4</ele>
        <time>2016-05-09T12:35:13.729Z</time>
      </trkpt>
      <trkpt lat="49.52253" lon="3.52033">
        <ele>185.6</ele>
        <time>2016-05-09T12:35:19.789Z</time>
      </trkpt>
      <trkpt lat="49.52253" lon="3.52032">
        <ele>185.4</ele>
        <time>2016-05-09T12:35:20.794Z</time>
      </trkpt>
      <trkpt lat="49.52253" lon="3.52032">
        <ele>185.4</ele>
        <time>2016-05-09T12:35:20.813Z</time>
      </trkpt>
      <trkpt lat="49.52252" lon="3.52031">
        <ele>185.3</ele>
        <time>2016-05-09T12:35:21.807Z</time>
      </trkpt>
      <trkpt lat="49.52248" lon="3.52021">
        <ele>184.4</ele>
        <time>2016-05-09T12:35:27.745Z</time>
      </trkpt>
      <trkpt lat="49.52247" lon="3.52019">
        <ele>184.3</ele>
        <time>2016-05-09T12:35:28.745Z</time>
      </trkpt>
      <trkpt lat="49.52247" lon="3.52006">
        <ele>184.1</ele>
        <time>2016-05-09T12:35:35.753Z</time>
      </trkpt>
      <trkpt lat="49.52247" lon="3.52004">
        <ele>184.1</ele>
        <time>2016-05-09T12:35:36.747Z</time>
      </trkpt>
      <trkpt lat="49.52245" lon="3.51991">
        <ele>184.2</ele>
        <time>2016-05-09T12:35:45.745Z</time>
      </trkpt>
      <trkpt lat="49.52245" lon="3.51989">
        <ele>184</ele>
        <time>2016-05-09T12:35:46.746Z</time>
      </trkpt>
      <trkpt lat="49.52239" lon="3.51981">
        <ele>183</ele>
        <time>2016-05-09T12:35:51.811Z</time>
      </trkpt>
      <trkpt lat="49.52237" lon="3.5198">
        <ele>182.4</ele>
        <time>2016-05-09T12:35:52.797Z</time>
      </trkpt>
      <trkpt lat="49.52232" lon="3.51969">
        <ele>180.9</ele>
        <time>2016-05-09T12:35:59.795Z</time>
      </trkpt>
      <trkpt lat="49.52231" lon="3.51967">
        <ele>180.6</ele>
        <time>2016-05-09T12:36:00.783Z</time>
      </trkpt>
      <trkpt lat="49.52229" lon="3.51957">
        <ele>180.4</ele>
        <time>2016-05-09T12:36:05.845Z</time>
      </trkpt>
      <trkpt lat="49.52229" lon="3.51956">
        <ele>180.4</ele>
        <time>2016-05-09T12:36:06.832Z</time>
      </trkpt>
      <trkpt lat="49.52229" lon="3.51956">
        <ele>180.4</ele>
        <time>2016-05-09T12:36:06.849Z</time>
      </trkpt>
      <trkpt lat="49.52228" lon="3.51955">
        <ele>180.4</ele>
        <time>2016-05-09T12:36:07.721Z</time>
      </trkpt>
      <trkpt lat="49.52224" lon="3.51943">
        <ele>179.1</ele>
        <time>2016-05-09T12:36:16.825Z</time>
      </trkpt>
      <trkpt lat="49.52224" lon="3.51941">
        <ele>179.2</ele>
        <time>2016-05-09T12:36:17.818Z</time>
      </trkpt>
      <trkpt lat="49.52223" lon="3.51935">
        <ele>179.3</ele>
        <time>2016-05-09T12:36:21.771Z</time>
      </trkpt>
      <trkpt lat="49.52222" lon="3.51934">
        <ele>179.1</ele>
        <time>2016-05-09T12:36:22.756Z</time>
      </trkpt>
      <trkpt lat="49.52222" lon="3.51934">
        <ele>179.1</ele>
        <time>2016-05-09T12:36:22.773Z</time>
      </trkpt>
      <trkpt lat="49.52222" lon="3.51933">
        <ele>179.1</ele>
        <time>2016-05-09T12:36:23.771Z</time>
      </trkpt>
      <trkpt lat="49.52216" lon="3.51924">
        <ele>178</ele>
        <time>2016-05-09T12:36:29.756Z</time>
      </trkpt>
      <trkpt lat="49.52216" lon="3.51922">
        <ele>177.9</ele>
        <time>2016-05-09T12:36:30.842Z</time>
      </trkpt>
      <trkpt lat="49.52212" lon="3.5191">
        <ele>177.2</ele>
        <time>2016-05-09T12:36:39.780Z</time>
      </trkpt>
      <trkpt lat="49.52212" lon="3.51908">
        <ele>177.2</ele>
        <time>2016-05-09T12:36:40.774Z</time>
      </trkpt>
      <trkpt lat="49.52212" lon="3.51905">
        <ele>177.3</ele>
        <time>2016-05-09T12:36:42.806Z</time>
      </trkpt>
      <trkpt lat="49.52212" lon="3.51904">
        <ele>177.3</ele>
        <time>2016-05-09T12:36:43.803Z</time>
      </trkpt>
      <trkpt lat="49.52212" lon="3.51904">
        <ele>177.3</ele>
        <time>2016-05-09T12:36:43.822Z</time>
      </trkpt>
      <trkpt lat="49.52213" lon="3.51902">
        <ele>177.2</ele>
        <time>2016-05-09T12:36:44.731Z</time>
      </trkpt>
      <trkpt lat="49.52211" lon="3.5189">
        <ele>176.5</ele>
        <time>2016-05-09T12:36:53.818Z</time>
      </trkpt>
      <trkpt lat="49.5221" lon="3.51888">
        <ele>176.5</ele>
        <time>2016-05-09T12:36:54.807Z</time>
      </trkpt>
      <trkpt lat="49.52204" lon="3.51877">
        <ele>175.9</ele>
        <time>2016-05-09T12:36:59.766Z</time>
      </trkpt>
      <trkpt lat="49.52203" lon="3.51874">
        <ele>175.8</ele>
        <time>2016-05-09T12:37:00.794Z</time>
      </trkpt>
      <trkpt lat="49.52197" lon="3.51865">
        <ele>174.7</ele>
        <time>2016-05-09T12:37:05.985Z</time>
      </trkpt>
      <trkpt lat="49.52197" lon="3.51864">
        <ele>174.6</ele>
        <time>2016-05-09T12:37:06.756Z</time>
      </trkpt>
      <trkpt lat="49.52194" lon="3.51852">
        <ele>174.4</ele>
        <time>2016-05-09T12:37:13.739Z</time>
      </trkpt>
      <trkpt lat="49.52194" lon="3.5185">
        <ele>174.3</ele>
        <time>2016-05-09T12:37:14.731Z</time>
      </trkpt>
      <trkpt lat="49.52191" lon="3.51838">
        <ele>173.7</ele>
        <time>2016-05-09T12:37:23.922Z</time>
      </trkpt>
      <trkpt lat="49.5219" lon="3.51837">
        <ele>173.7</ele>
        <time>2016-05-09T12:37:24.819Z</time>
      </trkpt>
      <trkpt lat="49.52186" lon="3.51825">
        <ele>172.4</ele>
        <time>2016-05-09T12:37:32.734Z</time>
      </trkpt>
      <trkpt lat="49.52186" lon="3.51824">
        <ele>172.4</ele>
        <time>2016-05-09T12:37:33.724Z</time>
      </trkpt>
      <trkpt lat="49.52186" lon="3.51824">
        <ele>172.4</ele>
        <time>2016-05-09T12:37:33.735Z</time>
      </trkpt>
      <trkpt lat="49.52185" lon="3.51822">
        <ele>172.7</ele>
        <time>2016-05-09T12:37:34.732Z</time>
      </trkpt>
      <trkpt lat="49.52185" lon="3.5181">
        <ele>172.5</ele>
        <time>2016-05-09T12:37:41.834Z</time>
      </trkpt>
      <trkpt lat="49.52185" lon="3.51807">
        <ele>172.5</ele>
        <time>2016-05-09T12:37:42.810Z</time>
      </trkpt>
      <trkpt lat="49.52181" lon="3.51797">
        <ele>171.6</ele>
        <time>2016-05-09T12:37:48.787Z</time>
      </trkpt>
      <trkpt lat="49.5218" lon="3.51795">
        <ele>171.6</ele>
        <time>2016-05-09T12:37:49.778Z</time>
      </trkpt>
      <trkpt lat="49.52175" lon="3.51786">
        <ele>170.6</ele>
        <time>2016-05-09T12:37:54.825Z</time>
      </trkpt>
      <trkpt lat="49.52174" lon="3.51784">
        <ele>170.3</ele>
        <time>2016-05-09T12:37:55.826Z</time>
      </trkpt>
      <trkpt lat="49.52169" lon="3.51773">
        <ele>169.5</ele>
        <time>2016-05-09T12:38:01.820Z</time>
      </trkpt>
      <trkpt lat="49.52169" lon="3.51771">
        <ele>169.4</ele>
        <time>2016-05-09T12:38:02.809Z</time>
      </trkpt>
      <trkpt lat="49.52164" lon="3.5176">
        <ele>168.1</ele>
        <time>2016-05-09T12:38:07.787Z</time>
      </trkpt>
      <trkpt lat="49.52164" lon="3.51758">
        <ele>167.8</ele>
        <time>2016-05-09T12:38:08.777Z</time>
      </trkpt>
      <trkpt lat="49.52158" lon="3.51749">
        <ele>166.4</ele>
        <time>2016-05-09T12:38:13.747Z</time>
      </trkpt>
      <trkpt lat="49.52157" lon="3.51748">
        <ele>165.8</ele>
        <time>2016-05-09T12:38:14.736Z</time>
      </trkpt>
      <trkpt lat="49.52151" lon="3.51739">
        <ele>164.1</ele>
        <time>2016-05-09T12:38:21.801Z</time>
      </trkpt>
      <trkpt lat="49.5215" lon="3.51738">
        <ele>163.9</ele>
        <time>2016-05-09T12:38:22.805Z</time>
      </trkpt>
      <trkpt lat="49.52144" lon="3.51729">
        <ele>162.2</ele>
        <time>2016-05-09T12:38:28.777Z</time>
      </trkpt>
      <trkpt lat="49.52143" lon="3.51727">
        <ele>162.1</ele>
        <time>2016-05-09T12:38:29.767Z</time>
      </trkpt>
      <trkpt lat="49.52137" lon="3.51718">
        <ele>161.1</ele>
        <time>2016-05-09T12:38:36.798Z</time>
      </trkpt>
      <trkpt lat="49.52136" lon="3.51717">
        <ele>160.9</ele>
        <time>2016-05-09T12:38:37.787Z</time>
      </trkpt>
      <trkpt lat="49.5213" lon="3.51708">
        <ele>160.1</ele>
        <time>2016-05-09T12:38:44.769Z</time>
      </trkpt>
      <trkpt lat="49.52129" lon="3.51707">
        <ele>160.1</ele>
        <time>2016-05-09T12:38:45.871Z</time>
      </trkpt>
      <trkpt lat="49.52121" lon="3.51699">
        <ele>159.7</ele>
        <time>2016-05-09T12:38:54.022Z</time>
      </trkpt>
      <trkpt lat="49.52121" lon="3.51697">
        <ele>159.4</ele>
        <time>2016-05-09T12:38:54.792Z</time>
      </trkpt>
      <trkpt lat="49.52115" lon="3.51688">
        <ele>158.8</ele>
        <time>2016-05-09T12:39:00.867Z</time>
      </trkpt>
      <trkpt lat="49.52114" lon="3.51687">
        <ele>158.8</ele>
        <time>2016-05-09T12:39:01.747Z</time>
      </trkpt>
      <trkpt lat="49.52108" lon="3.51678">
        <ele>158.1</ele>
        <time>2016-05-09T12:39:08.837Z</time>
      </trkpt>
      <trkpt lat="49.52107" lon="3.51676">
        <ele>158.1</ele>
        <time>2016-05-09T12:39:09.740Z</time>
      </trkpt>
      <trkpt lat="49.52101" lon="3.51666">
        <ele>157.3</ele>
        <time>2016-05-09T12:39:16.836Z</time>
      </trkpt>
      <trkpt lat="49.521" lon="3.51665">
        <ele>157.4</ele>
        <time>2016-05-09T12:39:17.835Z</time>
      </trkpt>
      <trkpt lat="49.52094" lon="3.51655">
        <ele>157.2</ele>
        <time>2016-05-09T12:39:25.818Z</time>
      </trkpt>
      <trkpt lat="49.52093" lon="3.51654">
        <ele>157.2</ele>
        <time>2016-05-09T12:39:26.813Z</time>
      </trkpt>
      <trkpt lat="49.52086" lon="3.51646">
        <ele>157.7</ele>
        <time>2016-05-09T12:39:33.796Z</time>
      </trkpt>
      <trkpt lat="49.52086" lon="3.51644">
        <ele>157.6</ele>
        <time>2016-05-09T12:39:34.785Z</time>
      </trkpt>
      <trkpt lat="49.52081" lon="3.51633">
        <ele>157.9</ele>
        <time>2016-05-09T12:39:41.803Z</time>
      </trkpt>
      <trkpt lat="49.52081" lon="3.51632">
        <ele>157.7</ele>
        <time>2016-05-09T12:39:42.790Z</time>
      </trkpt>
      <trkpt lat="49.52075" lon="3.51622">
        <ele>158</ele>
        <time>2016-05-09T12:39:51.821Z</time>
      </trkpt>
      <trkpt lat="49.52074" lon="3.51621">
        <ele>157.8</ele>
        <time>2016-05-09T12:39:52.777Z</time>
      </trkpt>
      <trkpt lat="49.52068" lon="3.51611">
        <ele>157.2</ele>
        <time>2016-05-09T12:40:00.840Z</time>
      </trkpt>
      <trkpt lat="49.52067" lon="3.51611">
        <ele>157.2</ele>
        <time>2016-05-09T12:40:01.823Z</time>
      </trkpt>
      <trkpt lat="49.5206" lon="3.51602">
        <ele>156.9</ele>
        <time>2016-05-09T12:40:09.806Z</time>
      </trkpt>
      <trkpt lat="49.5206" lon="3.51601">
        <ele>156.6</ele>
        <time>2016-05-09T12:40:10.791Z</time>
      </trkpt>
      <trkpt lat="49.52053" lon="3.51593">
        <ele>156.2</ele>
        <time>2016-05-09T12:40:17.776Z</time>
      </trkpt>
      <trkpt lat="49.52052" lon="3.51591">
        <ele>156.1</ele>
        <time>2016-05-09T12:40:18.772Z</time>
      </trkpt>
      <trkpt lat="49.52046" lon="3.51582">
        <ele>155.6</ele>
        <time>2016-05-09T12:40:23.759Z</time>
      </trkpt>
      <trkpt lat="49.52045" lon="3.5158">
        <ele>155.6</ele>
        <time>2016-05-09T12:40:24.848Z</time>
      </trkpt>
      <trkpt lat="49.52039" lon="3.5157">
        <ele>155.5</ele>
        <time>2016-05-09T12:40:31.830Z</time>
      </trkpt>
      <trkpt lat="49.52039" lon="3.51569">
        <ele>155.6</ele>
        <time>2016-05-09T12:40:32.726Z</time>
      </trkpt>
      <trkpt lat="49.52032" lon="3.51561">
        <ele>155.7</ele>
        <time>2016-05-09T12:40:39.797Z</time>
      </trkpt>
      <trkpt lat="49.52031" lon="3.51559">
        <ele>155.8</ele>
        <time>2016-05-09T12:40:40.790Z</time>
      </trkpt>
      <trkpt lat="49.52025" lon="3.51549">
        <ele>156</ele>
        <time>2016-05-09T12:40:48.784Z</time>
      </trkpt>
      <trkpt lat="49.52025" lon="3.51548">
        <ele>156</ele>
        <time>2016-05-09T12:40:49.780Z</time>
      </trkpt>
      <trkpt lat="49.52019" lon="3.51537">
        <ele>156.3</ele>
        <time>2016-05-09T12:40:57.760Z</time>
      </trkpt>
      <trkpt lat="49.52018" lon="3.51536">
        <ele>156.3</ele>
        <time>2016-05-09T12:40:58.755Z</time>
      </trkpt>
      <trkpt lat="49.52012" lon="3.51529">
        <ele>155.9</ele>
        <time>2016-05-09T12:41:03.761Z</time>
      </trkpt>
      <trkpt lat="49.52011" lon="3.51528">
        <ele>155.8</ele>
        <time>2016-05-09T12:41:04.754Z</time>
      </trkpt>
      <trkpt lat="49.52004" lon="3.5152">
        <ele>156</ele>
        <time>2016-05-09T12:41:11.874Z</time>
      </trkpt>
      <trkpt lat="49.52003" lon="3.51519">
        <ele>156</ele>
        <time>2016-05-09T12:41:12.772Z</time>
      </trkpt>
      <trkpt lat="49.51998" lon="3.51508">
        <ele>155.7</ele>
        <time>2016-05-09T12:41:18.841Z</time>
      </trkpt>
      <trkpt lat="49.51997" lon="3.51507">
        <ele>155.5</ele>
        <time>2016-05-09T12:41:19.752Z</time>
      </trkpt>
      <trkpt lat="49.51992" lon="3.51497">
        <ele>155.5</ele>
        <time>2016-05-09T12:41:26.814Z</time>
      </trkpt>
      <trkpt lat="49.51991" lon="3.51496">
        <ele>155.5</ele>
        <time>2016-05-09T12:41:27.807Z</time>
      </trkpt>
      <trkpt lat="49.51984" lon="3.51487">
        <ele>155.4</ele>
        <time>2016-05-09T12:41:34.773Z</time>
      </trkpt>
      <trkpt lat="49.51984" lon="3.51486">
        <ele>155.3</ele>
        <time>2016-05-09T12:41:35.767Z</time>
      </trkpt>
      <trkpt lat="49.51979" lon="3.51477">
        <ele>155.1</ele>
        <time>2016-05-09T12:41:42.862Z</time>
      </trkpt>
      <trkpt lat="49.51978" lon="3.51475">
        <ele>155</ele>
        <time>2016-05-09T12:41:43.729Z</time>
      </trkpt>
      <trkpt lat="49.51973" lon="3.51465">
        <ele>154.8</ele>
        <time>2016-05-09T12:41:51.861Z</time>
      </trkpt>
      <trkpt lat="49.51972" lon="3.51464">
        <ele>154.5</ele>
        <time>2016-05-09T12:41:52.805Z</time>
      </trkpt>
      <trkpt lat="49.51966" lon="3.51454">
        <ele>154</ele>
        <time>2016-05-09T12:41:59.804Z</time>
      </trkpt>
      <trkpt lat="49.51965" lon="3.51453">
        <ele>154</ele>
        <time>2016-05-09T12:42:00.832Z</time>
      </trkpt>
      <trkpt lat="49.51958" lon="3.51444">
        <ele>153.3</ele>
        <time>2016-05-09T12:42:08.017Z</time>
      </trkpt>
      <trkpt lat="49.51958" lon="3.51443">
        <ele>153.2</ele>
        <time>2016-05-09T12:42:08.802Z</time>
      </trkpt>
      <trkpt lat="49.51951" lon="3.51433">
        <ele>154.2</ele>
        <time>2016-05-09T12:42:16.805Z</time>
      </trkpt>
      <trkpt lat="49.51951" lon="3.51433">
        <ele>154.3</ele>
        <time>2016-05-09T12:42:17.794Z</time>
      </trkpt>
      <trkpt lat="49.51945" lon="3.51422">
        <ele>153.7</ele>
        <time>2016-05-09T12:42:24.817Z</time>
      </trkpt>
      <trkpt lat="49.51945" lon="3.51421">
        <ele>153.6</ele>
        <time>2016-05-09T12:42:25.795Z</time>
      </trkpt>
      <trkpt lat="49.51939" lon="3.51412">
        <ele>153.6</ele>
        <time>2016-05-09T12:42:32.766Z</time>
      </trkpt>
      <trkpt lat="49.51938" lon="3.5141">
        <ele>153.2</ele>
        <time>2016-05-09T12:42:33.751Z</time>
      </trkpt>
      <trkpt lat="49.51934" lon="3.51399">
        <ele>152.8</ele>
        <time>2016-05-09T12:42:40.834Z</time>
      </trkpt>
      <trkpt lat="49.51934" lon="3.51398">
        <ele>152.8</ele>
        <time>2016-05-09T12:42:41.827Z</time>
      </trkpt>
      <trkpt lat="49.51928" lon="3.51389">
        <ele>152.6</ele>
        <time>2016-05-09T12:42:48.813Z</time>
      </trkpt>
      <trkpt lat="49.51927" lon="3.51387">
        <ele>152.5</ele>
        <time>2016-05-09T12:42:49.816Z</time>
      </trkpt>
      <trkpt lat="49.51922" lon="3.51377">
        <ele>151.4</ele>
        <time>2016-05-09T12:42:55.816Z</time>
      </trkpt>
      <trkpt lat="49.51921" lon="3.51375">
        <ele>151.5</ele>
        <time>2016-05-09T12:42:56.817Z</time>
      </trkpt>
      <trkpt lat="49.51915" lon="3.51365">
        <ele>150.4</ele>
        <time>2016-05-09T12:43:04.764Z</time>
      </trkpt>
      <trkpt lat="49.51914" lon="3.51363">
        <ele>150.3</ele>
        <time>2016-05-09T12:43:05.754Z</time>
      </trkpt>
      <trkpt lat="49.51908" lon="3.51355">
        <ele>149</ele>
        <time>2016-05-09T12:43:09.801Z</time>
      </trkpt>
      <trkpt lat="49.51907" lon="3.51353">
        <ele>149</ele>
        <time>2016-05-09T12:43:10.802Z</time>
      </trkpt>
      <trkpt lat="49.51902" lon="3.51344">
        <ele>149</ele>
        <time>2016-05-09T12:43:16.774Z</time>
      </trkpt>
      <trkpt lat="49.51901" lon="3.51342">
        <ele>148.8</ele>
        <time>2016-05-09T12:43:17.765Z</time>
      </trkpt>
      <trkpt lat="49.51897" lon="3.51332">
        <ele>148.9</ele>
        <time>2016-05-09T12:43:24.837Z</time>
      </trkpt>
      <trkpt lat="49.51896" lon="3.5133">
        <ele>148.9</ele>
        <time>2016-05-09T12:43:25.740Z</time>
      </trkpt>
      <trkpt lat="49.51893" lon="3.51319">
        <ele>148.8</ele>
        <time>2016-05-09T12:43:30.823Z</time>
      </trkpt>
      <trkpt lat="49.51893" lon="3.51317">
        <ele>148.7</ele>
        <time>2016-05-09T12:43:31.807Z</time>
      </trkpt>
      <trkpt lat="49.51893" lon="3.51305">
        <ele>148.2</ele>
        <time>2016-05-09T12:43:37.796Z</time>
      </trkpt>
      <trkpt lat="49.51893" lon="3.51303">
        <ele>148.2</ele>
        <time>2016-05-09T12:43:38.787Z</time>
      </trkpt>
      <trkpt lat="49.51892" lon="3.5129">
        <ele>148</ele>
        <time>2016-05-09T12:43:45.774Z</time>
      </trkpt>
      <trkpt lat="49.51892" lon="3.51288">
        <ele>148.2</ele>
        <time>2016-05-09T12:43:46.765Z</time>
      </trkpt>
      <trkpt lat="49.5189" lon="3.51276">
        <ele>147.8</ele>
        <time>2016-05-09T12:43:53.973Z</time>
      </trkpt>
      <trkpt lat="49.51889" lon="3.51274">
        <ele>147.7</ele>
        <time>2016-05-09T12:43:54.861Z</time>
      </trkpt>
      <trkpt lat="49.51888" lon="3.51261">
        <ele>147.8</ele>
        <time>2016-05-09T12:44:02.831Z</time>
      </trkpt>
      <trkpt lat="49.51888" lon="3.5126">
        <ele>147.9</ele>
        <time>2016-05-09T12:44:03.870Z</time>
      </trkpt>
      <trkpt lat="49.51889" lon="3.51247">
        <ele>148.2</ele>
        <time>2016-05-09T12:44:11.808Z</time>
      </trkpt>
      <trkpt lat="49.51889" lon="3.51245">
        <ele>148.3</ele>
        <time>2016-05-09T12:44:12.801Z</time>
      </trkpt>
      <trkpt lat="49.51887" lon="3.51232">
        <ele>148.9</ele>
        <time>2016-05-09T12:44:19.759Z</time>
      </trkpt>
      <trkpt lat="49.51887" lon="3.5123">
        <ele>149</ele>
        <time>2016-05-09T12:44:20.758Z</time>
      </trkpt>
      <trkpt lat="49.51885" lon="3.51218">
        <ele>148.9</ele>
        <time>2016-05-09T12:44:27.841Z</time>
      </trkpt>
      <trkpt lat="49.51885" lon="3.51216">
        <ele>149</ele>
        <time>2016-05-09T12:44:28.831Z</time>
      </trkpt>
      <trkpt lat="49.51883" lon="3.51204">
        <ele>149.6</ele>
        <time>2016-05-09T12:44:34.788Z</time>
      </trkpt>
      <trkpt lat="49.51883" lon="3.51203">
        <ele>149.5</ele>
        <time>2016-05-09T12:44:35.775Z</time>
      </trkpt>
      <trkpt lat="49.51882" lon="3.51191">
        <ele>149.2</ele>
        <time>2016-05-09T12:44:40.869Z</time>
      </trkpt>
      <trkpt lat="49.51882" lon="3.51188">
        <ele>149.3</ele>
        <time>2016-05-09T12:44:41.835Z</time>
      </trkpt>
      <trkpt lat="49.51881" lon="3.51176">
        <ele>149</ele>
        <time>2016-05-09T12:44:48.818Z</time>
      </trkpt>
      <trkpt lat="49.51881" lon="3.51174">
        <ele>149.2</ele>
        <time>2016-05-09T12:44:49.815Z</time>
      </trkpt>
      <trkpt lat="49.5188" lon="3.51161">
        <ele>149.8</ele>
        <time>2016-05-09T12:44:56.819Z</time>
      </trkpt>
      <trkpt lat="49.5188" lon="3.51159">
        <ele>150</ele>
        <time>2016-05-09T12:44:57.816Z</time>
      </trkpt>
      <trkpt lat="49.51879" lon="3.51145">
        <ele>149.8</ele>
        <time>2016-05-09T12:45:03.780Z</time>
      </trkpt>
      <trkpt lat="49.51879" lon="3.51144">
        <ele>149.7</ele>
        <time>2016-05-09T12:45:04.776Z</time>
      </trkpt>
      <trkpt lat="49.51879" lon="3.5113">
        <ele>150</ele>
        <time>2016-05-09T12:45:12.880Z</time>
      </trkpt>
      <trkpt lat="49.51879" lon="3.51128">
        <ele>150</ele>
        <time>2016-05-09T12:45:13.749Z</time>
      </trkpt>
      <trkpt lat="49.51877" lon="3.51117">
        <ele>149.8</ele>
        <time>2016-05-09T12:45:20.779Z</time>
      </trkpt>
      <trkpt lat="49.51876" lon="3.51115">
        <ele>149.9</ele>
        <time>2016-05-09T12:45:21.770Z</time>
      </trkpt>
      <trkpt lat="49.51874" lon="3.51102">
        <ele>149.7</ele>
        <time>2016-05-09T12:45:28.802Z</time>
      </trkpt>
      <trkpt lat="49.51874" lon="3.511">
        <ele>149.7</ele>
        <time>2016-05-09T12:45:29.765Z</time>
      </trkpt>
      <trkpt lat="49.51873" lon="3.51098">
        <ele>149.7</ele>
        <time>2016-05-09T12:45:30.855Z</time>
      </trkpt>
      <trkpt lat="49.51873" lon="3.51097">
        <ele>149.6</ele>
        <time>2016-05-09T12:45:31.755Z</time>
      </trkpt>
      <trkpt lat="49.51873" lon="3.51097">
        <ele>149.6</ele>
        <time>2016-05-09T12:45:31.772Z</time>
      </trkpt>
      <trkpt lat="49.51874" lon="3.51096">
        <ele>149.4</ele>
        <time>2016-05-09T12:45:32.760Z</time>
      </trkpt>
      <trkpt lat="49.51874" lon="3.51084">
        <ele>149</ele>
        <time>2016-05-09T12:45:37.860Z</time>
      </trkpt>
      <trkpt lat="49.51874" lon="3.51082">
        <ele>148.7</ele>
        <time>2016-05-09T12:45:38.768Z</time>
      </trkpt>
      <trkpt lat="49.51874" lon="3.51068">
        <ele>148.4</ele>
        <time>2016-05-09T12:45:45.794Z</time>
      </trkpt>
      <trkpt lat="49.51874" lon="3.51065">
        <ele>148.1</ele>
        <time>2016-05-09T12:45:46.783Z</time>
      </trkpt>
      <trkpt lat="49.51875" lon="3.51053">
        <ele>147.4</ele>
        <time>2016-05-09T12:45:51.849Z</time>
      </trkpt>
      <trkpt lat="49.51875" lon="3.51051">
        <ele>147.2</ele>
        <time>2016-05-09T12:45:52.837Z</time>
      </trkpt>
      <trkpt lat="49.51875" lon="3.51038">
        <ele>147.2</ele>
        <time>2016-05-09T12:45:59.818Z</time>
      </trkpt>
      <trkpt lat="49.51875" lon="3.51036">
        <ele>147</ele>
        <time>2016-05-09T12:46:00.848Z</time>
      </trkpt>
      <trkpt lat="49.51876" lon="3.51023">
        <ele>147</ele>
        <time>2016-05-09T12:46:08.306Z</time>
      </trkpt>
      <trkpt lat="49.51877" lon="3.51022">
        <ele>147</ele>
        <time>2016-05-09T12:46:09.308Z</time>
      </trkpt>
      <trkpt lat="49.51875" lon="3.51012">
        <ele>147.3</ele>
        <time>2016-05-09T12:46:18.230Z</time>
      </trkpt>
      <trkpt lat="49.51875" lon="3.51011">
        <ele>147.3</ele>
        <time>2016-05-09T12:46:19.261Z</time>
      </trkpt>
      <trkpt lat="49.51876" lon="3.51012">
        <ele>147.4</ele>
        <time>2016-05-09T12:46:22.315Z</time>
      </trkpt>
      <trkpt lat="49.51876" lon="3.51011">
        <ele>147.3</ele>
        <time>2016-05-09T12:46:23.300Z</time>
      </trkpt>
      <trkpt lat="49.51876" lon="3.51011">
        <ele>147.3</ele>
        <time>2016-05-09T12:46:23.318Z</time>
      </trkpt>
      <trkpt lat="49.51876" lon="3.51011">
        <ele>147.4</ele>
        <time>2016-05-09T12:46:24.305Z</time>
      </trkpt>
      <trkpt lat="49.51876" lon="3.51011">
        <ele>147.6</ele>
        <time>2016-05-09T12:47:53.310Z</time>
      </trkpt>
      <trkpt lat="49.51873" lon="3.51011">
        <ele>148.6</ele>
        <time>2016-05-09T12:47:54.216Z</time>
      </trkpt>
      <trkpt lat="49.51872" lon="3.50999">
        <ele>146.3</ele>
        <time>2016-05-09T12:48:26.235Z</time>
      </trkpt>
      <trkpt lat="49.51872" lon="3.50997">
        <ele>146.1</ele>
        <time>2016-05-09T12:48:27.219Z</time>
      </trkpt>
      <trkpt lat="49.51872" lon="3.50984">
        <ele>145</ele>
        <time>2016-05-09T12:48:36.225Z</time>
      </trkpt>
      <trkpt lat="49.51872" lon="3.50982">
        <ele>145</ele>
        <time>2016-05-09T12:48:37.256Z</time>
      </trkpt>
      <trkpt lat="49.51872" lon="3.50969">
        <ele>144.9</ele>
        <time>2016-05-09T12:48:45.246Z</time>
      </trkpt>
      <trkpt lat="49.51872" lon="3.50967">
        <ele>145</ele>
        <time>2016-05-09T12:48:46.231Z</time>
      </trkpt>
      <trkpt lat="49.51873" lon="3.50955">
        <ele>144.4</ele>
        <time>2016-05-09T12:48:55.335Z</time>
      </trkpt>
      <trkpt lat="49.51874" lon="3.50952">
        <ele>144.3</ele>
        <time>2016-05-09T12:48:56.216Z</time>
      </trkpt>
      <trkpt lat="49.51873" lon="3.50939">
        <ele>143.2</ele>
        <time>2016-05-09T12:49:04.226Z</time>
      </trkpt>
      <trkpt lat="49.51873" lon="3.50938">
        <ele>143.3</ele>
        <time>2016-05-09T12:49:05.225Z</time>
      </trkpt>
      <trkpt lat="49.51874" lon="3.50925">
        <ele>142.4</ele>
        <time>2016-05-09T12:49:12.306Z</time>
      </trkpt>
      <trkpt lat="49.51874" lon="3.50923">
        <ele>142.2</ele>
        <time>2016-05-09T12:49:13.292Z</time>
      </trkpt>
      <trkpt lat="49.51873" lon="3.5091">
        <ele>141.7</ele>
        <time>2016-05-09T12:49:21.295Z</time>
      </trkpt>
      <trkpt lat="49.51873" lon="3.50908">
        <ele>141.7</ele>
        <time>2016-05-09T12:49:22.283Z</time>
      </trkpt>
      <trkpt lat="49.51872" lon="3.50896">
        <ele>141.2</ele>
        <time>2016-05-09T12:49:29.271Z</time>
      </trkpt>
      <trkpt lat="49.51873" lon="3.50894">
        <ele>141.2</ele>
        <time>2016-05-09T12:49:30.267Z</time>
      </trkpt>
      <trkpt lat="49.51874" lon="3.50881">
        <ele>140.5</ele>
        <time>2016-05-09T12:49:37.269Z</time>
      </trkpt>
      <trkpt lat="49.51874" lon="3.50879">
        <ele>140.5</ele>
        <time>2016-05-09T12:49:38.272Z</time>
      </trkpt>
      <trkpt lat="49.51874" lon="3.50867">
        <ele>140.6</ele>
        <time>2016-05-09T12:49:46.232Z</time>
      </trkpt>
      <trkpt lat="49.51875" lon="3.50865">
        <ele>140.5</ele>
        <time>2016-05-09T12:49:47.237Z</time>
      </trkpt>
      <trkpt lat="49.51873" lon="3.50853">
        <ele>140.9</ele>
        <time>2016-05-09T12:49:54.325Z</time>
      </trkpt>
      <trkpt lat="49.51873" lon="3.50851">
        <ele>140.9</ele>
        <time>2016-05-09T12:49:55.309Z</time>
      </trkpt>
      <trkpt lat="49.51874" lon="3.50838">
        <ele>140.7</ele>
        <time>2016-05-09T12:50:01.313Z</time>
      </trkpt>
      <trkpt lat="49.51875" lon="3.50836">
        <ele>140.5</ele>
        <time>2016-05-09T12:50:02.204Z</time>
      </trkpt>
      <trkpt lat="49.51878" lon="3.50824">
        <ele>139.2</ele>
        <time>2016-05-09T12:50:08.290Z</time>
      </trkpt>
      <trkpt lat="49.51878" lon="3.50822">
        <ele>139</ele>
        <time>2016-05-09T12:50:09.275Z</time>
      </trkpt>
      <trkpt lat="49.51883" lon="3.50811">
        <ele>138.8</ele>
        <time>2016-05-09T12:50:15.283Z</time>
      </trkpt>
      <trkpt lat="49.51883" lon="3.5081">
        <ele>138.7</ele>
        <time>2016-05-09T12:50:16.270Z</time>
      </trkpt>
      <trkpt lat="49.51885" lon="3.50797">
        <ele>138.4</ele>
        <time>2016-05-09T12:50:22.255Z</time>
      </trkpt>
      <trkpt lat="49.51885" lon="3.50795">
        <ele>138.4</ele>
        <time>2016-05-09T12:50:23.233Z</time>
      </trkpt>
      <trkpt lat="49.51889" lon="3.50784">
        <ele>138.8</ele>
        <time>2016-05-09T12:50:30.311Z</time>
      </trkpt>
      <trkpt lat="49.51889" lon="3.50782">
        <ele>138.6</ele>
        <time>2016-05-09T12:50:31.319Z</time>
      </trkpt>
      <trkpt lat="49.51893" lon="3.5077">
        <ele>138.7</ele>
        <time>2016-05-09T12:50:38.279Z</time>
      </trkpt>
      <trkpt lat="49.51893" lon="3.50769">
        <ele>138.7</ele>
        <time>2016-05-09T12:50:39.271Z</time>
      </trkpt>
      <trkpt lat="49.51896" lon="3.50756">
        <ele>138.5</ele>
        <time>2016-05-09T12:50:46.250Z</time>
      </trkpt>
      <trkpt lat="49.51897" lon="3.50754">
        <ele>138.5</ele>
        <time>2016-05-09T12:50:47.247Z</time>
      </trkpt>
      <trkpt lat="49.51899" lon="3.50743">
        <ele>138.3</ele>
        <time>2016-05-09T12:50:54.234Z</time>
      </trkpt>
      <trkpt lat="49.519" lon="3.50741">
        <ele>138.2</ele>
        <time>2016-05-09T12:50:55.262Z</time>
      </trkpt>
      <trkpt lat="49.51902" lon="3.50729">
        <ele>137.6</ele>
        <time>2016-05-09T12:51:02.232Z</time>
      </trkpt>
      <trkpt lat="49.51902" lon="3.50728">
        <ele>137.6</ele>
        <time>2016-05-09T12:51:03.225Z</time>
      </trkpt>
      <trkpt lat="49.51906" lon="3.50715">
        <ele>137.6</ele>
        <time>2016-05-09T12:51:10.325Z</time>
      </trkpt>
      <trkpt lat="49.51906" lon="3.50713">
        <ele>137.5</ele>
        <time>2016-05-09T12:51:11.222Z</time>
      </trkpt>
      <trkpt lat="49.5191" lon="3.50702">
        <ele>139.1</ele>
        <time>2016-05-09T12:51:17.320Z</time>
      </trkpt>
      <trkpt lat="49.51911" lon="3.507">
        <ele>139.2</ele>
        <time>2016-05-09T12:51:18.312Z</time>
      </trkpt>
      <trkpt lat="49.51913" lon="3.50687">
        <ele>138.9</ele>
        <time>2016-05-09T12:51:25.290Z</time>
      </trkpt>
      <trkpt lat="49.51914" lon="3.50686">
        <ele>138.8</ele>
        <time>2016-05-09T12:51:26.282Z</time>
      </trkpt>
      <trkpt lat="49.51917" lon="3.50673">
        <ele>137.6</ele>
        <time>2016-05-09T12:51:33.253Z</time>
      </trkpt>
      <trkpt lat="49.51917" lon="3.50671">
        <ele>137.6</ele>
        <time>2016-05-09T12:51:34.232Z</time>
      </trkpt>
      <trkpt lat="49.5192" lon="3.50659">
        <ele>137.7</ele>
        <time>2016-05-09T12:51:41.227Z</time>
      </trkpt>
      <trkpt lat="49.5192" lon="3.50657">
        <ele>137.8</ele>
        <time>2016-05-09T12:51:42.250Z</time>
      </trkpt>
      <trkpt lat="49.51923" lon="3.50645">
        <ele>137.8</ele>
        <time>2016-05-09T12:51:49.342Z</time>
      </trkpt>
      <trkpt lat="49.51924" lon="3.50643">
        <ele>138</ele>
        <time>2016-05-09T12:51:50.218Z</time>
      </trkpt>
      <trkpt lat="49.51927" lon="3.5063">
        <ele>138</ele>
        <time>2016-05-09T12:51:58.315Z</time>
      </trkpt>
      <trkpt lat="49.51927" lon="3.50628">
        <ele>137.9</ele>
        <time>2016-05-09T12:51:59.216Z</time>
      </trkpt>
      <trkpt lat="49.51928" lon="3.50615">
        <ele>137.7</ele>
        <time>2016-05-09T12:52:06.272Z</time>
      </trkpt>
      <trkpt lat="49.51929" lon="3.50613">
        <ele>137.7</ele>
        <time>2016-05-09T12:52:07.263Z</time>
      </trkpt>
      <trkpt lat="49.5193" lon="3.506">
        <ele>138.2</ele>
        <time>2016-05-09T12:52:14.230Z</time>
      </trkpt>
      <trkpt lat="49.5193" lon="3.50598">
        <ele>138.2</ele>
        <time>2016-05-09T12:52:15.218Z</time>
      </trkpt>
      <trkpt lat="49.51931" lon="3.50585">
        <ele>138</ele>
        <time>2016-05-09T12:52:23.316Z</time>
      </trkpt>
      <trkpt lat="49.51932" lon="3.50583">
        <ele>138</ele>
        <time>2016-05-09T12:52:24.215Z</time>
      </trkpt>
      <trkpt lat="49.51934" lon="3.50573">
        <ele>138.4</ele>
        <time>2016-05-09T12:52:31.298Z</time>
      </trkpt>
      <trkpt lat="49.51933" lon="3.50572">
        <ele>138.6</ele>
        <time>2016-05-09T12:52:32.213Z</time>
      </trkpt>
      <trkpt lat="49.51933" lon="3.50572">
        <ele>138.6</ele>
        <time>2016-05-09T12:52:32.224Z</time>
      </trkpt>
      <trkpt lat="49.51933" lon="3.50572">
        <ele>138.6</ele>
        <time>2016-05-09T12:52:33.212Z</time>
      </trkpt>
      <trkpt lat="49.51932" lon="3.5057">
        <ele>138.3</ele>
        <time>2016-05-09T12:52:43.344Z</time>
      </trkpt>
      <trkpt lat="49.51932" lon="3.5057">
        <ele>138.3</ele>
        <time>2016-05-09T12:52:44.217Z</time>
      </trkpt>
      <trkpt lat="49.51932" lon="3.5057">
        <ele>138.4</ele>
        <time>2016-05-09T12:53:31.340Z</time>
      </trkpt>
      <trkpt lat="49.51929" lon="3.50571">
        <ele>140.5</ele>
        <time>2016-05-09T12:53:32.214Z</time>
      </trkpt>
      <trkpt lat="49.5193" lon="3.50572">
        <ele>140.9</ele>
        <time>2016-05-09T12:53:36.256Z</time>
      </trkpt>
      <trkpt lat="49.5193" lon="3.50572">
        <ele>141</ele>
        <time>2016-05-09T12:53:37.247Z</time>
      </trkpt>
      <trkpt lat="49.51929" lon="3.50571">
        <ele>140.9</ele>
        <time>2016-05-09T12:53:47.246Z</time>
      </trkpt>
      <trkpt lat="49.5193" lon="3.50571">
        <ele>141</ele>
        <time>2016-05-09T12:53:48.242Z</time>
      </trkpt>
      <trkpt lat="49.51931" lon="3.50572">
        <ele>141</ele>
        <time>2016-05-09T12:53:52.333Z</time>
      </trkpt>
      <trkpt lat="49.51931" lon="3.50572">
        <ele>141</ele>
        <time>2016-05-09T12:53:53.217Z</time>
      </trkpt>
      <trkpt lat="49.51931" lon="3.50571">
        <ele>141</ele>
        <time>2016-05-09T12:54:10.299Z</time>
      </trkpt>
      <trkpt lat="49.51932" lon="3.50567">
        <ele>140.4</ele>
        <time>2016-05-09T12:54:11.288Z</time>
      </trkpt>
      <trkpt lat="49.51931" lon="3.50565">
        <ele>140.4</ele>
        <time>2016-05-09T12:54:14.241Z</time>
      </trkpt>
      <trkpt lat="49.51931" lon="3.50565">
        <ele>140.3</ele>
        <time>2016-05-09T12:54:15.229Z</time>
      </trkpt>
      <trkpt lat="49.51931" lon="3.50566">
        <ele>140.5</ele>
        <time>2016-05-09T12:54:23.241Z</time>
      </trkpt>
      <trkpt lat="49.5193" lon="3.50565">
        <ele>141</ele>
        <time>2016-05-09T12:54:24.236Z</time>
      </trkpt>
      <trkpt lat="49.51923" lon="3.50557">
        <ele>140.9</ele>
        <time>2016-05-09T12:54:36.275Z</time>
      </trkpt>
      <trkpt lat="49.51922" lon="3.50557">
        <ele>140.9</ele>
        <time>2016-05-09T12:54:37.257Z</time>
      </trkpt>
      <trkpt lat="49.51914" lon="3.50553">
        <ele>141.2</ele>
        <time>2016-05-09T12:54:47.312Z</time>
      </trkpt>
      <trkpt lat="49.51914" lon="3.50553">
        <ele>141</ele>
        <time>2016-05-09T12:54:48.216Z</time>
      </trkpt>
      <trkpt lat="49.51914" lon="3.50553">
        <ele>141</ele>
        <time>2016-05-09T12:54:48.450Z</time>
      </trkpt>
      <trkpt lat="49.51912" lon="3.50551">
        <ele>140.7</ele>
        <time>2016-05-09T12:54:49.262Z</time>
      </trkpt>
      <trkpt lat="49.51905" lon="3.50545">
        <ele>141.4</ele>
        <time>2016-05-09T12:55:00.272Z</time>
      </trkpt>
      <trkpt lat="49.51904" lon="3.50544">
        <ele>141.4</ele>
        <time>2016-05-09T12:55:01.306Z</time>
      </trkpt>
      <trkpt lat="49.51896" lon="3.50539">
        <ele>141.7</ele>
        <time>2016-05-09T12:55:10.301Z</time>
      </trkpt>
      <trkpt lat="49.51895" lon="3.50538">
        <ele>141.8</ele>
        <time>2016-05-09T12:55:11.291Z</time>
      </trkpt>
      <trkpt lat="49.51888" lon="3.50533">
        <ele>141.7</ele>
        <time>2016-05-09T12:55:17.224Z</time>
      </trkpt>
      <trkpt lat="49.51887" lon="3.50532">
        <ele>141.8</ele>
        <time>2016-05-09T12:55:18.221Z</time>
      </trkpt>
      <trkpt lat="49.51879" lon="3.50526">
        <ele>141.6</ele>
        <time>2016-05-09T12:55:28.235Z</time>
      </trkpt>
      <trkpt lat="49.51878" lon="3.50526">
        <ele>141.7</ele>
        <time>2016-05-09T12:55:29.226Z</time>
      </trkpt>
      <trkpt lat="49.51869" lon="3.50524">
        <ele>142</ele>
        <time>2016-05-09T12:55:42.312Z</time>
      </trkpt>
      <trkpt lat="49.51869" lon="3.50523">
        <ele>142.2</ele>
        <time>2016-05-09T12:55:43.308Z</time>
      </trkpt>
      <trkpt lat="49.51861" lon="3.50518">
        <ele>142.8</ele>
        <time>2016-05-09T12:55:50.317Z</time>
      </trkpt>
      <trkpt lat="49.5186" lon="3.50518">
        <ele>143.1</ele>
        <time>2016-05-09T12:55:51.209Z</time>
      </trkpt>
      <trkpt lat="49.51853" lon="3.50511">
        <ele>143.4</ele>
        <time>2016-05-09T12:56:00.234Z</time>
      </trkpt>
      <trkpt lat="49.51852" lon="3.5051">
        <ele>143.8</ele>
        <time>2016-05-09T12:56:01.288Z</time>
      </trkpt>
      <trkpt lat="49.51845" lon="3.50508">
        <ele>142.6</ele>
        <time>2016-05-09T12:56:08.275Z</time>
      </trkpt>
      <trkpt lat="49.51843" lon="3.50508">
        <ele>142.5</ele>
        <time>2016-05-09T12:56:09.265Z</time>
      </trkpt>
      <trkpt lat="49.51835" lon="3.5051">
        <ele>142.9</ele>
        <time>2016-05-09T12:56:15.245Z</time>
      </trkpt>
      <trkpt lat="49.51833" lon="3.50509">
        <ele>143</ele>
        <time>2016-05-09T12:56:16.232Z</time>
      </trkpt>
      <trkpt lat="49.51825" lon="3.50508">
        <ele>143</ele>
        <time>2016-05-09T12:56:24.325Z</time>
      </trkpt>
      <trkpt lat="49.51824" lon="3.50507">
        <ele>142.9</ele>
        <time>2016-05-09T12:56:25.300Z</time>
      </trkpt>
      <trkpt lat="49.51816" lon="3.50507">
        <ele>143.4</ele>
        <time>2016-05-09T12:56:34.243Z</time>
      </trkpt>
      <trkpt lat="49.51815" lon="3.50506">
        <ele>143.2</ele>
        <time>2016-05-09T12:56:35.239Z</time>
      </trkpt>
      <trkpt lat="49.51807" lon="3.505">
        <ele>144</ele>
        <time>2016-05-09T12:56:44.230Z</time>
      </trkpt>
      <trkpt lat="49.51806" lon="3.50499">
        <ele>144.1</ele>
        <time>2016-05-09T12:56:45.218Z</time>
      </trkpt>
      <trkpt lat="49.51799" lon="3.50491">
        <ele>143.9</ele>
        <time>2016-05-09T12:56:53.303Z</time>
      </trkpt>
      <trkpt lat="49.51799" lon="3.5049">
        <ele>143.7</ele>
        <time>2016-05-09T12:56:54.293Z</time>
      </trkpt>
      <trkpt lat="49.51792" lon="3.50484">
        <ele>143.6</ele>
        <time>2016-05-09T12:57:01.312Z</time>
      </trkpt>
      <trkpt lat="49.5179" lon="3.50483">
        <ele>143.5</ele>
        <time>2016-05-09T12:57:02.219Z</time>
      </trkpt>
      <trkpt lat="49.51782" lon="3.50478">
        <ele>143.3</ele>
        <time>2016-05-09T12:57:10.301Z</time>
      </trkpt>
      <trkpt lat="49.51781" lon="3.50477">
        <ele>143.5</ele>
        <time>2016-05-09T12:57:11.294Z</time>
      </trkpt>
      <trkpt lat="49.51776" lon="3.50472">
        <ele>144.5</ele>
        <time>2016-05-09T12:57:19.273Z</time>
      </trkpt>
      <trkpt lat="49.51776" lon="3.50472">
        <ele>144.6</ele>
        <time>2016-05-09T12:57:20.264Z</time>
      </trkpt>
      <trkpt lat="49.51775" lon="3.50472">
        <ele>144.4</ele>
        <time>2016-05-09T12:57:21.297Z</time>
      </trkpt>
      <trkpt lat="49.51775" lon="3.50472">
        <ele>144.4</ele>
        <time>2016-05-09T12:57:22.285Z</time>
      </trkpt>
      <trkpt lat="49.51768" lon="3.50478">
        <ele>144.9</ele>
        <time>2016-05-09T12:57:31.303Z</time>
      </trkpt>
      <trkpt lat="49.51767" lon="3.5048">
        <ele>144.9</ele>
        <time>2016-05-09T12:57:32.304Z</time>
      </trkpt>
      <trkpt lat="49.51761" lon="3.50485">
        <ele>145.1</ele>
        <time>2016-05-09T12:57:37.288Z</time>
      </trkpt>
      <trkpt lat="49.51758" lon="3.50487">
        <ele>145.2</ele>
        <time>2016-05-09T12:57:38.271Z</time>
      </trkpt>
      <trkpt lat="49.51756" lon="3.50499">
        <ele>144.5</ele>
        <time>2016-05-09T12:57:44.275Z</time>
      </trkpt>
      <trkpt lat="49.51756" lon="3.50501">
        <ele>144.3</ele>
        <time>2016-05-09T12:57:45.266Z</time>
      </trkpt>
      <trkpt lat="49.51755" lon="3.50513">
        <ele>143.7</ele>
        <time>2016-05-09T12:57:52.232Z</time>
      </trkpt>
      <trkpt lat="49.51755" lon="3.50515">
        <ele>143.6</ele>
        <time>2016-05-09T12:57:53.227Z</time>
      </trkpt>
      <trkpt lat="49.51753" lon="3.50527">
        <ele>143</ele>
        <time>2016-05-09T12:58:00.550Z</time>
      </trkpt>
      <trkpt lat="49.51752" lon="3.50529">
        <ele>143</ele>
        <time>2016-05-09T12:58:01.301Z</time>
      </trkpt>
      <trkpt lat="49.5175" lon="3.50541">
        <ele>143.3</ele>
        <time>2016-05-09T12:58:08.279Z</time>
      </trkpt>
      <trkpt lat="49.51749" lon="3.50543">
        <ele>143.4</ele>
        <time>2016-05-09T12:58:09.267Z</time>
      </trkpt>
      <trkpt lat="49.51747" lon="3.50555">
        <ele>142.5</ele>
        <time>2016-05-09T12:58:16.235Z</time>
      </trkpt>
      <trkpt lat="49.51747" lon="3.50556">
        <ele>142.4</ele>
        <time>2016-05-09T12:58:17.224Z</time>
      </trkpt>
      <trkpt lat="49.51744" lon="3.50569">
        <ele>141.4</ele>
        <time>2016-05-09T12:58:25.274Z</time>
      </trkpt>
      <trkpt lat="49.51744" lon="3.50571">
        <ele>141.1</ele>
        <time>2016-05-09T12:58:26.337Z</time>
      </trkpt>
      <trkpt lat="49.51739" lon="3.50581">
        <ele>140.7</ele>
        <time>2016-05-09T12:58:33.242Z</time>
      </trkpt>
      <trkpt lat="49.51738" lon="3.50583">
        <ele>140.8</ele>
        <time>2016-05-09T12:58:34.235Z</time>
      </trkpt>
      <trkpt lat="49.51732" lon="3.50592">
        <ele>140.2</ele>
        <time>2016-05-09T12:58:41.222Z</time>
      </trkpt>
      <trkpt lat="49.51731" lon="3.50593">
        <ele>140</ele>
        <time>2016-05-09T12:58:42.232Z</time>
      </trkpt>
      <trkpt lat="49.51723" lon="3.50597">
        <ele>139.6</ele>
        <time>2016-05-09T12:58:49.267Z</time>
      </trkpt>
      <trkpt lat="49.51722" lon="3.50598">
        <ele>139.6</ele>
        <time>2016-05-09T12:58:50.248Z</time>
      </trkpt>
      <trkpt lat="49.51714" lon="3.506">
        <ele>139.5</ele>
        <time>2016-05-09T12:58:57.240Z</time>
      </trkpt>
      <trkpt lat="49.51713" lon="3.506">
        <ele>139.6</ele>
        <time>2016-05-09T12:58:58.226Z</time>
      </trkpt>
      <trkpt lat="49.51705" lon="3.50603">
        <ele>139.7</ele>
        <time>2016-05-09T12:59:05.225Z</time>
      </trkpt>
      <trkpt lat="49.51703" lon="3.50604">
        <ele>139.9</ele>
        <time>2016-05-09T12:59:06.217Z</time>
      </trkpt>
      <trkpt lat="49.51697" lon="3.50613">
        <ele>140.4</ele>
        <time>2016-05-09T12:59:14.227Z</time>
      </trkpt>
      <trkpt lat="49.51697" lon="3.50615">
        <ele>140.3</ele>
        <time>2016-05-09T12:59:15.223Z</time>
      </trkpt>
      <trkpt lat="49.51692" lon="3.50626">
        <ele>140</ele>
        <time>2016-05-09T12:59:23.315Z</time>
      </trkpt>
      <trkpt lat="49.51691" lon="3.50627">
        <ele>139.9</ele>
        <time>2016-05-09T12:59:24.300Z</time>
      </trkpt>
      <trkpt lat="49.51687" lon="3.50638">
        <ele>139.9</ele>
        <time>2016-05-09T12:59:31.294Z</time>
      </trkpt>
      <trkpt lat="49.51686" lon="3.5064">
        <ele>139.8</ele>
        <time>2016-05-09T12:59:32.292Z</time>
      </trkpt>
      <trkpt lat="49.51682" lon="3.50652">
        <ele>139.8</ele>
        <time>2016-05-09T12:59:40.321Z</time>
      </trkpt>
      <trkpt lat="49.51681" lon="3.50653">
        <ele>139.8</ele>
        <time>2016-05-09T12:59:41.202Z</time>
      </trkpt>
      <trkpt lat="49.51677" lon="3.50664">
        <ele>139.8</ele>
        <time>2016-05-09T12:59:48.275Z</time>
      </trkpt>
      <trkpt lat="49.51676" lon="3.50666">
        <ele>139.8</ele>
        <time>2016-05-09T12:59:49.261Z</time>
      </trkpt>
      <trkpt lat="49.51672" lon="3.50678">
        <ele>139.5</ele>
        <time>2016-05-09T12:59:56.473Z</time>
      </trkpt>
      <trkpt lat="49.51672" lon="3.50679">
        <ele>139.5</ele>
        <time>2016-05-09T12:59:57.215Z</time>
      </trkpt>
      <trkpt lat="49.51667" lon="3.50691">
        <ele>138.6</ele>
        <time>2016-05-09T13:00:05.669Z</time>
      </trkpt>
      <trkpt lat="49.51666" lon="3.50692">
        <ele>138.6</ele>
        <time>2016-05-09T13:00:06.257Z</time>
      </trkpt>
      <trkpt lat="49.51662" lon="3.50702">
        <ele>137.3</ele>
        <time>2016-05-09T13:00:13.264Z</time>
      </trkpt>
      <trkpt lat="49.51661" lon="3.50704">
        <ele>137.4</ele>
        <time>2016-05-09T13:00:14.261Z</time>
      </trkpt>
      <trkpt lat="49.51659" lon="3.50716">
        <ele>137.5</ele>
        <time>2016-05-09T13:00:20.282Z</time>
      </trkpt>
      <trkpt lat="49.51659" lon="3.50718">
        <ele>137.5</ele>
        <time>2016-05-09T13:00:21.268Z</time>
      </trkpt>
      <trkpt lat="49.51655" lon="3.50729">
        <ele>137.4</ele>
        <time>2016-05-09T13:00:28.249Z</time>
      </trkpt>
      <trkpt lat="49.51654" lon="3.5073">
        <ele>137.2</ele>
        <time>2016-05-09T13:00:29.241Z</time>
      </trkpt>
      <trkpt lat="49.51651" lon="3.50742">
        <ele>136.9</ele>
        <time>2016-05-09T13:00:36.244Z</time>
      </trkpt>
      <trkpt lat="49.5165" lon="3.50743">
        <ele>136.9</ele>
        <time>2016-05-09T13:00:37.246Z</time>
      </trkpt>
      <trkpt lat="49.51645" lon="3.50753">
        <ele>136.7</ele>
        <time>2016-05-09T13:00:44.220Z</time>
      </trkpt>
      <trkpt lat="49.51643" lon="3.50755">
        <ele>136.9</ele>
        <time>2016-05-09T13:00:45.210Z</time>
      </trkpt>
      <trkpt lat="49.51639" lon="3.50766">
        <ele>137</ele>
        <time>2016-05-09T13:00:53.389Z</time>
      </trkpt>
      <trkpt lat="49.51639" lon="3.50768">
        <ele>137.1</ele>
        <time>2016-05-09T13:00:54.209Z</time>
      </trkpt>
      <trkpt lat="49.51635" lon="3.50779">
        <ele>137.3</ele>
        <time>2016-05-09T13:01:02.245Z</time>
      </trkpt>
      <trkpt lat="49.51634" lon="3.50781">
        <ele>137.4</ele>
        <time>2016-05-09T13:01:03.261Z</time>
      </trkpt>
      <trkpt lat="49.5163" lon="3.50792">
        <ele>137.7</ele>
        <time>2016-05-09T13:01:11.319Z</time>
      </trkpt>
      <trkpt lat="49.51629" lon="3.50794">
        <ele>137.8</ele>
        <time>2016-05-09T13:01:12.300Z</time>
      </trkpt>
      <trkpt lat="49.51624" lon="3.50804">
        <ele>137.9</ele>
        <time>2016-05-09T13:01:19.284Z</time>
      </trkpt>
      <trkpt lat="49.51623" lon="3.50806">
        <ele>138.1</ele>
        <time>2016-05-09T13:01:20.288Z</time>
      </trkpt>
      <trkpt lat="49.51618" lon="3.50816">
        <ele>138.1</ele>
        <time>2016-05-09T13:01:28.297Z</time>
      </trkpt>
      <trkpt lat="49.51617" lon="3.50817">
        <ele>138</ele>
        <time>2016-05-09T13:01:29.280Z</time>
      </trkpt>
      <trkpt lat="49.5161" lon="3.50826">
        <ele>137.4</ele>
        <time>2016-05-09T13:01:36.264Z</time>
      </trkpt>
      <trkpt lat="49.51609" lon="3.50827">
        <ele>137.4</ele>
        <time>2016-05-09T13:01:37.254Z</time>
      </trkpt>
      <trkpt lat="49.51602" lon="3.50834">
        <ele>137.2</ele>
        <time>2016-05-09T13:01:44.224Z</time>
      </trkpt>
      <trkpt lat="49.51601" lon="3.50835">
        <ele>137.2</ele>
        <time>2016-05-09T13:01:45.212Z</time>
      </trkpt>
      <trkpt lat="49.51595" lon="3.50845">
        <ele>138.1</ele>
        <time>2016-05-09T13:01:53.313Z</time>
      </trkpt>
      <trkpt lat="49.51595" lon="3.50846">
        <ele>138</ele>
        <time>2016-05-09T13:01:54.208Z</time>
      </trkpt>
      <trkpt lat="49.51588" lon="3.50856">
        <ele>137</ele>
        <time>2016-05-09T13:02:01.326Z</time>
      </trkpt>
      <trkpt lat="49.51588" lon="3.50857">
        <ele>137</ele>
        <time>2016-05-09T13:02:02.304Z</time>
      </trkpt>
      <trkpt lat="49.51586" lon="3.5087">
        <ele>137.5</ele>
        <time>2016-05-09T13:02:10.299Z</time>
      </trkpt>
      <trkpt lat="49.51586" lon="3.5087">
        <ele>137.7</ele>
        <time>2016-05-09T13:02:11.291Z</time>
      </trkpt>
      <trkpt lat="49.51586" lon="3.5087">
        <ele>137.7</ele>
        <time>2016-05-09T13:02:11.309Z</time>
      </trkpt>
      <trkpt lat="49.51586" lon="3.50871">
        <ele>137.9</ele>
        <time>2016-05-09T13:02:12.299Z</time>
      </trkpt>
      <trkpt lat="49.51586" lon="3.50871">
        <ele>137.9</ele>
        <time>2016-05-09T13:02:12.315Z</time>
      </trkpt>
      <trkpt lat="49.51585" lon="3.50871">
        <ele>137.8</ele>
        <time>2016-05-09T13:02:13.316Z</time>
      </trkpt>
      <trkpt lat="49.51583" lon="3.50884">
        <ele>137.1</ele>
        <time>2016-05-09T13:02:22.296Z</time>
      </trkpt>
      <trkpt lat="49.51583" lon="3.50886">
        <ele>137.1</ele>
        <time>2016-05-09T13:02:23.285Z</time>
      </trkpt>
      <trkpt lat="49.51579" lon="3.50897">
        <ele>137.7</ele>
        <time>2016-05-09T13:02:31.328Z</time>
      </trkpt>
      <trkpt lat="49.51579" lon="3.50898">
        <ele>137.6</ele>
        <time>2016-05-09T13:02:32.203Z</time>
      </trkpt>
      <trkpt lat="49.51576" lon="3.5091">
        <ele>137.6</ele>
        <time>2016-05-09T13:02:40.301Z</time>
      </trkpt>
      <trkpt lat="49.51575" lon="3.50911">
        <ele>137.7</ele>
        <time>2016-05-09T13:02:41.201Z</time>
      </trkpt>
      <trkpt lat="49.51572" lon="3.50923">
        <ele>138.4</ele>
        <time>2016-05-09T13:02:49.265Z</time>
      </trkpt>
      <trkpt lat="49.51571" lon="3.50924">
        <ele>138.7</ele>
        <time>2016-05-09T13:02:50.254Z</time>
      </trkpt>
      <trkpt lat="49.51567" lon="3.50936">
        <ele>138.7</ele>
        <time>2016-05-09T13:03:07.259Z</time>
      </trkpt>
      <trkpt lat="49.51567" lon="3.50937">
        <ele>138.7</ele>
        <time>2016-05-09T13:03:08.252Z</time>
      </trkpt>
      <trkpt lat="49.51563" lon="3.50949">
        <ele>139.8</ele>
        <time>2016-05-09T13:03:19.273Z</time>
      </trkpt>
      <trkpt lat="49.51562" lon="3.50949">
        <ele>140</ele>
        <time>2016-05-09T13:03:20.424Z</time>
      </trkpt>
      <trkpt lat="49.51554" lon="3.50951">
        <ele>139.7</ele>
        <time>2016-05-09T13:03:27.231Z</time>
      </trkpt>
      <trkpt lat="49.51553" lon="3.5095">
        <ele>139.8</ele>
        <time>2016-05-09T13:03:28.220Z</time>
      </trkpt>
      <trkpt lat="49.51546" lon="3.50949">
        <ele>139.9</ele>
        <time>2016-05-09T13:03:34.310Z</time>
      </trkpt>
      <trkpt lat="49.51544" lon="3.50948">
        <ele>139.9</ele>
        <time>2016-05-09T13:03:35.207Z</time>
      </trkpt>
      <trkpt lat="49.51536" lon="3.50946">
        <ele>139.5</ele>
        <time>2016-05-09T13:03:43.338Z</time>
      </trkpt>
      <trkpt lat="49.51535" lon="3.50945">
        <ele>139.5</ele>
        <time>2016-05-09T13:03:44.209Z</time>
      </trkpt>
      <trkpt lat="49.51527" lon="3.5094">
        <ele>139.5</ele>
        <time>2016-05-09T13:03:51.294Z</time>
      </trkpt>
      <trkpt lat="49.51526" lon="3.50939">
        <ele>139.6</ele>
        <time>2016-05-09T13:03:52.287Z</time>
      </trkpt>
      <trkpt lat="49.51519" lon="3.50935">
        <ele>139.5</ele>
        <time>2016-05-09T13:03:59.245Z</time>
      </trkpt>
      <trkpt lat="49.51517" lon="3.50934">
        <ele>139.5</ele>
        <time>2016-05-09T13:04:00.248Z</time>
      </trkpt>
      <trkpt lat="49.51509" lon="3.50928">
        <ele>139.4</ele>
        <time>2016-05-09T13:04:08.265Z</time>
      </trkpt>
      <trkpt lat="49.51508" lon="3.50927">
        <ele>139.4</ele>
        <time>2016-05-09T13:04:09.257Z</time>
      </trkpt>
      <trkpt lat="49.515" lon="3.50923">
        <ele>139.4</ele>
        <time>2016-05-09T13:04:17.247Z</time>
      </trkpt>
      <trkpt lat="49.51499" lon="3.50922">
        <ele>139.4</ele>
        <time>2016-05-09T13:04:18.245Z</time>
      </trkpt>
      <trkpt lat="49.51491" lon="3.50918">
        <ele>140.1</ele>
        <time>2016-05-09T13:04:26.227Z</time>
      </trkpt>
      <trkpt lat="49.5149" lon="3.50918">
        <ele>140.1</ele>
        <time>2016-05-09T13:04:27.217Z</time>
      </trkpt>
      <trkpt lat="49.51481" lon="3.50917">
        <ele>140.7</ele>
        <time>2016-05-09T13:04:34.247Z</time>
      </trkpt>
      <trkpt lat="49.5148" lon="3.50918">
        <ele>140.9</ele>
        <time>2016-05-09T13:04:35.216Z</time>
      </trkpt>
      <trkpt lat="49.51473" lon="3.50924">
        <ele>141.3</ele>
        <time>2016-05-09T13:04:42.320Z</time>
      </trkpt>
      <trkpt lat="49.51472" lon="3.50925">
        <ele>141.4</ele>
        <time>2016-05-09T13:04:43.312Z</time>
      </trkpt>
      <trkpt lat="49.51464" lon="3.5093">
        <ele>141.6</ele>
        <time>2016-05-09T13:04:51.285Z</time>
      </trkpt>
      <trkpt lat="49.51463" lon="3.5093">
        <ele>141.7</ele>
        <time>2016-05-09T13:04:52.286Z</time>
      </trkpt>
      <trkpt lat="49.51454" lon="3.50933">
        <ele>140.9</ele>
        <time>2016-05-09T13:04:59.259Z</time>
      </trkpt>
      <trkpt lat="49.51453" lon="3.50933">
        <ele>140.9</ele>
        <time>2016-05-09T13:05:00.250Z</time>
      </trkpt>
      <trkpt lat="49.51445" lon="3.50936">
        <ele>140.1</ele>
        <time>2016-05-09T13:05:07.280Z</time>
      </trkpt>
      <trkpt lat="49.51444" lon="3.50936">
        <ele>140.2</ele>
        <time>2016-05-09T13:05:08.261Z</time>
      </trkpt>
      <trkpt lat="49.51435" lon="3.50938">
        <ele>140.2</ele>
        <time>2016-05-09T13:05:15.228Z</time>
      </trkpt>
      <trkpt lat="49.51434" lon="3.50939">
        <ele>140.2</ele>
        <time>2016-05-09T13:05:16.232Z</time>
      </trkpt>
      <trkpt lat="49.51425" lon="3.50941">
        <ele>140.1</ele>
        <time>2016-05-09T13:05:23.317Z</time>
      </trkpt>
      <trkpt lat="49.51424" lon="3.50941">
        <ele>140</ele>
        <time>2016-05-09T13:05:24.318Z</time>
      </trkpt>
      <trkpt lat="49.51416" lon="3.50945">
        <ele>139.5</ele>
        <time>2016-05-09T13:05:31.318Z</time>
      </trkpt>
      <trkpt lat="49.51415" lon="3.50945">
        <ele>139.4</ele>
        <time>2016-05-09T13:05:32.216Z</time>
      </trkpt>
      <trkpt lat="49.51407" lon="3.5095">
        <ele>138.7</ele>
        <time>2016-05-09T13:05:39.386Z</time>
      </trkpt>
      <trkpt lat="49.51405" lon="3.5095">
        <ele>138.7</ele>
        <time>2016-05-09T13:05:40.283Z</time>
      </trkpt>
      <trkpt lat="49.51397" lon="3.50955">
        <ele>138.8</ele>
        <time>2016-05-09T13:05:47.296Z</time>
      </trkpt>
      <trkpt lat="49.51396" lon="3.50956">
        <ele>138.8</ele>
        <time>2016-05-09T13:05:48.208Z</time>
      </trkpt>
      <trkpt lat="49.5139" lon="3.50961">
        <ele>139.1</ele>
        <time>2016-05-09T13:05:54.259Z</time>
      </trkpt>
      <trkpt lat="49.51388" lon="3.50962">
        <ele>139.1</ele>
        <time>2016-05-09T13:05:55.255Z</time>
      </trkpt>
      <trkpt lat="49.51381" lon="3.50969">
        <ele>138.7</ele>
        <time>2016-05-09T13:06:03.213Z</time>
      </trkpt>
      <trkpt lat="49.5138" lon="3.5097">
        <ele>138.6</ele>
        <time>2016-05-09T13:06:04.202Z</time>
      </trkpt>
      <trkpt lat="49.51373" lon="3.50977">
        <ele>138.6</ele>
        <time>2016-05-09T13:06:11.305Z</time>
      </trkpt>
      <trkpt lat="49.51372" lon="3.50978">
        <ele>138.9</ele>
        <time>2016-05-09T13:06:12.301Z</time>
      </trkpt>
      <trkpt lat="49.51365" lon="3.50983">
        <ele>139.4</ele>
        <time>2016-05-09T13:06:18.246Z</time>
      </trkpt>
      <trkpt lat="49.51364" lon="3.50984">
        <ele>139.7</ele>
        <time>2016-05-09T13:06:19.247Z</time>
      </trkpt>
      <trkpt lat="49.51357" lon="3.5099">
        <ele>139.6</ele>
        <time>2016-05-09T13:06:26.227Z</time>
      </trkpt>
      <trkpt lat="49.51356" lon="3.50992">
        <ele>139.4</ele>
        <time>2016-05-09T13:06:27.210Z</time>
      </trkpt>
      <trkpt lat="49.51349" lon="3.50999">
        <ele>139.5</ele>
        <time>2016-05-09T13:06:35.215Z</time>
      </trkpt>
      <trkpt lat="49.51348" lon="3.51">
        <ele>139.5</ele>
        <time>2016-05-09T13:06:36.203Z</time>
      </trkpt>
      <trkpt lat="49.5134" lon="3.51004">
        <ele>140.1</ele>
        <time>2016-05-09T13:06:44.294Z</time>
      </trkpt>
      <trkpt lat="49.51339" lon="3.51004">
        <ele>140.1</ele>
        <time>2016-05-09T13:06:45.285Z</time>
      </trkpt>
      <trkpt lat="49.5133" lon="3.51002">
        <ele>140.5</ele>
        <time>2016-05-09T13:06:51.273Z</time>
      </trkpt>
      <trkpt lat="49.51328" lon="3.51001">
        <ele>141.3</ele>
        <time>2016-05-09T13:06:52.268Z</time>
      </trkpt>
      <trkpt lat="49.5132" lon="3.50994">
        <ele>141.5</ele>
        <time>2016-05-09T13:07:00.252Z</time>
      </trkpt>
      <trkpt lat="49.51319" lon="3.50993">
        <ele>141.4</ele>
        <time>2016-05-09T13:07:01.286Z</time>
      </trkpt>
      <trkpt lat="49.51316" lon="3.5098">
        <ele>141.3</ele>
        <time>2016-05-09T13:07:08.254Z</time>
      </trkpt>
      <trkpt lat="49.51315" lon="3.50978">
        <ele>141.4</ele>
        <time>2016-05-09T13:07:09.244Z</time>
      </trkpt>
      <trkpt lat="49.51309" lon="3.50968">
        <ele>140.5</ele>
        <time>2016-05-09T13:07:15.205Z</time>
      </trkpt>
      <trkpt lat="49.51307" lon="3.50967">
        <ele>139.8</ele>
        <time>2016-05-09T13:07:16.194Z</time>
      </trkpt>
      <trkpt lat="49.51299" lon="3.50962">
        <ele>138.7</ele>
        <time>2016-05-09T13:07:23.281Z</time>
      </trkpt>
      <trkpt lat="49.51298" lon="3.50961">
        <ele>138.6</ele>
        <time>2016-05-09T13:07:24.273Z</time>
      </trkpt>
      <trkpt lat="49.5129" lon="3.5096">
        <ele>138.3</ele>
        <time>2016-05-09T13:07:31.262Z</time>
      </trkpt>
      <trkpt lat="49.51289" lon="3.5096">
        <ele>138.4</ele>
        <time>2016-05-09T13:07:32.257Z</time>
      </trkpt>
      <trkpt lat="49.5128" lon="3.50962">
        <ele>138.7</ele>
        <time>2016-05-09T13:07:40.274Z</time>
      </trkpt>
      <trkpt lat="49.51279" lon="3.50962">
        <ele>138.8</ele>
        <time>2016-05-09T13:07:41.258Z</time>
      </trkpt>
      <trkpt lat="49.51277" lon="3.50961">
        <ele>138.8</ele>
        <time>2016-05-09T13:07:44.399Z</time>
      </trkpt>
      <trkpt lat="49.51277" lon="3.50961">
        <ele>138.8</ele>
        <time>2016-05-09T13:07:45.295Z</time>
      </trkpt>
      <trkpt lat="49.51277" lon="3.50961">
        <ele>138.8</ele>
        <time>2016-05-09T13:07:46.217Z</time>
      </trkpt>
      <trkpt lat="49.51276" lon="3.50961">
        <ele>138.9</ele>
        <time>2016-05-09T13:07:47.207Z</time>
      </trkpt>
      <trkpt lat="49.51274" lon="3.50962">
        <ele>138.8</ele>
        <time>2016-05-09T13:07:51.271Z</time>
      </trkpt>
      <trkpt lat="49.51274" lon="3.50962">
        <ele>138.8</ele>
        <time>2016-05-09T13:07:52.261Z</time>
      </trkpt>
      <trkpt lat="49.51273" lon="3.50962">
        <ele>138.9</ele>
        <time>2016-05-09T13:08:17.225Z</time>
      </trkpt>
      <trkpt lat="49.51275" lon="3.50968">
        <ele>138.9</ele>
        <time>2016-05-09T13:08:18.221Z</time>
      </trkpt>
      <trkpt lat="49.51275" lon="3.50968">
        <ele>138.9</ele>
        <time>2016-05-09T13:08:19.278Z</time>
      </trkpt>
      <trkpt lat="49.51275" lon="3.50968">
        <ele>138.9</ele>
        <time>2016-05-09T13:08:20.267Z</time>
      </trkpt>
      <trkpt lat="49.51275" lon="3.50968">
        <ele>138.9</ele>
        <time>2016-05-09T13:08:20.281Z</time>
      </trkpt>
      <trkpt lat="49.51275" lon="3.50968">
        <ele>138.9</ele>
        <time>2016-05-09T13:08:21.278Z</time>
      </trkpt>
      <trkpt lat="49.51275" lon="3.50968">
        <ele>138.9</ele>
        <time>2016-05-09T13:08:21.301Z</time>
      </trkpt>
      <trkpt lat="49.51275" lon="3.50968">
        <ele>138.9</ele>
        <time>2016-05-09T13:08:22.290Z</time>
      </trkpt>
      <trkpt lat="49.51275" lon="3.50968">
        <ele>138.9</ele>
        <time>2016-05-09T13:08:22.313Z</time>
      </trkpt>
      <trkpt lat="49.51276" lon="3.50969">
        <ele>139</ele>
        <time>2016-05-09T13:08:23.217Z</time>
      </trkpt>
      <trkpt lat="49.51276" lon="3.50971">
        <ele>139</ele>
        <time>2016-05-09T13:08:26.226Z</time>
      </trkpt>
      <trkpt lat="49.51275" lon="3.50971">
        <ele>139</ele>
        <time>2016-05-09T13:08:27.220Z</time>
      </trkpt>
      <trkpt lat="49.51275" lon="3.50971">
        <ele>138.9</ele>
        <time>2016-05-09T13:08:40.304Z</time>
      </trkpt>
      <trkpt lat="49.51275" lon="3.50972">
        <ele>139</ele>
        <time>2016-05-09T13:08:41.298Z</time>
      </trkpt>
      <trkpt lat="49.51272" lon="3.50985">
        <ele>138.8</ele>
        <time>2016-05-09T13:08:50.295Z</time>
      </trkpt>
      <trkpt lat="49.51272" lon="3.50987">
        <ele>138.8</ele>
        <time>2016-05-09T13:08:51.286Z</time>
      </trkpt>
      <trkpt lat="49.51275" lon="3.50999">
        <ele>138.9</ele>
        <time>2016-05-09T13:08:59.224Z</time>
      </trkpt>
      <trkpt lat="49.51275" lon="3.51001">
        <ele>139</ele>
        <time>2016-05-09T13:09:00.219Z</time>
      </trkpt>
      <trkpt lat="49.51277" lon="3.51014">
        <ele>139.3</ele>
        <time>2016-05-09T13:09:07.485Z</time>
      </trkpt>
      <trkpt lat="49.51277" lon="3.51015">
        <ele>139.5</ele>
        <time>2016-05-09T13:09:08.260Z</time>
      </trkpt>
      <trkpt lat="49.51278" lon="3.51029">
        <ele>139.1</ele>
        <time>2016-05-09T13:09:17.274Z</time>
      </trkpt>
      <trkpt lat="49.51278" lon="3.51031">
        <ele>139.1</ele>
        <time>2016-05-09T13:09:18.266Z</time>
      </trkpt>
      <trkpt lat="49.51281" lon="3.51043">
        <ele>138.7</ele>
        <time>2016-05-09T13:09:25.271Z</time>
      </trkpt>
      <trkpt lat="49.51282" lon="3.51045">
        <ele>138.6</ele>
        <time>2016-05-09T13:09:26.263Z</time>
      </trkpt>
      <trkpt lat="49.51283" lon="3.51058">
        <ele>139.1</ele>
        <time>2016-05-09T13:09:35.259Z</time>
      </trkpt>
      <trkpt lat="49.51283" lon="3.51059">
        <ele>139.3</ele>
        <time>2016-05-09T13:09:36.248Z</time>
      </trkpt>
      <trkpt lat="49.51287" lon="3.51071">
        <ele>139.8</ele>
        <time>2016-05-09T13:09:42.256Z</time>
      </trkpt>
      <trkpt lat="49.51288" lon="3.51074">
        <ele>139.7</ele>
        <time>2016-05-09T13:09:43.247Z</time>
      </trkpt>
      <trkpt lat="49.51293" lon="3.51083">
        <ele>139.6</ele>
        <time>2016-05-09T13:09:49.327Z</time>
      </trkpt>
      <trkpt lat="49.51293" lon="3.51085">
        <ele>139.5</ele>
        <time>2016-05-09T13:09:50.206Z</time>
      </trkpt>
      <trkpt lat="49.51295" lon="3.51095">
        <ele>138.6</ele>
        <time>2016-05-09T13:09:56.277Z</time>
      </trkpt>
      <trkpt lat="49.51296" lon="3.51095">
        <ele>138.8</ele>
        <time>2016-05-09T13:09:57.268Z</time>
      </trkpt>
      <trkpt lat="49.51296" lon="3.51096">
        <ele>139.1</ele>
        <time>2016-05-09T13:10:03.227Z</time>
      </trkpt>
      <trkpt lat="49.51296" lon="3.51099">
        <ele>139.2</ele>
        <time>2016-05-09T13:10:04.221Z</time>
      </trkpt>
      <trkpt lat="49.51297" lon="3.51102">
        <ele>139.3</ele>
        <time>2016-05-09T13:10:08.277Z</time>
      </trkpt>
      <trkpt lat="49.51297" lon="3.51102">
        <ele>139.3</ele>
        <time>2016-05-09T13:10:09.262Z</time>
      </trkpt>
      <trkpt lat="49.51296" lon="3.51102">
        <ele>139.2</ele>
        <time>2016-05-09T13:10:12.312Z</time>
      </trkpt>
      <trkpt lat="49.51297" lon="3.51104">
        <ele>139.9</ele>
        <time>2016-05-09T13:10:13.308Z</time>
      </trkpt>
      <trkpt lat="49.513" lon="3.51111">
        <ele>143.4</ele>
        <time>2016-05-09T13:10:31.291Z</time>
      </trkpt>
      <trkpt lat="49.51301" lon="3.51112">
        <ele>143.4</ele>
        <time>2016-05-09T13:10:32.203Z</time>
      </trkpt>
      <trkpt lat="49.51301" lon="3.51112">
        <ele>143.5</ele>
        <time>2016-05-09T13:11:10.298Z</time>
      </trkpt>
      <trkpt lat="49.51302" lon="3.51111">
        <ele>142.7</ele>
        <time>2016-05-09T13:11:11.280Z</time>
      </trkpt>
      <trkpt lat="49.51301" lon="3.5111">
        <ele>142.8</ele>
        <time>2016-05-09T13:11:13.313Z</time>
      </trkpt>
      <trkpt lat="49.51301" lon="3.5111">
        <ele>142.7</ele>
        <time>2016-05-09T13:11:14.208Z</time>
      </trkpt>
      <trkpt lat="49.51301" lon="3.5111">
        <ele>142.5</ele>
        <time>2016-05-09T13:11:18.270Z</time>
      </trkpt>
      <trkpt lat="49.51302" lon="3.51111">
        <ele>142.5</ele>
        <time>2016-05-09T13:11:19.256Z</time>
      </trkpt>
      <trkpt lat="49.51302" lon="3.51111">
        <ele>142.5</ele>
        <time>2016-05-09T13:11:19.272Z</time>
      </trkpt>
      <trkpt lat="49.51302" lon="3.51111">
        <ele>142.6</ele>
        <time>2016-05-09T13:11:20.264Z</time>
      </trkpt>
      <trkpt lat="49.51302" lon="3.5111">
        <ele>142.5</ele>
        <time>2016-05-09T13:11:42.326Z</time>
      </trkpt>
      <trkpt lat="49.51301" lon="3.51108">
        <ele>144.4</ele>
        <time>2016-05-09T13:11:43.316Z</time>
      </trkpt>
      <trkpt lat="49.51301" lon="3.51108">
        <ele>144.4</ele>
        <time>2016-05-09T13:11:43.335Z</time>
      </trkpt>
      <trkpt lat="49.513" lon="3.51108">
        <ele>144.6</ele>
        <time>2016-05-09T13:11:44.209Z</time>
      </trkpt>
      <trkpt lat="49.51301" lon="3.51109">
        <ele>144.4</ele>
        <time>2016-05-09T13:11:58.238Z</time>
      </trkpt>
      <trkpt lat="49.51303" lon="3.5111">
        <ele>145.5</ele>
        <time>2016-05-09T13:11:59.234Z</time>
      </trkpt>
      <trkpt lat="49.51309" lon="3.51119">
        <ele>145.1</ele>
        <time>2016-05-09T13:12:07.258Z</time>
      </trkpt>
      <trkpt lat="49.5131" lon="3.5112">
        <ele>145.6</ele>
        <time>2016-05-09T13:12:08.246Z</time>
      </trkpt>
      <trkpt lat="49.51316" lon="3.51129">
        <ele>146</ele>
        <time>2016-05-09T13:12:15.230Z</time>
      </trkpt>
      <trkpt lat="49.51317" lon="3.5113">
        <ele>145.9</ele>
        <time>2016-05-09T13:12:16.226Z</time>
      </trkpt>
      <trkpt lat="49.51322" lon="3.51141">
        <ele>146.4</ele>
        <time>2016-05-09T13:12:25.335Z</time>
      </trkpt>
      <trkpt lat="49.51322" lon="3.51141">
        <ele>146.5</ele>
        <time>2016-05-09T13:12:26.208Z</time>
      </trkpt>
      <trkpt lat="49.51322" lon="3.5114">
        <ele>146.8</ele>
        <time>2016-05-09T13:12:32.289Z</time>
      </trkpt>
      <trkpt lat="49.51323" lon="3.51142">
        <ele>147.7</ele>
        <time>2016-05-09T13:12:33.279Z</time>
      </trkpt>
      <trkpt lat="49.51323" lon="3.51143">
        <ele>147.8</ele>
        <time>2016-05-09T13:12:34.303Z</time>
      </trkpt>
      <trkpt lat="49.51323" lon="3.51143">
        <ele>148.1</ele>
        <time>2016-05-09T13:12:35.294Z</time>
      </trkpt>
      <trkpt lat="49.51323" lon="3.51143">
        <ele>148.3</ele>
        <time>2016-05-09T13:13:09.296Z</time>
      </trkpt>
      <trkpt lat="49.51321" lon="3.5114">
        <ele>150.5</ele>
        <time>2016-05-09T13:13:10.293Z</time>
      </trkpt>
      <trkpt lat="49.51314" lon="3.51131">
        <ele>150.3</ele>
        <time>2016-05-09T13:13:19.274Z</time>
      </trkpt>
      <trkpt lat="49.51314" lon="3.5113">
        <ele>150.1</ele>
        <time>2016-05-09T13:13:20.270Z</time>
      </trkpt>
      <trkpt lat="49.51306" lon="3.51122">
        <ele>149.6</ele>
        <time>2016-05-09T13:13:27.229Z</time>
      </trkpt>
      <trkpt lat="49.51305" lon="3.51121">
        <ele>149.8</ele>
        <time>2016-05-09T13:13:28.229Z</time>
      </trkpt>
      <trkpt lat="49.51302" lon="3.51115">
        <ele>149.9</ele>
        <time>2016-05-09T13:13:34.244Z</time>
      </trkpt>
      <trkpt lat="49.51302" lon="3.51115">
        <ele>150</ele>
        <time>2016-05-09T13:13:35.240Z</time>
      </trkpt>
      <trkpt lat="49.51302" lon="3.51115">
        <ele>150</ele>
        <time>2016-05-09T13:14:31.313Z</time>
      </trkpt>
      <trkpt lat="49.51305" lon="3.51109">
        <ele>148.3</ele>
        <time>2016-05-09T13:14:32.215Z</time>
      </trkpt>
      <trkpt lat="49.51304" lon="3.51109">
        <ele>148.3</ele>
        <time>2016-05-09T13:14:33.254Z</time>
      </trkpt>
      <trkpt lat="49.51304" lon="3.51109">
        <ele>148.1</ele>
        <time>2016-05-09T13:14:34.226Z</time>
      </trkpt>
      <trkpt lat="49.51304" lon="3.51109">
        <ele>148.1</ele>
        <time>2016-05-09T13:14:34.245Z</time>
      </trkpt>
      <trkpt lat="49.51304" lon="3.51108">
        <ele>148</ele>
        <time>2016-05-09T13:14:35.246Z</time>
      </trkpt>
      <trkpt lat="49.51304" lon="3.51108">
        <ele>148</ele>
        <time>2016-05-09T13:14:36.288Z</time>
      </trkpt>
      <trkpt lat="49.51304" lon="3.51108">
        <ele>148</ele>
        <time>2016-05-09T13:14:37.265Z</time>
      </trkpt>
      <trkpt lat="49.51304" lon="3.51108">
        <ele>148</ele>
        <time>2016-05-09T13:14:41.215Z</time>
      </trkpt>
      <trkpt lat="49.51304" lon="3.51108">
        <ele>147.9</ele>
        <time>2016-05-09T13:14:42.231Z</time>
      </trkpt>
      <trkpt lat="49.51302" lon="3.51108">
        <ele>147.4</ele>
        <time>2016-05-09T13:14:45.288Z</time>
      </trkpt>
      <trkpt lat="49.51302" lon="3.51108">
        <ele>147.4</ele>
        <time>2016-05-09T13:14:46.271Z</time>
      </trkpt>
      <trkpt lat="49.51302" lon="3.51108">
        <ele>147.4</ele>
        <time>2016-05-09T13:14:46.386Z</time>
      </trkpt>
      <trkpt lat="49.51302" lon="3.51108">
        <ele>147.6</ele>
        <time>2016-05-09T13:14:47.280Z</time>
      </trkpt>
      <trkpt lat="49.51306" lon="3.51109">
        <ele>146.6</ele>
        <time>2016-05-09T13:15:16.243Z</time>
      </trkpt>
      <trkpt lat="49.51306" lon="3.51109">
        <ele>146.7</ele>
        <time>2016-05-09T13:15:17.229Z</time>
      </trkpt>
      <trkpt lat="49.51307" lon="3.51109">
        <ele>146.8</ele>
        <time>2016-05-09T13:15:29.310Z</time>
      </trkpt>
      <trkpt lat="49.51307" lon="3.51107">
        <ele>147.7</ele>
        <time>2016-05-09T13:15:30.296Z</time>
      </trkpt>
      <trkpt lat="49.51309" lon="3.51106">
        <ele>147.7</ele>
        <time>2016-05-09T13:15:37.274Z</time>
      </trkpt>
      <trkpt lat="49.51309" lon="3.51106">
        <ele>147.9</ele>
        <time>2016-05-09T13:15:38.273Z</time>
      </trkpt>
      <trkpt lat="49.51308" lon="3.51106">
        <ele>148</ele>
        <time>2016-05-09T13:16:20.507Z</time>
      </trkpt>
      <trkpt lat="49.51307" lon="3.51107">
        <ele>147.8</ele>
        <time>2016-05-09T13:16:21.288Z</time>
      </trkpt>
      <trkpt lat="49.51307" lon="3.51107">
        <ele>147.7</ele>
        <time>2016-05-09T13:16:22.323Z</time>
      </trkpt>
      <trkpt lat="49.51307" lon="3.51106">
        <ele>147.5</ele>
        <time>2016-05-09T13:16:23.310Z</time>
      </trkpt>
      <trkpt lat="49.51307" lon="3.51107">
        <ele>147.5</ele>
        <time>2016-05-09T13:17:04.232Z</time>
      </trkpt>
      <trkpt lat="49.51298" lon="3.51108">
        <ele>147.6</ele>
        <time>2016-05-09T13:17:05.215Z</time>
      </trkpt>
      <trkpt lat="49.51292" lon="3.51117">
        <ele>147.7</ele>
        <time>2016-05-09T13:17:19.275Z</time>
      </trkpt>
      <trkpt lat="49.51291" lon="3.51118">
        <ele>147.6</ele>
        <time>2016-05-09T13:17:20.270Z</time>
      </trkpt>
      <trkpt lat="49.51285" lon="3.51127">
        <ele>147</ele>
        <time>2016-05-09T13:17:29.300Z</time>
      </trkpt>
      <trkpt lat="49.51285" lon="3.51128">
        <ele>147</ele>
        <time>2016-05-09T13:17:30.292Z</time>
      </trkpt>
      <trkpt lat="49.51277" lon="3.51135">
        <ele>147.2</ele>
        <time>2016-05-09T13:17:38.293Z</time>
      </trkpt>
      <trkpt lat="49.51276" lon="3.51135">
        <ele>147.4</ele>
        <time>2016-05-09T13:17:39.279Z</time>
      </trkpt>
      <trkpt lat="49.51269" lon="3.5114">
        <ele>147.8</ele>
        <time>2016-05-09T13:17:46.248Z</time>
      </trkpt>
      <trkpt lat="49.51268" lon="3.51141">
        <ele>147.4</ele>
        <time>2016-05-09T13:17:47.232Z</time>
      </trkpt>
      <trkpt lat="49.51261" lon="3.51148">
        <ele>148.2</ele>
        <time>2016-05-09T13:17:56.231Z</time>
      </trkpt>
      <trkpt lat="49.5126" lon="3.51149">
        <ele>148.3</ele>
        <time>2016-05-09T13:17:57.216Z</time>
      </trkpt>
      <trkpt lat="49.51254" lon="3.51158">
        <ele>148.6</ele>
        <time>2016-05-09T13:18:05.325Z</time>
      </trkpt>
      <trkpt lat="49.51253" lon="3.5116">
        <ele>148.9</ele>
        <time>2016-05-09T13:18:06.211Z</time>
      </trkpt>
      <trkpt lat="49.51248" lon="3.51169">
        <ele>149.4</ele>
        <time>2016-05-09T13:18:13.332Z</time>
      </trkpt>
      <trkpt lat="49.51247" lon="3.51171">
        <ele>149.6</ele>
        <time>2016-05-09T13:18:14.216Z</time>
      </trkpt>
      <trkpt lat="49.51242" lon="3.51181">
        <ele>150.1</ele>
        <time>2016-05-09T13:18:21.294Z</time>
      </trkpt>
      <trkpt lat="49.51241" lon="3.51183">
        <ele>150.2</ele>
        <time>2016-05-09T13:18:22.284Z</time>
      </trkpt>
      <trkpt lat="49.51236" lon="3.51193">
        <ele>150.7</ele>
        <time>2016-05-09T13:18:28.257Z</time>
      </trkpt>
      <trkpt lat="49.51236" lon="3.51195">
        <ele>150.7</ele>
        <time>2016-05-09T13:18:29.246Z</time>
      </trkpt>
      <trkpt lat="49.51231" lon="3.51205">
        <ele>150.9</ele>
        <time>2016-05-09T13:18:35.234Z</time>
      </trkpt>
      <trkpt lat="49.51231" lon="3.51206">
        <ele>151</ele>
        <time>2016-05-09T13:18:36.220Z</time>
      </trkpt>
      <trkpt lat="49.51226" lon="3.51216">
        <ele>151.6</ele>
        <time>2016-05-09T13:18:42.312Z</time>
      </trkpt>
      <trkpt lat="49.51225" lon="3.51218">
        <ele>151.7</ele>
        <time>2016-05-09T13:18:43.300Z</time>
      </trkpt>
      <trkpt lat="49.51221" lon="3.51229">
        <ele>152.1</ele>
        <time>2016-05-09T13:18:50.293Z</time>
      </trkpt>
      <trkpt lat="49.5122" lon="3.51231">
        <ele>152.2</ele>
        <time>2016-05-09T13:18:51.286Z</time>
      </trkpt>
      <trkpt lat="49.51217" lon="3.51242">
        <ele>152.6</ele>
        <time>2016-05-09T13:18:58.297Z</time>
      </trkpt>
      <trkpt lat="49.51216" lon="3.51244">
        <ele>152.5</ele>
        <time>2016-05-09T13:18:59.289Z</time>
      </trkpt>
      <trkpt lat="49.51212" lon="3.51256">
        <ele>152.6</ele>
        <time>2016-05-09T13:19:06.272Z</time>
      </trkpt>
      <trkpt lat="49.51212" lon="3.51258">
        <ele>152.8</ele>
        <time>2016-05-09T13:19:07.262Z</time>
      </trkpt>
      <trkpt lat="49.51208" lon="3.51268">
        <ele>153.3</ele>
        <time>2016-05-09T13:19:13.378Z</time>
      </trkpt>
      <trkpt lat="49.51207" lon="3.5127">
        <ele>153.3</ele>
        <time>2016-05-09T13:19:14.216Z</time>
      </trkpt>
      <trkpt lat="49.51203" lon="3.51282">
        <ele>152.8</ele>
        <time>2016-05-09T13:19:21.285Z</time>
      </trkpt>
      <trkpt lat="49.51202" lon="3.51283">
        <ele>152.7</ele>
        <time>2016-05-09T13:19:22.286Z</time>
      </trkpt>
      <trkpt lat="49.51199" lon="3.51295">
        <ele>151.9</ele>
        <time>2016-05-09T13:19:29.266Z</time>
      </trkpt>
      <trkpt lat="49.51198" lon="3.51297">
        <ele>152.1</ele>
        <time>2016-05-09T13:19:30.253Z</time>
      </trkpt>
      <trkpt lat="49.51195" lon="3.51309">
        <ele>152.4</ele>
        <time>2016-05-09T13:19:37.271Z</time>
      </trkpt>
      <trkpt lat="49.51194" lon="3.5131">
        <ele>152.4</ele>
        <time>2016-05-09T13:19:38.257Z</time>
      </trkpt>
      <trkpt lat="49.5119" lon="3.51322">
        <ele>152</ele>
        <time>2016-05-09T13:19:45.232Z</time>
      </trkpt>
      <trkpt lat="49.5119" lon="3.51324">
        <ele>152</ele>
        <time>2016-05-09T13:19:46.230Z</time>
      </trkpt>
      <trkpt lat="49.51186" lon="3.51336">
        <ele>152.1</ele>
        <time>2016-05-09T13:19:53.319Z</time>
      </trkpt>
      <trkpt lat="49.51186" lon="3.51338">
        <ele>152</ele>
        <time>2016-05-09T13:19:54.215Z</time>
      </trkpt>
      <trkpt lat="49.51183" lon="3.5135">
        <ele>152.3</ele>
        <time>2016-05-09T13:20:01.313Z</time>
      </trkpt>
      <trkpt lat="49.51183" lon="3.51352">
        <ele>152.3</ele>
        <time>2016-05-09T13:20:02.210Z</time>
      </trkpt>
      <trkpt lat="49.51182" lon="3.51365">
        <ele>152.2</ele>
        <time>2016-05-09T13:20:09.300Z</time>
      </trkpt>
      <trkpt lat="49.51182" lon="3.51367">
        <ele>152.2</ele>
        <time>2016-05-09T13:20:10.298Z</time>
      </trkpt>
      <trkpt lat="49.5118" lon="3.5138">
        <ele>151.7</ele>
        <time>2016-05-09T13:20:17.314Z</time>
      </trkpt>
      <trkpt lat="49.5118" lon="3.51382">
        <ele>151.6</ele>
        <time>2016-05-09T13:20:18.302Z</time>
      </trkpt>
      <trkpt lat="49.5118" lon="3.51395">
        <ele>151.1</ele>
        <time>2016-05-09T13:20:25.367Z</time>
      </trkpt>
      <trkpt lat="49.5118" lon="3.51397">
        <ele>151.1</ele>
        <time>2016-05-09T13:20:26.278Z</time>
      </trkpt>
      <trkpt lat="49.51179" lon="3.5141">
        <ele>150.7</ele>
        <time>2016-05-09T13:20:33.317Z</time>
      </trkpt>
      <trkpt lat="49.51179" lon="3.51412">
        <ele>150.6</ele>
        <time>2016-05-09T13:20:34.213Z</time>
      </trkpt>
      <trkpt lat="49.5118" lon="3.51426">
        <ele>149.8</ele>
        <time>2016-05-09T13:20:41.312Z</time>
      </trkpt>
      <trkpt lat="49.5118" lon="3.51427">
        <ele>149.6</ele>
        <time>2016-05-09T13:20:42.299Z</time>
      </trkpt>
      <trkpt lat="49.51181" lon="3.5144">
        <ele>148.6</ele>
        <time>2016-05-09T13:20:49.273Z</time>
      </trkpt>
      <trkpt lat="49.51181" lon="3.51442">
        <ele>148.6</ele>
        <time>2016-05-09T13:20:50.266Z</time>
      </trkpt>
      <trkpt lat="49.51182" lon="3.51454">
        <ele>148.4</ele>
        <time>2016-05-09T13:20:56.225Z</time>
      </trkpt>
      <trkpt lat="49.51182" lon="3.51456">
        <ele>148.2</ele>
        <time>2016-05-09T13:20:57.217Z</time>
      </trkpt>
      <trkpt lat="49.51182" lon="3.51469">
        <ele>147.9</ele>
        <time>2016-05-09T13:21:04.313Z</time>
      </trkpt>
      <trkpt lat="49.51182" lon="3.51471">
        <ele>147.8</ele>
        <time>2016-05-09T13:21:05.297Z</time>
      </trkpt>
      <trkpt lat="49.51182" lon="3.51483">
        <ele>148</ele>
        <time>2016-05-09T13:21:11.265Z</time>
      </trkpt>
      <trkpt lat="49.51182" lon="3.51485">
        <ele>147.9</ele>
        <time>2016-05-09T13:21:12.256Z</time>
      </trkpt>
      <trkpt lat="49.51183" lon="3.51499">
        <ele>147.4</ele>
        <time>2016-05-09T13:21:19.348Z</time>
      </trkpt>
      <trkpt lat="49.51183" lon="3.515">
        <ele>147.3</ele>
        <time>2016-05-09T13:21:20.217Z</time>
      </trkpt>
      <trkpt lat="49.51183" lon="3.51513">
        <ele>146.5</ele>
        <time>2016-05-09T13:21:27.313Z</time>
      </trkpt>
      <trkpt lat="49.51184" lon="3.51515">
        <ele>146.6</ele>
        <time>2016-05-09T13:21:28.305Z</time>
      </trkpt>
      <trkpt lat="49.51184" lon="3.51528">
        <ele>145.4</ele>
        <time>2016-05-09T13:21:35.313Z</time>
      </trkpt>
      <trkpt lat="49.51184" lon="3.5153">
        <ele>145.1</ele>
        <time>2016-05-09T13:21:36.301Z</time>
      </trkpt>
      <trkpt lat="49.51185" lon="3.51544">
        <ele>144.8</ele>
        <time>2016-05-09T13:21:43.273Z</time>
      </trkpt>
      <trkpt lat="49.51185" lon="3.51546">
        <ele>144.8</ele>
        <time>2016-05-09T13:21:44.265Z</time>
      </trkpt>
      <trkpt lat="49.51185" lon="3.51559">
        <ele>144.1</ele>
        <time>2016-05-09T13:21:51.296Z</time>
      </trkpt>
      <trkpt lat="49.51185" lon="3.51561">
        <ele>144.2</ele>
        <time>2016-05-09T13:21:52.288Z</time>
      </trkpt>
      <trkpt lat="49.51185" lon="3.51574">
        <ele>144.4</ele>
        <time>2016-05-09T13:21:59.259Z</time>
      </trkpt>
      <trkpt lat="49.51185" lon="3.51576">
        <ele>144.4</ele>
        <time>2016-05-09T13:22:00.245Z</time>
      </trkpt>
      <trkpt lat="49.51186" lon="3.51589">
        <ele>143.7</ele>
        <time>2016-05-09T13:22:07.271Z</time>
      </trkpt>
      <trkpt lat="49.51186" lon="3.51591">
        <ele>143.6</ele>
        <time>2016-05-09T13:22:08.263Z</time>
      </trkpt>
      <trkpt lat="49.51186" lon="3.51605">
        <ele>143.4</ele>
        <time>2016-05-09T13:22:15.227Z</time>
      </trkpt>
      <trkpt lat="49.51186" lon="3.51607">
        <ele>143.1</ele>
        <time>2016-05-09T13:22:16.215Z</time>
      </trkpt>
      <trkpt lat="49.51186" lon="3.5162">
        <ele>143.1</ele>
        <time>2016-05-09T13:22:23.328Z</time>
      </trkpt>
      <trkpt lat="49.51187" lon="3.51622">
        <ele>142.9</ele>
        <time>2016-05-09T13:22:24.218Z</time>
      </trkpt>
      <trkpt lat="49.51187" lon="3.51634">
        <ele>142.3</ele>
        <time>2016-05-09T13:22:30.312Z</time>
      </trkpt>
      <trkpt lat="49.51187" lon="3.51636">
        <ele>142.4</ele>
        <time>2016-05-09T13:22:31.304Z</time>
      </trkpt>
      <trkpt lat="49.51187" lon="3.51649">
        <ele>141.7</ele>
        <time>2016-05-09T13:22:38.305Z</time>
      </trkpt>
      <trkpt lat="49.51187" lon="3.51651">
        <ele>141.7</ele>
        <time>2016-05-09T13:22:39.290Z</time>
      </trkpt>
      <trkpt lat="49.51188" lon="3.51664">
        <ele>142</ele>
        <time>2016-05-09T13:22:46.234Z</time>
      </trkpt>
      <trkpt lat="49.51188" lon="3.51665">
        <ele>141.8</ele>
        <time>2016-05-09T13:22:47.235Z</time>
      </trkpt>
      <trkpt lat="49.51189" lon="3.51677">
        <ele>141.6</ele>
        <time>2016-05-09T13:22:53.317Z</time>
      </trkpt>
      <trkpt lat="49.51189" lon="3.51679">
        <ele>141.7</ele>
        <time>2016-05-09T13:22:54.307Z</time>
      </trkpt>
      <trkpt lat="49.51189" lon="3.51693">
        <ele>140.8</ele>
        <time>2016-05-09T13:23:01.302Z</time>
      </trkpt>
      <trkpt lat="49.51189" lon="3.51695">
        <ele>140.9</ele>
        <time>2016-05-09T13:23:02.304Z</time>
      </trkpt>
      <trkpt lat="49.5119" lon="3.51708">
        <ele>140.7</ele>
        <time>2016-05-09T13:23:09.303Z</time>
      </trkpt>
      <trkpt lat="49.5119" lon="3.5171">
        <ele>140.6</ele>
        <time>2016-05-09T13:23:10.272Z</time>
      </trkpt>
      <trkpt lat="49.5119" lon="3.51723">
        <ele>140.1</ele>
        <time>2016-05-09T13:23:17.256Z</time>
      </trkpt>
      <trkpt lat="49.5119" lon="3.51725">
        <ele>140</ele>
        <time>2016-05-09T13:23:18.247Z</time>
      </trkpt>
      <trkpt lat="49.51191" lon="3.51737">
        <ele>139.9</ele>
        <time>2016-05-09T13:23:25.473Z</time>
      </trkpt>
      <trkpt lat="49.51191" lon="3.51739">
        <ele>139.9</ele>
        <time>2016-05-09T13:23:26.275Z</time>
      </trkpt>
      <trkpt lat="49.5119" lon="3.51751">
        <ele>139.8</ele>
        <time>2016-05-09T13:23:33.228Z</time>
      </trkpt>
      <trkpt lat="49.5119" lon="3.51753">
        <ele>139.7</ele>
        <time>2016-05-09T13:23:34.226Z</time>
      </trkpt>
      <trkpt lat="49.51188" lon="3.51765">
        <ele>140</ele>
        <time>2016-05-09T13:23:43.333Z</time>
      </trkpt>
      <trkpt lat="49.51187" lon="3.51766">
        <ele>140.1</ele>
        <time>2016-05-09T13:23:44.215Z</time>
      </trkpt>
      <trkpt lat="49.51181" lon="3.51775">
        <ele>140.4</ele>
        <time>2016-05-09T13:23:50.295Z</time>
      </trkpt>
      <trkpt lat="49.5118" lon="3.51776">
        <ele>140.5</ele>
        <time>2016-05-09T13:23:51.279Z</time>
      </trkpt>
      <trkpt lat="49.51176" lon="3.51786">
        <ele>141.3</ele>
        <time>2016-05-09T13:23:57.301Z</time>
      </trkpt>
      <trkpt lat="49.51175" lon="3.51788">
        <ele>141.5</ele>
        <time>2016-05-09T13:23:58.302Z</time>
      </trkpt>
      <trkpt lat="49.5117" lon="3.51798">
        <ele>142.3</ele>
        <time>2016-05-09T13:24:06.252Z</time>
      </trkpt>
      <trkpt lat="49.51169" lon="3.51799">
        <ele>142.3</ele>
        <time>2016-05-09T13:24:07.265Z</time>
      </trkpt>
      <trkpt lat="49.51164" lon="3.51809">
        <ele>142.7</ele>
        <time>2016-05-09T13:24:14.266Z</time>
      </trkpt>
      <trkpt lat="49.51163" lon="3.51811">
        <ele>142.8</ele>
        <time>2016-05-09T13:24:15.262Z</time>
      </trkpt>
      <trkpt lat="49.51157" lon="3.5182">
        <ele>142.8</ele>
        <time>2016-05-09T13:24:22.235Z</time>
      </trkpt>
      <trkpt lat="49.51157" lon="3.51822">
        <ele>142.9</ele>
        <time>2016-05-09T13:24:23.219Z</time>
      </trkpt>
      <trkpt lat="49.51151" lon="3.51832">
        <ele>143.1</ele>
        <time>2016-05-09T13:24:31.336Z</time>
      </trkpt>
      <trkpt lat="49.5115" lon="3.51834">
        <ele>143.1</ele>
        <time>2016-05-09T13:24:32.208Z</time>
      </trkpt>
      <trkpt lat="49.51147" lon="3.51845">
        <ele>143</ele>
        <time>2016-05-09T13:24:39.288Z</time>
      </trkpt>
      <trkpt lat="49.51146" lon="3.51847">
        <ele>143</ele>
        <time>2016-05-09T13:24:40.278Z</time>
      </trkpt>
      <trkpt lat="49.51143" lon="3.51859">
        <ele>143.3</ele>
        <time>2016-05-09T13:24:47.265Z</time>
      </trkpt>
      <trkpt lat="49.51143" lon="3.51861">
        <ele>143.1</ele>
        <time>2016-05-09T13:24:48.262Z</time>
      </trkpt>
      <trkpt lat="49.51142" lon="3.51874">
        <ele>142.6</ele>
        <time>2016-05-09T13:24:55.266Z</time>
      </trkpt>
      <trkpt lat="49.51142" lon="3.51875">
        <ele>142.5</ele>
        <time>2016-05-09T13:24:56.254Z</time>
      </trkpt>
      <trkpt lat="49.51142" lon="3.51888">
        <ele>142.9</ele>
        <time>2016-05-09T13:25:05.255Z</time>
      </trkpt>
      <trkpt lat="49.51141" lon="3.5189">
        <ele>142.6</ele>
        <time>2016-05-09T13:25:06.236Z</time>
      </trkpt>
      <trkpt lat="49.51142" lon="3.51902">
        <ele>142.7</ele>
        <time>2016-05-09T13:25:14.288Z</time>
      </trkpt>
      <trkpt lat="49.51143" lon="3.51904">
        <ele>142.7</ele>
        <time>2016-05-09T13:25:15.279Z</time>
      </trkpt>
      <trkpt lat="49.51142" lon="3.51917">
        <ele>143.6</ele>
        <time>2016-05-09T13:25:23.446Z</time>
      </trkpt>
      <trkpt lat="49.51143" lon="3.51918">
        <ele>143.6</ele>
        <time>2016-05-09T13:25:24.302Z</time>
      </trkpt>
      <trkpt lat="49.51143" lon="3.51931">
        <ele>144.5</ele>
        <time>2016-05-09T13:25:31.305Z</time>
      </trkpt>
      <trkpt lat="49.51143" lon="3.51933">
        <ele>144.7</ele>
        <time>2016-05-09T13:25:32.215Z</time>
      </trkpt>
      <trkpt lat="49.51141" lon="3.51946">
        <ele>146.2</ele>
        <time>2016-05-09T13:25:39.297Z</time>
      </trkpt>
      <trkpt lat="49.51141" lon="3.51948">
        <ele>146.3</ele>
        <time>2016-05-09T13:25:40.294Z</time>
      </trkpt>
      <trkpt lat="49.51139" lon="3.51961">
        <ele>146.2</ele>
        <time>2016-05-09T13:25:47.218Z</time>
      </trkpt>
      <trkpt lat="49.51139" lon="3.51963">
        <ele>145.8</ele>
        <time>2016-05-09T13:25:48.211Z</time>
      </trkpt>
      <trkpt lat="49.51137" lon="3.51976">
        <ele>145.3</ele>
        <time>2016-05-09T13:25:55.264Z</time>
      </trkpt>
      <trkpt lat="49.51137" lon="3.51978">
        <ele>145.3</ele>
        <time>2016-05-09T13:25:56.247Z</time>
      </trkpt>
      <trkpt lat="49.51136" lon="3.51989">
        <ele>145.1</ele>
        <time>2016-05-09T13:26:01.330Z</time>
      </trkpt>
      <trkpt lat="49.51135" lon="3.51992">
        <ele>145</ele>
        <time>2016-05-09T13:26:02.207Z</time>
      </trkpt>
      <trkpt lat="49.51135" lon="3.52004">
        <ele>144.6</ele>
        <time>2016-05-09T13:26:09.320Z</time>
      </trkpt>
      <trkpt lat="49.51135" lon="3.52007">
        <ele>144.6</ele>
        <time>2016-05-09T13:26:10.271Z</time>
      </trkpt>
      <trkpt lat="49.51136" lon="3.52019">
        <ele>144.7</ele>
        <time>2016-05-09T13:26:17.262Z</time>
      </trkpt>
      <trkpt lat="49.51137" lon="3.52021">
        <ele>144.8</ele>
        <time>2016-05-09T13:26:18.250Z</time>
      </trkpt>
      <trkpt lat="49.51138" lon="3.52034">
        <ele>145.7</ele>
        <time>2016-05-09T13:26:25.259Z</time>
      </trkpt>
      <trkpt lat="49.51138" lon="3.52036">
        <ele>145.9</ele>
        <time>2016-05-09T13:26:26.251Z</time>
      </trkpt>
      <trkpt lat="49.51138" lon="3.52049">
        <ele>146.3</ele>
        <time>2016-05-09T13:26:32.218Z</time>
      </trkpt>
      <trkpt lat="49.51138" lon="3.52051">
        <ele>146.5</ele>
        <time>2016-05-09T13:26:33.202Z</time>
      </trkpt>
      <trkpt lat="49.5114" lon="3.52063">
        <ele>147.3</ele>
        <time>2016-05-09T13:26:39.217Z</time>
      </trkpt>
      <trkpt lat="49.5114" lon="3.52065">
        <ele>147.4</ele>
        <time>2016-05-09T13:26:40.207Z</time>
      </trkpt>
      <trkpt lat="49.51143" lon="3.52077">
        <ele>148.9</ele>
        <time>2016-05-09T13:26:47.305Z</time>
      </trkpt>
      <trkpt lat="49.51143" lon="3.52079">
        <ele>149.3</ele>
        <time>2016-05-09T13:26:48.294Z</time>
      </trkpt>
      <trkpt lat="49.51145" lon="3.52091">
        <ele>150.9</ele>
        <time>2016-05-09T13:26:54.266Z</time>
      </trkpt>
      <trkpt lat="49.51145" lon="3.52093">
        <ele>151</ele>
        <time>2016-05-09T13:26:55.258Z</time>
      </trkpt>
      <trkpt lat="49.51147" lon="3.52105">
        <ele>152.1</ele>
        <time>2016-05-09T13:27:01.272Z</time>
      </trkpt>
      <trkpt lat="49.51147" lon="3.52107">
        <ele>152.4</ele>
        <time>2016-05-09T13:27:02.276Z</time>
      </trkpt>
      <trkpt lat="49.5115" lon="3.52118">
        <ele>154</ele>
        <time>2016-05-09T13:27:09.278Z</time>
      </trkpt>
      <trkpt lat="49.51151" lon="3.5212">
        <ele>154.1</ele>
        <time>2016-05-09T13:27:10.268Z</time>
      </trkpt>
      <trkpt lat="49.51154" lon="3.52131">
        <ele>155</ele>
        <time>2016-05-09T13:27:16.246Z</time>
      </trkpt>
      <trkpt lat="49.51154" lon="3.52133">
        <ele>155.2</ele>
        <time>2016-05-09T13:27:17.237Z</time>
      </trkpt>
      <trkpt lat="49.51158" lon="3.52144">
        <ele>156</ele>
        <time>2016-05-09T13:27:24.327Z</time>
      </trkpt>
      <trkpt lat="49.51158" lon="3.52146">
        <ele>156.7</ele>
        <time>2016-05-09T13:27:25.315Z</time>
      </trkpt>
      <trkpt lat="49.5116" lon="3.52159">
        <ele>157.7</ele>
        <time>2016-05-09T13:27:32.254Z</time>
      </trkpt>
      <trkpt lat="49.51161" lon="3.52161">
        <ele>158</ele>
        <time>2016-05-09T13:27:33.217Z</time>
      </trkpt>
      <trkpt lat="49.51166" lon="3.5217">
        <ele>158.3</ele>
        <time>2016-05-09T13:27:39.222Z</time>
      </trkpt>
      <trkpt lat="49.51167" lon="3.52171">
        <ele>158.4</ele>
        <time>2016-05-09T13:27:40.276Z</time>
      </trkpt>
      <trkpt lat="49.51169" lon="3.52183">
        <ele>159.6</ele>
        <time>2016-05-09T13:27:49.296Z</time>
      </trkpt>
      <trkpt lat="49.51169" lon="3.52185">
        <ele>159.7</ele>
        <time>2016-05-09T13:27:50.284Z</time>
      </trkpt>
      <trkpt lat="49.51169" lon="3.52197">
        <ele>159.2</ele>
        <time>2016-05-09T13:27:55.272Z</time>
      </trkpt>
      <trkpt lat="49.51169" lon="3.522">
        <ele>159.2</ele>
        <time>2016-05-09T13:27:56.259Z</time>
      </trkpt>
      <trkpt lat="49.51171" lon="3.52212">
        <ele>158.7</ele>
        <time>2016-05-09T13:28:02.299Z</time>
      </trkpt>
      <trkpt lat="49.51171" lon="3.52215">
        <ele>158.8</ele>
        <time>2016-05-09T13:28:03.199Z</time>
      </trkpt>
      <trkpt lat="49.51173" lon="3.52226">
        <ele>159.4</ele>
        <time>2016-05-09T13:28:09.341Z</time>
      </trkpt>
      <trkpt lat="49.51174" lon="3.52228">
        <ele>159.3</ele>
        <time>2016-05-09T13:28:10.279Z</time>
      </trkpt>
      <trkpt lat="49.51176" lon="3.52241">
        <ele>158.7</ele>
        <time>2016-05-09T13:28:17.241Z</time>
      </trkpt>
      <trkpt lat="49.51176" lon="3.52243">
        <ele>158.5</ele>
        <time>2016-05-09T13:28:18.228Z</time>
      </trkpt>
      <trkpt lat="49.51179" lon="3.52255">
        <ele>158.2</ele>
        <time>2016-05-09T13:28:24.327Z</time>
      </trkpt>
      <trkpt lat="49.51179" lon="3.52256">
        <ele>158.3</ele>
        <time>2016-05-09T13:28:25.322Z</time>
      </trkpt>
      <trkpt lat="49.51182" lon="3.52269">
        <ele>158.3</ele>
        <time>2016-05-09T13:28:32.293Z</time>
      </trkpt>
      <trkpt lat="49.51183" lon="3.52271">
        <ele>158.4</ele>
        <time>2016-05-09T13:28:33.281Z</time>
      </trkpt>
      <trkpt lat="49.51186" lon="3.52283">
        <ele>157.8</ele>
        <time>2016-05-09T13:28:40.292Z</time>
      </trkpt>
      <trkpt lat="49.51187" lon="3.52285">
        <ele>157.7</ele>
        <time>2016-05-09T13:28:41.280Z</time>
      </trkpt>
      <trkpt lat="49.51192" lon="3.52296">
        <ele>157.6</ele>
        <time>2016-05-09T13:28:48.230Z</time>
      </trkpt>
      <trkpt lat="49.51192" lon="3.52298">
        <ele>157.6</ele>
        <time>2016-05-09T13:28:49.254Z</time>
      </trkpt>
      <trkpt lat="49.51197" lon="3.52307">
        <ele>157.3</ele>
        <time>2016-05-09T13:28:55.323Z</time>
      </trkpt>
      <trkpt lat="49.51197" lon="3.52309">
        <ele>157.2</ele>
        <time>2016-05-09T13:28:56.217Z</time>
      </trkpt>
      <trkpt lat="49.51203" lon="3.52319">
        <ele>157.4</ele>
        <time>2016-05-09T13:29:02.274Z</time>
      </trkpt>
      <trkpt lat="49.51203" lon="3.5232">
        <ele>157.2</ele>
        <time>2016-05-09T13:29:03.273Z</time>
      </trkpt>
      <trkpt lat="49.51208" lon="3.5233">
        <ele>157</ele>
        <time>2016-05-09T13:29:10.304Z</time>
      </trkpt>
      <trkpt lat="49.51209" lon="3.52331">
        <ele>156.9</ele>
        <time>2016-05-09T13:29:11.212Z</time>
      </trkpt>
      <trkpt lat="49.51215" lon="3.52341">
        <ele>157.2</ele>
        <time>2016-05-09T13:29:19.390Z</time>
      </trkpt>
      <trkpt lat="49.51215" lon="3.52342">
        <ele>157.4</ele>
        <time>2016-05-09T13:29:20.208Z</time>
      </trkpt>
      <trkpt lat="49.51215" lon="3.52342">
        <ele>157.4</ele>
        <time>2016-05-09T13:29:20.222Z</time>
      </trkpt>
      <trkpt lat="49.51215" lon="3.52342">
        <ele>157.3</ele>
        <time>2016-05-09T13:29:21.208Z</time>
      </trkpt>
      <trkpt lat="49.51215" lon="3.52342">
        <ele>157.1</ele>
        <time>2016-05-09T13:30:28.240Z</time>
      </trkpt>
      <trkpt lat="49.51215" lon="3.52344">
        <ele>156.1</ele>
        <time>2016-05-09T13:30:29.232Z</time>
      </trkpt>
      <trkpt lat="49.51214" lon="3.52345">
        <ele>156</ele>
        <time>2016-05-09T13:30:30.266Z</time>
      </trkpt>
      <trkpt lat="49.51215" lon="3.52344">
        <ele>155.9</ele>
        <time>2016-05-09T13:30:31.289Z</time>
      </trkpt>
      <trkpt lat="49.51215" lon="3.52344">
        <ele>155.7</ele>
        <time>2016-05-09T13:31:11.283Z</time>
      </trkpt>
      <trkpt lat="49.51219" lon="3.52342">
        <ele>156.9</ele>
        <time>2016-05-09T13:31:12.292Z</time>
      </trkpt>
      <trkpt lat="49.51228" lon="3.52343">
        <ele>156.7</ele>
        <time>2016-05-09T13:31:22.235Z</time>
      </trkpt>
      <trkpt lat="49.51228" lon="3.52343">
        <ele>156.7</ele>
        <time>2016-05-09T13:31:23.227Z</time>
      </trkpt>
      <trkpt lat="49.51236" lon="3.52342">
        <ele>156.9</ele>
        <time>2016-05-09T13:31:35.215Z</time>
      </trkpt>
      <trkpt lat="49.51237" lon="3.52342">
        <ele>157</ele>
        <time>2016-05-09T13:31:36.232Z</time>
      </trkpt>
      <trkpt lat="49.51244" lon="3.52348">
        <ele>156.6</ele>
        <time>2016-05-09T13:31:43.331Z</time>
      </trkpt>
      <trkpt lat="49.51245" lon="3.5235">
        <ele>156.8</ele>
        <time>2016-05-09T13:31:44.209Z</time>
      </trkpt>
      <trkpt lat="49.51251" lon="3.52357">
        <ele>157.1</ele>
        <time>2016-05-09T13:31:51.269Z</time>
      </trkpt>
      <trkpt lat="49.51253" lon="3.52358">
        <ele>157.1</ele>
        <time>2016-05-09T13:31:52.279Z</time>
      </trkpt>
      <trkpt lat="49.51259" lon="3.52366">
        <ele>156.9</ele>
        <time>2016-05-09T13:31:59.301Z</time>
      </trkpt>
      <trkpt lat="49.5126" lon="3.52367">
        <ele>156.6</ele>
        <time>2016-05-09T13:32:00.299Z</time>
      </trkpt>
      <trkpt lat="49.51266" lon="3.52374">
        <ele>156.8</ele>
        <time>2016-05-09T13:32:07.270Z</time>
      </trkpt>
      <trkpt lat="49.51267" lon="3.52374">
        <ele>156.8</ele>
        <time>2016-05-09T13:32:08.257Z</time>
      </trkpt>
      <trkpt lat="49.51276" lon="3.52374">
        <ele>156.6</ele>
        <time>2016-05-09T13:32:17.227Z</time>
      </trkpt>
      <trkpt lat="49.51277" lon="3.52373">
        <ele>156.5</ele>
        <time>2016-05-09T13:32:18.232Z</time>
      </trkpt>
      <trkpt lat="49.51285" lon="3.52376">
        <ele>156.4</ele>
        <time>2016-05-09T13:32:28.235Z</time>
      </trkpt>
      <trkpt lat="49.51286" lon="3.52376">
        <ele>156.6</ele>
        <time>2016-05-09T13:32:29.225Z</time>
      </trkpt>
      <trkpt lat="49.51295" lon="3.52379">
        <ele>156.4</ele>
        <time>2016-05-09T13:32:37.263Z</time>
      </trkpt>
      <trkpt lat="49.51296" lon="3.52379">
        <ele>156.4</ele>
        <time>2016-05-09T13:32:38.261Z</time>
      </trkpt>
      <trkpt lat="49.51304" lon="3.52379">
        <ele>157.1</ele>
        <time>2016-05-09T13:32:49.276Z</time>
      </trkpt>
      <trkpt lat="49.51305" lon="3.52379">
        <ele>157.1</ele>
        <time>2016-05-09T13:32:50.271Z</time>
      </trkpt>
      <trkpt lat="49.51313" lon="3.52381">
        <ele>156.3</ele>
        <time>2016-05-09T13:32:57.289Z</time>
      </trkpt>
      <trkpt lat="49.51314" lon="3.52382">
        <ele>156.1</ele>
        <time>2016-05-09T13:32:58.272Z</time>
      </trkpt>
      <trkpt lat="49.51322" lon="3.52386">
        <ele>154.8</ele>
        <time>2016-05-09T13:33:05.233Z</time>
      </trkpt>
      <trkpt lat="49.51323" lon="3.52387">
        <ele>154.7</ele>
        <time>2016-05-09T13:33:06.227Z</time>
      </trkpt>
      <trkpt lat="49.51329" lon="3.52396">
        <ele>155.1</ele>
        <time>2016-05-09T13:33:13.280Z</time>
      </trkpt>
      <trkpt lat="49.5133" lon="3.52397">
        <ele>154.7</ele>
        <time>2016-05-09T13:33:14.273Z</time>
      </trkpt>
      <trkpt lat="49.51337" lon="3.52406">
        <ele>154.5</ele>
        <time>2016-05-09T13:33:21.289Z</time>
      </trkpt>
      <trkpt lat="49.51338" lon="3.52408">
        <ele>154.4</ele>
        <time>2016-05-09T13:33:22.280Z</time>
      </trkpt>
      <trkpt lat="49.51343" lon="3.52417">
        <ele>153.7</ele>
        <time>2016-05-09T13:33:28.236Z</time>
      </trkpt>
      <trkpt lat="49.51344" lon="3.52419">
        <ele>153.6</ele>
        <time>2016-05-09T13:33:29.234Z</time>
      </trkpt>
      <trkpt lat="49.51352" lon="3.52416">
        <ele>153.4</ele>
        <time>2016-05-09T13:33:39.426Z</time>
      </trkpt>
      <trkpt lat="49.51353" lon="3.52415">
        <ele>153.4</ele>
        <time>2016-05-09T13:33:40.283Z</time>
      </trkpt>
      <trkpt lat="49.51358" lon="3.52404">
        <ele>153.9</ele>
        <time>2016-05-09T13:33:47.252Z</time>
      </trkpt>
      <trkpt lat="49.51358" lon="3.52403">
        <ele>153.7</ele>
        <time>2016-05-09T13:33:48.247Z</time>
      </trkpt>
      <trkpt lat="49.51364" lon="3.52395">
        <ele>153.7</ele>
        <time>2016-05-09T13:33:54.225Z</time>
      </trkpt>
      <trkpt lat="49.51365" lon="3.52393">
        <ele>153.6</ele>
        <time>2016-05-09T13:33:55.265Z</time>
      </trkpt>
      <trkpt lat="49.51372" lon="3.52386">
        <ele>153.4</ele>
        <time>2016-05-09T13:34:01.284Z</time>
      </trkpt>
      <trkpt lat="49.51373" lon="3.52384">
        <ele>153.6</ele>
        <time>2016-05-09T13:34:02.281Z</time>
      </trkpt>
      <trkpt lat="49.51379" lon="3.52375">
        <ele>153.6</ele>
        <time>2016-05-09T13:34:08.291Z</time>
      </trkpt>
      <trkpt lat="49.5138" lon="3.52374">
        <ele>153.6</ele>
        <time>2016-05-09T13:34:09.288Z</time>
      </trkpt>
      <trkpt lat="49.51385" lon="3.52365">
        <ele>154</ele>
        <time>2016-05-09T13:34:15.297Z</time>
      </trkpt>
      <trkpt lat="49.51386" lon="3.52363">
        <ele>153.9</ele>
        <time>2016-05-09T13:34:16.284Z</time>
      </trkpt>
      <trkpt lat="49.51391" lon="3.52352">
        <ele>154</ele>
        <time>2016-05-09T13:34:24.265Z</time>
      </trkpt>
      <trkpt lat="49.51392" lon="3.52351">
        <ele>154</ele>
        <time>2016-05-09T13:34:25.265Z</time>
      </trkpt>
      <trkpt lat="49.51397" lon="3.52342">
        <ele>153.3</ele>
        <time>2016-05-09T13:34:31.308Z</time>
      </trkpt>
      <trkpt lat="49.51398" lon="3.52341">
        <ele>153</ele>
        <time>2016-05-09T13:34:32.217Z</time>
      </trkpt>
      <trkpt lat="49.51403" lon="3.5233">
        <ele>153.2</ele>
        <time>2016-05-09T13:34:39.303Z</time>
      </trkpt>
      <trkpt lat="49.51404" lon="3.52328">
        <ele>153.1</ele>
        <time>2016-05-09T13:34:40.294Z</time>
      </trkpt>
      <trkpt lat="49.51409" lon="3.5232">
        <ele>152.8</ele>
        <time>2016-05-09T13:34:46.330Z</time>
      </trkpt>
      <trkpt lat="49.5141" lon="3.52318">
        <ele>152.8</ele>
        <time>2016-05-09T13:34:47.236Z</time>
      </trkpt>
      <trkpt lat="49.51416" lon="3.5231">
        <ele>153.1</ele>
        <time>2016-05-09T13:34:54.227Z</time>
      </trkpt>
      <trkpt lat="49.51417" lon="3.52309">
        <ele>153.1</ele>
        <time>2016-05-09T13:34:55.321Z</time>
      </trkpt>
      <trkpt lat="49.51424" lon="3.52303">
        <ele>153.2</ele>
        <time>2016-05-09T13:35:01.325Z</time>
      </trkpt>
      <trkpt lat="49.51425" lon="3.52302">
        <ele>153.2</ele>
        <time>2016-05-09T13:35:02.211Z</time>
      </trkpt>
      <trkpt lat="49.51433" lon="3.52296">
        <ele>153.5</ele>
        <time>2016-05-09T13:35:09.298Z</time>
      </trkpt>
      <trkpt lat="49.51434" lon="3.52295">
        <ele>153.6</ele>
        <time>2016-05-09T13:35:10.282Z</time>
      </trkpt>
      <trkpt lat="49.51441" lon="3.52288">
        <ele>153.6</ele>
        <time>2016-05-09T13:35:17.248Z</time>
      </trkpt>
      <trkpt lat="49.51442" lon="3.52287">
        <ele>153.5</ele>
        <time>2016-05-09T13:35:18.243Z</time>
      </trkpt>
      <trkpt lat="49.5145" lon="3.5228">
        <ele>153.2</ele>
        <time>2016-05-09T13:35:25.336Z</time>
      </trkpt>
      <trkpt lat="49.5145" lon="3.5228">
        <ele>153.1</ele>
        <time>2016-05-09T13:35:26.225Z</time>
      </trkpt>
      <trkpt lat="49.51457" lon="3.52272">
        <ele>153.2</ele>
        <time>2016-05-09T13:35:35.248Z</time>
      </trkpt>
      <trkpt lat="49.51458" lon="3.52271">
        <ele>153.4</ele>
        <time>2016-05-09T13:35:36.238Z</time>
      </trkpt>
      <trkpt lat="49.51465" lon="3.52265">
        <ele>153.9</ele>
        <time>2016-05-09T13:35:42.303Z</time>
      </trkpt>
      <trkpt lat="49.51466" lon="3.52264">
        <ele>153.9</ele>
        <time>2016-05-09T13:35:43.299Z</time>
      </trkpt>
      <trkpt lat="49.51473" lon="3.52257">
        <ele>154.3</ele>
        <time>2016-05-09T13:35:51.291Z</time>
      </trkpt>
      <trkpt lat="49.51474" lon="3.52256">
        <ele>154.3</ele>
        <time>2016-05-09T13:35:52.282Z</time>
      </trkpt>
      <trkpt lat="49.51481" lon="3.5225">
        <ele>155.3</ele>
        <time>2016-05-09T13:35:59.265Z</time>
      </trkpt>
      <trkpt lat="49.51482" lon="3.52249">
        <ele>155.5</ele>
        <time>2016-05-09T13:36:00.254Z</time>
      </trkpt>
      <trkpt lat="49.51489" lon="3.52243">
        <ele>155.7</ele>
        <time>2016-05-09T13:36:08.282Z</time>
      </trkpt>
      <trkpt lat="49.5149" lon="3.52242">
        <ele>155.9</ele>
        <time>2016-05-09T13:36:09.274Z</time>
      </trkpt>
      <trkpt lat="49.51497" lon="3.52238">
        <ele>156.7</ele>
        <time>2016-05-09T13:36:17.242Z</time>
      </trkpt>
      <trkpt lat="49.51499" lon="3.52237">
        <ele>156.8</ele>
        <time>2016-05-09T13:36:18.236Z</time>
      </trkpt>
      <trkpt lat="49.51506" lon="3.52231">
        <ele>157.1</ele>
        <time>2016-05-09T13:36:27.226Z</time>
      </trkpt>
      <trkpt lat="49.51508" lon="3.5223">
        <ele>157.2</ele>
        <time>2016-05-09T13:36:28.216Z</time>
      </trkpt>
      <trkpt lat="49.51515" lon="3.52237">
        <ele>157.3</ele>
        <time>2016-05-09T13:36:44.219Z</time>
      </trkpt>
      <trkpt lat="49.51515" lon="3.52239">
        <ele>157.3</ele>
        <time>2016-05-09T13:36:45.216Z</time>
      </trkpt>
      <trkpt lat="49.51519" lon="3.52251">
        <ele>155.3</ele>
        <time>2016-05-09T13:36:53.310Z</time>
      </trkpt>
      <trkpt lat="49.51519" lon="3.52253">
        <ele>155.1</ele>
        <time>2016-05-09T13:36:54.211Z</time>
      </trkpt>
      <trkpt lat="49.51521" lon="3.52265">
        <ele>155</ele>
        <time>2016-05-09T13:37:03.217Z</time>
      </trkpt>
      <trkpt lat="49.51521" lon="3.52267">
        <ele>154.8</ele>
        <time>2016-05-09T13:37:04.207Z</time>
      </trkpt>
      <trkpt lat="49.51524" lon="3.52279">
        <ele>154.3</ele>
        <time>2016-05-09T13:37:10.292Z</time>
      </trkpt>
      <trkpt lat="49.51524" lon="3.52281">
        <ele>154.4</ele>
        <time>2016-05-09T13:37:11.280Z</time>
      </trkpt>
      <trkpt lat="49.51527" lon="3.52294">
        <ele>155.1</ele>
        <time>2016-05-09T13:37:17.243Z</time>
      </trkpt>
      <trkpt lat="49.51527" lon="3.52296">
        <ele>155.1</ele>
        <time>2016-05-09T13:37:18.234Z</time>
      </trkpt>
      <trkpt lat="49.5153" lon="3.52307">
        <ele>154.6</ele>
        <time>2016-05-09T13:37:24.238Z</time>
      </trkpt>
      <trkpt lat="49.5153" lon="3.52309">
        <ele>154.6</ele>
        <time>2016-05-09T13:37:25.264Z</time>
      </trkpt>
      <trkpt lat="49.51535" lon="3.52321">
        <ele>154.9</ele>
        <time>2016-05-09T13:37:32.226Z</time>
      </trkpt>
      <trkpt lat="49.51535" lon="3.52322">
        <ele>154.9</ele>
        <time>2016-05-09T13:37:33.216Z</time>
      </trkpt>
      <trkpt lat="49.51528" lon="3.5233">
        <ele>153.7</ele>
        <time>2016-05-09T13:39:49.275Z</time>
      </trkpt>
      <trkpt lat="49.51527" lon="3.52331">
        <ele>153.7</ele>
        <time>2016-05-09T13:39:50.409Z</time>
      </trkpt>
      <trkpt lat="49.5152" lon="3.52337">
        <ele>155</ele>
        <time>2016-05-09T13:39:56.233Z</time>
      </trkpt>
      <trkpt lat="49.51519" lon="3.52338">
        <ele>155.3</ele>
        <time>2016-05-09T13:39:57.218Z</time>
      </trkpt>
      <trkpt lat="49.51512" lon="3.52344">
        <ele>155.4</ele>
        <time>2016-05-09T13:40:04.229Z</time>
      </trkpt>
      <trkpt lat="49.51511" lon="3.52345">
        <ele>155.4</ele>
        <time>2016-05-09T13:40:05.227Z</time>
      </trkpt>
      <trkpt lat="49.51504" lon="3.52351">
        <ele>154.9</ele>
        <time>2016-05-09T13:40:11.316Z</time>
      </trkpt>
      <trkpt lat="49.51503" lon="3.52352">
        <ele>154.7</ele>
        <time>2016-05-09T13:40:12.302Z</time>
      </trkpt>
      <trkpt lat="49.51496" lon="3.5236">
        <ele>155.2</ele>
        <time>2016-05-09T13:40:19.289Z</time>
      </trkpt>
      <trkpt lat="49.51495" lon="3.52361">
        <ele>155.2</ele>
        <time>2016-05-09T13:40:20.286Z</time>
      </trkpt>
      <trkpt lat="49.51487" lon="3.52367">
        <ele>154.7</ele>
        <time>2016-05-09T13:40:30.226Z</time>
      </trkpt>
      <trkpt lat="49.51486" lon="3.52368">
        <ele>154.7</ele>
        <time>2016-05-09T13:40:31.333Z</time>
      </trkpt>
      <trkpt lat="49.5148" lon="3.52377">
        <ele>154.2</ele>
        <time>2016-05-09T13:40:38.280Z</time>
      </trkpt>
      <trkpt lat="49.5148" lon="3.52378">
        <ele>154</ele>
        <time>2016-05-09T13:40:39.281Z</time>
      </trkpt>
      <trkpt lat="49.51473" lon="3.52385">
        <ele>153.8</ele>
        <time>2016-05-09T13:40:46.250Z</time>
      </trkpt>
      <trkpt lat="49.51472" lon="3.52386">
        <ele>153.6</ele>
        <time>2016-05-09T13:40:47.235Z</time>
      </trkpt>
      <trkpt lat="49.51466" lon="3.52396">
        <ele>153.6</ele>
        <time>2016-05-09T13:40:55.337Z</time>
      </trkpt>
      <trkpt lat="49.51465" lon="3.52397">
        <ele>153.6</ele>
        <time>2016-05-09T13:40:56.224Z</time>
      </trkpt>
      <trkpt lat="49.51461" lon="3.52409">
        <ele>153.4</ele>
        <time>2016-05-09T13:41:05.323Z</time>
      </trkpt>
      <trkpt lat="49.51461" lon="3.5241">
        <ele>153.5</ele>
        <time>2016-05-09T13:41:06.218Z</time>
      </trkpt>
      <trkpt lat="49.51465" lon="3.52422">
        <ele>154.1</ele>
        <time>2016-05-09T13:41:13.381Z</time>
      </trkpt>
      <trkpt lat="49.51466" lon="3.52423">
        <ele>153.7</ele>
        <time>2016-05-09T13:41:14.220Z</time>
      </trkpt>
      <trkpt lat="49.5147" lon="3.52434">
        <ele>152.6</ele>
        <time>2016-05-09T13:41:24.217Z</time>
      </trkpt>
      <trkpt lat="49.5147" lon="3.52436">
        <ele>152.6</ele>
        <time>2016-05-09T13:41:25.264Z</time>
      </trkpt>
      <trkpt lat="49.51475" lon="3.52446">
        <ele>153</ele>
        <time>2016-05-09T13:41:31.334Z</time>
      </trkpt>
      <trkpt lat="49.51476" lon="3.52448">
        <ele>152.8</ele>
        <time>2016-05-09T13:41:32.218Z</time>
      </trkpt>
      <trkpt lat="49.5148" lon="3.52458">
        <ele>152.8</ele>
        <time>2016-05-09T13:41:38.282Z</time>
      </trkpt>
      <trkpt lat="49.51481" lon="3.5246">
        <ele>152.7</ele>
        <time>2016-05-09T13:41:39.290Z</time>
      </trkpt>
      <trkpt lat="49.51485" lon="3.52469">
        <ele>152.6</ele>
        <time>2016-05-09T13:41:45.231Z</time>
      </trkpt>
      <trkpt lat="49.51486" lon="3.52471">
        <ele>152.7</ele>
        <time>2016-05-09T13:41:46.230Z</time>
      </trkpt>
      <trkpt lat="49.5149" lon="3.52482">
        <ele>152.2</ele>
        <time>2016-05-09T13:41:52.318Z</time>
      </trkpt>
      <trkpt lat="49.51491" lon="3.52484">
        <ele>152.2</ele>
        <time>2016-05-09T13:41:53.217Z</time>
      </trkpt>
      <trkpt lat="49.51496" lon="3.52494">
        <ele>152.4</ele>
        <time>2016-05-09T13:42:00.301Z</time>
      </trkpt>
      <trkpt lat="49.51497" lon="3.52496">
        <ele>152.5</ele>
        <time>2016-05-09T13:42:01.303Z</time>
      </trkpt>
      <trkpt lat="49.51501" lon="3.52506">
        <ele>152.6</ele>
        <time>2016-05-09T13:42:07.275Z</time>
      </trkpt>
      <trkpt lat="49.51502" lon="3.52508">
        <ele>152.7</ele>
        <time>2016-05-09T13:42:08.271Z</time>
      </trkpt>
      <trkpt lat="49.51508" lon="3.52519">
        <ele>152.7</ele>
        <time>2016-05-09T13:42:15.243Z</time>
      </trkpt>
      <trkpt lat="49.51509" lon="3.5252">
        <ele>152.6</ele>
        <time>2016-05-09T13:42:16.235Z</time>
      </trkpt>
      <trkpt lat="49.51516" lon="3.52526">
        <ele>153.5</ele>
        <time>2016-05-09T13:42:22.317Z</time>
      </trkpt>
      <trkpt lat="49.51517" lon="3.52527">
        <ele>153.6</ele>
        <time>2016-05-09T13:42:23.217Z</time>
      </trkpt>
      <trkpt lat="49.51524" lon="3.52532">
        <ele>153.6</ele>
        <time>2016-05-09T13:42:29.248Z</time>
      </trkpt>
      <trkpt lat="49.51525" lon="3.52533">
        <ele>153.2</ele>
        <time>2016-05-09T13:42:30.247Z</time>
      </trkpt>
      <trkpt lat="49.51532" lon="3.52541">
        <ele>153.9</ele>
        <time>2016-05-09T13:42:37.278Z</time>
      </trkpt>
      <trkpt lat="49.51533" lon="3.52542">
        <ele>154</ele>
        <time>2016-05-09T13:42:38.268Z</time>
      </trkpt>
      <trkpt lat="49.5154" lon="3.52549">
        <ele>154.9</ele>
        <time>2016-05-09T13:42:46.242Z</time>
      </trkpt>
      <trkpt lat="49.51541" lon="3.5255">
        <ele>154.9</ele>
        <time>2016-05-09T13:42:47.227Z</time>
      </trkpt>
      <trkpt lat="49.51547" lon="3.52559">
        <ele>155.2</ele>
        <time>2016-05-09T13:42:55.271Z</time>
      </trkpt>
      <trkpt lat="49.51548" lon="3.52561">
        <ele>155.1</ele>
        <time>2016-05-09T13:42:56.259Z</time>
      </trkpt>
      <trkpt lat="49.51552" lon="3.52572">
        <ele>155.7</ele>
        <time>2016-05-09T13:43:04.218Z</time>
      </trkpt>
      <trkpt lat="49.51553" lon="3.52573">
        <ele>155.6</ele>
        <time>2016-05-09T13:43:05.207Z</time>
      </trkpt>
      <trkpt lat="49.51558" lon="3.52583">
        <ele>156.2</ele>
        <time>2016-05-09T13:43:12.312Z</time>
      </trkpt>
      <trkpt lat="49.51558" lon="3.52584">
        <ele>156.2</ele>
        <time>2016-05-09T13:43:13.314Z</time>
      </trkpt>
      <trkpt lat="49.51566" lon="3.52591">
        <ele>156.7</ele>
        <time>2016-05-09T13:43:21.303Z</time>
      </trkpt>
      <trkpt lat="49.51567" lon="3.52592">
        <ele>156.7</ele>
        <time>2016-05-09T13:43:22.296Z</time>
      </trkpt>
      <trkpt lat="49.51574" lon="3.52599">
        <ele>157.3</ele>
        <time>2016-05-09T13:43:28.313Z</time>
      </trkpt>
      <trkpt lat="49.51575" lon="3.526">
        <ele>157.6</ele>
        <time>2016-05-09T13:43:29.289Z</time>
      </trkpt>
      <trkpt lat="49.51584" lon="3.52605">
        <ele>157.9</ele>
        <time>2016-05-09T13:43:37.260Z</time>
      </trkpt>
      <trkpt lat="49.51585" lon="3.52606">
        <ele>158</ele>
        <time>2016-05-09T13:43:38.261Z</time>
      </trkpt>
      <trkpt lat="49.51591" lon="3.52612">
        <ele>157.7</ele>
        <time>2016-05-09T13:43:44.284Z</time>
      </trkpt>
      <trkpt lat="49.51593" lon="3.52612">
        <ele>157.7</ele>
        <time>2016-05-09T13:43:45.271Z</time>
      </trkpt>
      <trkpt lat="49.51601" lon="3.52617">
        <ele>157.2</ele>
        <time>2016-05-09T13:43:52.297Z</time>
      </trkpt>
      <trkpt lat="49.51602" lon="3.52617">
        <ele>157</ele>
        <time>2016-05-09T13:43:53.284Z</time>
      </trkpt>
      <trkpt lat="49.5161" lon="3.52621">
        <ele>156.1</ele>
        <time>2016-05-09T13:43:59.239Z</time>
      </trkpt>
      <trkpt lat="49.51611" lon="3.52621">
        <ele>156</ele>
        <time>2016-05-09T13:44:00.226Z</time>
      </trkpt>
      <trkpt lat="49.51619" lon="3.52626">
        <ele>156</ele>
        <time>2016-05-09T13:44:06.235Z</time>
      </trkpt>
      <trkpt lat="49.5162" lon="3.52627">
        <ele>156</ele>
        <time>2016-05-09T13:44:07.238Z</time>
      </trkpt>
      <trkpt lat="49.51628" lon="3.52632">
        <ele>155</ele>
        <time>2016-05-09T13:44:14.292Z</time>
      </trkpt>
      <trkpt lat="49.51629" lon="3.52632">
        <ele>155.1</ele>
        <time>2016-05-09T13:44:15.234Z</time>
      </trkpt>
      <trkpt lat="49.51637" lon="3.52635">
        <ele>155.1</ele>
        <time>2016-05-09T13:44:23.228Z</time>
      </trkpt>
      <trkpt lat="49.51638" lon="3.52634">
        <ele>155.1</ele>
        <time>2016-05-09T13:44:24.222Z</time>
      </trkpt>
      <trkpt lat="49.51647" lon="3.52631">
        <ele>155.5</ele>
        <time>2016-05-09T13:44:32.286Z</time>
      </trkpt>
      <trkpt lat="49.51648" lon="3.52631">
        <ele>155.6</ele>
        <time>2016-05-09T13:44:33.272Z</time>
      </trkpt>
      <trkpt lat="49.51657" lon="3.52628">
        <ele>156.5</ele>
        <time>2016-05-09T13:44:40.377Z</time>
      </trkpt>
      <trkpt lat="49.51658" lon="3.52628">
        <ele>156.7</ele>
        <time>2016-05-09T13:44:41.281Z</time>
      </trkpt>
      <trkpt lat="49.51667" lon="3.52626">
        <ele>157.4</ele>
        <time>2016-05-09T13:44:49.271Z</time>
      </trkpt>
      <trkpt lat="49.51668" lon="3.52626">
        <ele>157.4</ele>
        <time>2016-05-09T13:44:50.265Z</time>
      </trkpt>
      <trkpt lat="49.51676" lon="3.52623">
        <ele>157.5</ele>
        <time>2016-05-09T13:44:57.242Z</time>
      </trkpt>
      <trkpt lat="49.51677" lon="3.52623">
        <ele>157.6</ele>
        <time>2016-05-09T13:44:58.218Z</time>
      </trkpt>
      <trkpt lat="49.51685" lon="3.52621">
        <ele>157.8</ele>
        <time>2016-05-09T13:45:09.264Z</time>
      </trkpt>
      <trkpt lat="49.51686" lon="3.52621">
        <ele>157.9</ele>
        <time>2016-05-09T13:45:10.255Z</time>
      </trkpt>
      <trkpt lat="49.51695" lon="3.52622">
        <ele>158.4</ele>
        <time>2016-05-09T13:45:19.245Z</time>
      </trkpt>
      <trkpt lat="49.51696" lon="3.52621">
        <ele>158.4</ele>
        <time>2016-05-09T13:45:20.327Z</time>
      </trkpt>
      <trkpt lat="49.51697" lon="3.52621">
        <ele>158.5</ele>
        <time>2016-05-09T13:45:22.288Z</time>
      </trkpt>
      <trkpt lat="49.51697" lon="3.52621">
        <ele>158.5</ele>
        <time>2016-05-09T13:45:23.203Z</time>
      </trkpt>
      <trkpt lat="49.51697" lon="3.52621">
        <ele>158.5</ele>
        <time>2016-05-09T13:45:23.214Z</time>
      </trkpt>
      <trkpt lat="49.51698" lon="3.5262">
        <ele>158.6</ele>
        <time>2016-05-09T13:45:24.224Z</time>
      </trkpt>
      <trkpt lat="49.51705" lon="3.52617">
        <ele>159.3</ele>
        <time>2016-05-09T13:45:30.297Z</time>
      </trkpt>
      <trkpt lat="49.51707" lon="3.52616">
        <ele>159.3</ele>
        <time>2016-05-09T13:45:31.285Z</time>
      </trkpt>
      <trkpt lat="49.51714" lon="3.52613">
        <ele>160.1</ele>
        <time>2016-05-09T13:45:39.287Z</time>
      </trkpt>
      <trkpt lat="49.51716" lon="3.52613">
        <ele>160.2</ele>
        <time>2016-05-09T13:45:40.271Z</time>
      </trkpt>
      <trkpt lat="49.51724" lon="3.52609">
        <ele>160.4</ele>
        <time>2016-05-09T13:45:46.241Z</time>
      </trkpt>
      <trkpt lat="49.51725" lon="3.52608">
        <ele>160.5</ele>
        <time>2016-05-09T13:45:47.227Z</time>
      </trkpt>
      <trkpt lat="49.51733" lon="3.52603">
        <ele>161.2</ele>
        <time>2016-05-09T13:45:54.311Z</time>
      </trkpt>
      <trkpt lat="49.51733" lon="3.52602">
        <ele>161.3</ele>
        <time>2016-05-09T13:45:55.300Z</time>
      </trkpt>
      <trkpt lat="49.51739" lon="3.52592">
        <ele>162.5</ele>
        <time>2016-05-09T13:46:04.297Z</time>
      </trkpt>
      <trkpt lat="49.51739" lon="3.5259">
        <ele>162.6</ele>
        <time>2016-05-09T13:46:05.292Z</time>
      </trkpt>
      <trkpt lat="49.5174" lon="3.52578">
        <ele>163.6</ele>
        <time>2016-05-09T13:46:13.280Z</time>
      </trkpt>
      <trkpt lat="49.5174" lon="3.52576">
        <ele>164.3</ele>
        <time>2016-05-09T13:46:14.265Z</time>
      </trkpt>
      <trkpt lat="49.51741" lon="3.52562">
        <ele>165.2</ele>
        <time>2016-05-09T13:46:22.235Z</time>
      </trkpt>
      <trkpt lat="49.51741" lon="3.52561">
        <ele>165.5</ele>
        <time>2016-05-09T13:46:23.231Z</time>
      </trkpt>
      <trkpt lat="49.51745" lon="3.52552">
        <ele>166</ele>
        <time>2016-05-09T13:46:32.269Z</time>
      </trkpt>
      <trkpt lat="49.51747" lon="3.52551">
        <ele>166.1</ele>
        <time>2016-05-09T13:46:33.264Z</time>
      </trkpt>
      <trkpt lat="49.51754" lon="3.52543">
        <ele>168</ele>
        <time>2016-05-09T13:46:41.258Z</time>
      </trkpt>
      <trkpt lat="49.51755" lon="3.52543">
        <ele>168.3</ele>
        <time>2016-05-09T13:46:42.236Z</time>
      </trkpt>
      <trkpt lat="49.51762" lon="3.52536">
        <ele>169.8</ele>
        <time>2016-05-09T13:46:50.213Z</time>
      </trkpt>
      <trkpt lat="49.51763" lon="3.52536">
        <ele>169.9</ele>
        <time>2016-05-09T13:46:51.216Z</time>
      </trkpt>
      <trkpt lat="49.51769" lon="3.52528">
        <ele>171.9</ele>
        <time>2016-05-09T13:46:59.224Z</time>
      </trkpt>
      <trkpt lat="49.5177" lon="3.52527">
        <ele>172</ele>
        <time>2016-05-09T13:47:00.213Z</time>
      </trkpt>
      <trkpt lat="49.51777" lon="3.52521">
        <ele>174</ele>
        <time>2016-05-09T13:47:09.287Z</time>
      </trkpt>
      <trkpt lat="49.51778" lon="3.52521">
        <ele>174.5</ele>
        <time>2016-05-09T13:47:10.276Z</time>
      </trkpt>
      <trkpt lat="49.51781" lon="3.52519">
        <ele>176.2</ele>
        <time>2016-05-09T13:47:16.265Z</time>
      </trkpt>
      <trkpt lat="49.51781" lon="3.52518">
        <ele>176.4</ele>
        <time>2016-05-09T13:47:17.224Z</time>
      </trkpt>
      <trkpt lat="49.51781" lon="3.52518">
        <ele>176.4</ele>
        <time>2016-05-09T13:47:18.254Z</time>
      </trkpt>
      <trkpt lat="49.51781" lon="3.52517">
        <ele>176.7</ele>
        <time>2016-05-09T13:47:19.249Z</time>
      </trkpt>
      <trkpt lat="49.51782" lon="3.52515">
        <ele>176.9</ele>
        <time>2016-05-09T13:47:21.286Z</time>
      </trkpt>
      <trkpt lat="49.51783" lon="3.52515">
        <ele>177.1</ele>
        <time>2016-05-09T13:47:22.276Z</time>
      </trkpt>
      <trkpt lat="49.51783" lon="3.52515">
        <ele>177.1</ele>
        <time>2016-05-09T13:47:22.294Z</time>
      </trkpt>
      <trkpt lat="49.51784" lon="3.52515">
        <ele>177.2</ele>
        <time>2016-05-09T13:47:23.282Z</time>
      </trkpt>
      <trkpt lat="49.51791" lon="3.52509">
        <ele>178.6</ele>
        <time>2016-05-09T13:47:32.226Z</time>
      </trkpt>
      <trkpt lat="49.51792" lon="3.52508">
        <ele>179</ele>
        <time>2016-05-09T13:47:33.215Z</time>
      </trkpt>
      <trkpt lat="49.518" lon="3.52504">
        <ele>180.9</ele>
        <time>2016-05-09T13:47:41.324Z</time>
      </trkpt>
      <trkpt lat="49.51801" lon="3.52503">
        <ele>181.2</ele>
        <time>2016-05-09T13:47:42.306Z</time>
      </trkpt>
      <trkpt lat="49.51808" lon="3.52497">
        <ele>182.5</ele>
        <time>2016-05-09T13:47:49.277Z</time>
      </trkpt>
      <trkpt lat="49.51809" lon="3.52496">
        <ele>182.9</ele>
        <time>2016-05-09T13:47:50.275Z</time>
      </trkpt>
      <trkpt lat="49.51817" lon="3.5249">
        <ele>186.1</ele>
        <time>2016-05-09T13:48:02.231Z</time>
      </trkpt>
      <trkpt lat="49.51818" lon="3.52489">
        <ele>186.5</ele>
        <time>2016-05-09T13:48:03.219Z</time>
      </trkpt>
      <trkpt lat="49.51826" lon="3.52484">
        <ele>188.5</ele>
        <time>2016-05-09T13:48:11.323Z</time>
      </trkpt>
      <trkpt lat="49.51827" lon="3.52483">
        <ele>189</ele>
        <time>2016-05-09T13:48:12.307Z</time>
      </trkpt>
      <trkpt lat="49.51836" lon="3.52481">
        <ele>190.5</ele>
        <time>2016-05-09T13:48:20.274Z</time>
      </trkpt>
      <trkpt lat="49.51837" lon="3.52481">
        <ele>190.5</ele>
        <time>2016-05-09T13:48:21.278Z</time>
      </trkpt>
      <trkpt lat="49.51844" lon="3.52483">
        <ele>191.1</ele>
        <time>2016-05-09T13:48:29.304Z</time>
      </trkpt>
      <trkpt lat="49.51845" lon="3.52484">
        <ele>191.3</ele>
        <time>2016-05-09T13:48:30.296Z</time>
      </trkpt>
      <trkpt lat="49.51853" lon="3.5249">
        <ele>192</ele>
        <time>2016-05-09T13:48:39.302Z</time>
      </trkpt>
      <trkpt lat="49.51854" lon="3.52491">
        <ele>192.3</ele>
        <time>2016-05-09T13:48:40.291Z</time>
      </trkpt>
      <trkpt lat="49.51861" lon="3.52498">
        <ele>193.6</ele>
        <time>2016-05-09T13:48:49.282Z</time>
      </trkpt>
      <trkpt lat="49.51861" lon="3.52499">
        <ele>193.7</ele>
        <time>2016-05-09T13:48:50.275Z</time>
      </trkpt>
      <trkpt lat="49.51867" lon="3.52509">
        <ele>194.5</ele>
        <time>2016-05-09T13:48:56.228Z</time>
      </trkpt>
      <trkpt lat="49.51867" lon="3.52511">
        <ele>194.8</ele>
        <time>2016-05-09T13:48:57.219Z</time>
      </trkpt>
      <trkpt lat="49.5187" lon="3.52518">
        <ele>195.1</ele>
        <time>2016-05-09T13:49:02.226Z</time>
      </trkpt>
      <trkpt lat="49.5187" lon="3.52519">
        <ele>195.2</ele>
        <time>2016-05-09T13:49:03.216Z</time>
      </trkpt>
      <trkpt lat="49.5187" lon="3.52519">
        <ele>195.2</ele>
        <time>2016-05-09T13:49:03.229Z</time>
      </trkpt>
      <trkpt lat="49.51869" lon="3.52519">
        <ele>195.3</ele>
        <time>2016-05-09T13:49:04.237Z</time>
      </trkpt>
      <trkpt lat="49.51873" lon="3.5253">
        <ele>198.4</ele>
        <time>2016-05-09T13:49:12.242Z</time>
      </trkpt>
      <trkpt lat="49.51873" lon="3.52532">
        <ele>198.8</ele>
        <time>2016-05-09T13:49:13.332Z</time>
      </trkpt>
      <trkpt lat="49.51874" lon="3.52533">
        <ele>199.3</ele>
        <time>2016-05-09T13:49:15.219Z</time>
      </trkpt>
      <trkpt lat="49.51874" lon="3.52534">
        <ele>199.5</ele>
        <time>2016-05-09T13:49:16.218Z</time>
      </trkpt>
      <trkpt lat="49.51874" lon="3.52534">
        <ele>199.3</ele>
        <time>2016-05-09T13:50:12.323Z</time>
      </trkpt>
      <trkpt lat="49.51876" lon="3.5253">
        <ele>201.6</ele>
        <time>2016-05-09T13:50:13.310Z</time>
      </trkpt>
      <trkpt lat="49.51878" lon="3.52537">
        <ele>204.3</ele>
        <time>2016-05-09T13:52:16.253Z</time>
      </trkpt>
      <trkpt lat="49.51878" lon="3.52538">
        <ele>204.3</ele>
        <time>2016-05-09T13:52:17.241Z</time>
      </trkpt>
      <trkpt lat="49.51878" lon="3.52537">
        <ele>204.2</ele>
        <time>2016-05-09T13:52:26.295Z</time>
      </trkpt>
      <trkpt lat="49.51878" lon="3.52537">
        <ele>204.1</ele>
        <time>2016-05-09T13:52:27.273Z</time>
      </trkpt>
      <trkpt lat="49.51878" lon="3.52537">
        <ele>204.1</ele>
        <time>2016-05-09T13:52:27.288Z</time>
      </trkpt>
      <trkpt lat="49.51878" lon="3.52538">
        <ele>204.2</ele>
        <time>2016-05-09T13:52:28.288Z</time>
      </trkpt>
      <trkpt lat="49.51878" lon="3.52538">
        <ele>204.1</ele>
        <time>2016-05-09T13:52:31.348Z</time>
      </trkpt>
      <trkpt lat="49.51878" lon="3.52539">
        <ele>203.9</ele>
        <time>2016-05-09T13:52:32.216Z</time>
      </trkpt>
      <trkpt lat="49.51881" lon="3.52551">
        <ele>203.5</ele>
        <time>2016-05-09T13:52:39.291Z</time>
      </trkpt>
      <trkpt lat="49.51882" lon="3.52553">
        <ele>203.3</ele>
        <time>2016-05-09T13:52:40.281Z</time>
      </trkpt>
      <trkpt lat="49.51886" lon="3.52563">
        <ele>203.1</ele>
        <time>2016-05-09T13:52:47.249Z</time>
      </trkpt>
      <trkpt lat="49.51887" lon="3.52565">
        <ele>203.1</ele>
        <time>2016-05-09T13:52:48.235Z</time>
      </trkpt>
      <trkpt lat="49.5189" lon="3.52577">
        <ele>202.8</ele>
        <time>2016-05-09T13:52:55.334Z</time>
      </trkpt>
      <trkpt lat="49.5189" lon="3.52579">
        <ele>202.7</ele>
        <time>2016-05-09T13:52:56.217Z</time>
      </trkpt>
      <trkpt lat="49.51893" lon="3.52591">
        <ele>202.6</ele>
        <time>2016-05-09T13:53:04.238Z</time>
      </trkpt>
      <trkpt lat="49.51893" lon="3.52593">
        <ele>202.7</ele>
        <time>2016-05-09T13:53:05.216Z</time>
      </trkpt>
      <trkpt lat="49.51895" lon="3.52606">
        <ele>202.2</ele>
        <time>2016-05-09T13:53:12.227Z</time>
      </trkpt>
      <trkpt lat="49.51895" lon="3.52608">
        <ele>202.2</ele>
        <time>2016-05-09T13:53:13.332Z</time>
      </trkpt>
      <trkpt lat="49.51899" lon="3.5262">
        <ele>202.6</ele>
        <time>2016-05-09T13:53:21.314Z</time>
      </trkpt>
      <trkpt lat="49.519" lon="3.52622">
        <ele>202.6</ele>
        <time>2016-05-09T13:53:22.315Z</time>
      </trkpt>
      <trkpt lat="49.51903" lon="3.52632">
        <ele>202.4</ele>
        <time>2016-05-09T13:53:29.553Z</time>
      </trkpt>
      <trkpt lat="49.51904" lon="3.52634">
        <ele>202.4</ele>
        <time>2016-05-09T13:53:30.303Z</time>
      </trkpt>
      <trkpt lat="49.51908" lon="3.52644">
        <ele>202.4</ele>
        <time>2016-05-09T13:53:37.300Z</time>
      </trkpt>
      <trkpt lat="49.51909" lon="3.52646">
        <ele>202.4</ele>
        <time>2016-05-09T13:53:38.265Z</time>
      </trkpt>
      <trkpt lat="49.51915" lon="3.52654">
        <ele>202.4</ele>
        <time>2016-05-09T13:53:45.256Z</time>
      </trkpt>
      <trkpt lat="49.51916" lon="3.52655">
        <ele>202.5</ele>
        <time>2016-05-09T13:53:46.241Z</time>
      </trkpt>
      <trkpt lat="49.51924" lon="3.52661">
        <ele>202.4</ele>
        <time>2016-05-09T13:53:53.330Z</time>
      </trkpt>
      <trkpt lat="49.51924" lon="3.52662">
        <ele>202.3</ele>
        <time>2016-05-09T13:53:54.218Z</time>
      </trkpt>
      <trkpt lat="49.51932" lon="3.52666">
        <ele>202.9</ele>
        <time>2016-05-09T13:54:01.329Z</time>
      </trkpt>
      <trkpt lat="49.51933" lon="3.52667">
        <ele>203</ele>
        <time>2016-05-09T13:54:02.218Z</time>
      </trkpt>
      <trkpt lat="49.51941" lon="3.52672">
        <ele>203.2</ele>
        <time>2016-05-09T13:54:09.308Z</time>
      </trkpt>
      <trkpt lat="49.51942" lon="3.52673">
        <ele>203.2</ele>
        <time>2016-05-09T13:54:10.218Z</time>
      </trkpt>
      <trkpt lat="49.5195" lon="3.52677">
        <ele>203.3</ele>
        <time>2016-05-09T13:54:17.346Z</time>
      </trkpt>
      <trkpt lat="49.51951" lon="3.52678">
        <ele>203.4</ele>
        <time>2016-05-09T13:54:18.304Z</time>
      </trkpt>
      <trkpt lat="49.51959" lon="3.52683">
        <ele>203.8</ele>
        <time>2016-05-09T13:54:25.275Z</time>
      </trkpt>
      <trkpt lat="49.5196" lon="3.52683">
        <ele>203.9</ele>
        <time>2016-05-09T13:54:26.270Z</time>
      </trkpt>
      <trkpt lat="49.51968" lon="3.52688">
        <ele>204.3</ele>
        <time>2016-05-09T13:54:33.247Z</time>
      </trkpt>
      <trkpt lat="49.51969" lon="3.52688">
        <ele>204.2</ele>
        <time>2016-05-09T13:54:34.234Z</time>
      </trkpt>
      <trkpt lat="49.51978" lon="3.5269">
        <ele>204.8</ele>
        <time>2016-05-09T13:54:41.228Z</time>
      </trkpt>
      <trkpt lat="49.51979" lon="3.5269">
        <ele>205</ele>
        <time>2016-05-09T13:54:42.311Z</time>
      </trkpt>
      <trkpt lat="49.51987" lon="3.52693">
        <ele>205.6</ele>
        <time>2016-05-09T13:54:51.290Z</time>
      </trkpt>
      <trkpt lat="49.51988" lon="3.52693">
        <ele>205.6</ele>
        <time>2016-05-09T13:54:52.280Z</time>
      </trkpt>
      <trkpt lat="49.51996" lon="3.52697">
        <ele>206.3</ele>
        <time>2016-05-09T13:55:01.325Z</time>
      </trkpt>
      <trkpt lat="49.51997" lon="3.52698">
        <ele>206.3</ele>
        <time>2016-05-09T13:55:02.215Z</time>
      </trkpt>
      <trkpt lat="49.52006" lon="3.52702">
        <ele>206</ele>
        <time>2016-05-09T13:55:09.297Z</time>
      </trkpt>
      <trkpt lat="49.52007" lon="3.52703">
        <ele>206</ele>
        <time>2016-05-09T13:55:10.298Z</time>
      </trkpt>
      <trkpt lat="49.52015" lon="3.52707">
        <ele>205.7</ele>
        <time>2016-05-09T13:55:17.270Z</time>
      </trkpt>
      <trkpt lat="49.52016" lon="3.52708">
        <ele>205.7</ele>
        <time>2016-05-09T13:55:18.263Z</time>
      </trkpt>
      <trkpt lat="49.52024" lon="3.52712">
        <ele>206.1</ele>
        <time>2016-05-09T13:55:25.267Z</time>
      </trkpt>
      <trkpt lat="49.52025" lon="3.52712">
        <ele>206.2</ele>
        <time>2016-05-09T13:55:26.270Z</time>
      </trkpt>
      <trkpt lat="49.52032" lon="3.52717">
        <ele>206.6</ele>
        <time>2016-05-09T13:55:33.236Z</time>
      </trkpt>
      <trkpt lat="49.52033" lon="3.52718">
        <ele>206.7</ele>
        <time>2016-05-09T13:55:34.226Z</time>
      </trkpt>
      <trkpt lat="49.52041" lon="3.52724">
        <ele>207.3</ele>
        <time>2016-05-09T13:55:41.310Z</time>
      </trkpt>
      <trkpt lat="49.52042" lon="3.52725">
        <ele>207.4</ele>
        <time>2016-05-09T13:55:42.302Z</time>
      </trkpt>
      <trkpt lat="49.5205" lon="3.5273">
        <ele>207.7</ele>
        <time>2016-05-09T13:55:49.278Z</time>
      </trkpt>
      <trkpt lat="49.52051" lon="3.52731">
        <ele>207.8</ele>
        <time>2016-05-09T13:55:50.280Z</time>
      </trkpt>
      <trkpt lat="49.52059" lon="3.52736">
        <ele>208.6</ele>
        <time>2016-05-09T13:55:57.313Z</time>
      </trkpt>
      <trkpt lat="49.5206" lon="3.52737">
        <ele>208.7</ele>
        <time>2016-05-09T13:55:58.305Z</time>
      </trkpt>
      <trkpt lat="49.52068" lon="3.52738">
        <ele>208.9</ele>
        <time>2016-05-09T13:56:06.252Z</time>
      </trkpt>
      <trkpt lat="49.52069" lon="3.52739">
        <ele>208.8</ele>
        <time>2016-05-09T13:56:07.262Z</time>
      </trkpt>
      <trkpt lat="49.52078" lon="3.5274">
        <ele>208.5</ele>
        <time>2016-05-09T13:56:14.309Z</time>
      </trkpt>
      <trkpt lat="49.52079" lon="3.52741">
        <ele>208.4</ele>
        <time>2016-05-09T13:56:15.291Z</time>
      </trkpt>
      <trkpt lat="49.52087" lon="3.52745">
        <ele>208.6</ele>
        <time>2016-05-09T13:56:22.305Z</time>
      </trkpt>
      <trkpt lat="49.52088" lon="3.52746">
        <ele>208.5</ele>
        <time>2016-05-09T13:56:23.296Z</time>
      </trkpt>
      <trkpt lat="49.52096" lon="3.52749">
        <ele>208.8</ele>
        <time>2016-05-09T13:56:30.319Z</time>
      </trkpt>
      <trkpt lat="49.52097" lon="3.5275">
        <ele>208.8</ele>
        <time>2016-05-09T13:56:31.318Z</time>
      </trkpt>
      <trkpt lat="49.52105" lon="3.52753">
        <ele>209.3</ele>
        <time>2016-05-09T13:56:38.281Z</time>
      </trkpt>
      <trkpt lat="49.52106" lon="3.52753">
        <ele>209.4</ele>
        <time>2016-05-09T13:56:39.275Z</time>
      </trkpt>
      <trkpt lat="49.52115" lon="3.52757">
        <ele>210</ele>
        <time>2016-05-09T13:56:46.322Z</time>
      </trkpt>
      <trkpt lat="49.52115" lon="3.52757">
        <ele>210</ele>
        <time>2016-05-09T13:56:47.224Z</time>
      </trkpt>
      <trkpt lat="49.52123" lon="3.5276">
        <ele>210.9</ele>
        <time>2016-05-09T13:56:54.229Z</time>
      </trkpt>
      <trkpt lat="49.52125" lon="3.52761">
        <ele>210.9</ele>
        <time>2016-05-09T13:56:55.340Z</time>
      </trkpt>
      <trkpt lat="49.52133" lon="3.52765">
        <ele>210.8</ele>
        <time>2016-05-09T13:57:02.307Z</time>
      </trkpt>
      <trkpt lat="49.52134" lon="3.52766">
        <ele>210.8</ele>
        <time>2016-05-09T13:57:03.216Z</time>
      </trkpt>
      <trkpt lat="49.52142" lon="3.52771">
        <ele>211.1</ele>
        <time>2016-05-09T13:57:10.300Z</time>
      </trkpt>
      <trkpt lat="49.52143" lon="3.52771">
        <ele>211.2</ele>
        <time>2016-05-09T13:57:11.295Z</time>
      </trkpt>
      <trkpt lat="49.52151" lon="3.52775">
        <ele>211.8</ele>
        <time>2016-05-09T13:57:18.263Z</time>
      </trkpt>
      <trkpt lat="49.52152" lon="3.52776">
        <ele>211.8</ele>
        <time>2016-05-09T13:57:19.264Z</time>
      </trkpt>
      <trkpt lat="49.5216" lon="3.52781">
        <ele>211.7</ele>
        <time>2016-05-09T13:57:26.228Z</time>
      </trkpt>
      <trkpt lat="49.52161" lon="3.52782">
        <ele>211.8</ele>
        <time>2016-05-09T13:57:27.222Z</time>
      </trkpt>
      <trkpt lat="49.52169" lon="3.52788">
        <ele>211.2</ele>
        <time>2016-05-09T13:57:34.320Z</time>
      </trkpt>
      <trkpt lat="49.5217" lon="3.52789">
        <ele>211</ele>
        <time>2016-05-09T13:57:35.217Z</time>
      </trkpt>
      <trkpt lat="49.52177" lon="3.52796">
        <ele>210.5</ele>
        <time>2016-05-09T13:57:42.341Z</time>
      </trkpt>
      <trkpt lat="49.52178" lon="3.52797">
        <ele>210.3</ele>
        <time>2016-05-09T13:57:43.332Z</time>
      </trkpt>
      <trkpt lat="49.52186" lon="3.52803">
        <ele>209.7</ele>
        <time>2016-05-09T13:57:50.297Z</time>
      </trkpt>
      <trkpt lat="49.52187" lon="3.52804">
        <ele>209.7</ele>
        <time>2016-05-09T13:57:51.291Z</time>
      </trkpt>
      <trkpt lat="49.52195" lon="3.52809">
        <ele>209.9</ele>
        <time>2016-05-09T13:57:59.304Z</time>
      </trkpt>
      <trkpt lat="49.52196" lon="3.5281">
        <ele>210.1</ele>
        <time>2016-05-09T13:58:00.298Z</time>
      </trkpt>
      <trkpt lat="49.52204" lon="3.52813">
        <ele>210.6</ele>
        <time>2016-05-09T13:58:07.275Z</time>
      </trkpt>
      <trkpt lat="49.52205" lon="3.52814">
        <ele>210.6</ele>
        <time>2016-05-09T13:58:08.276Z</time>
      </trkpt>
      <trkpt lat="49.52213" lon="3.52817">
        <ele>210.6</ele>
        <time>2016-05-09T13:58:15.296Z</time>
      </trkpt>
      <trkpt lat="49.52214" lon="3.52817">
        <ele>210.8</ele>
        <time>2016-05-09T13:58:16.292Z</time>
      </trkpt>
      <trkpt lat="49.52223" lon="3.52821">
        <ele>210.6</ele>
        <time>2016-05-09T13:58:23.310Z</time>
      </trkpt>
      <trkpt lat="49.52224" lon="3.52822">
        <ele>210.6</ele>
        <time>2016-05-09T13:58:24.298Z</time>
      </trkpt>
      <trkpt lat="49.52232" lon="3.52825">
        <ele>210.1</ele>
        <time>2016-05-09T13:58:31.276Z</time>
      </trkpt>
      <trkpt lat="49.52233" lon="3.52825">
        <ele>210.2</ele>
        <time>2016-05-09T13:58:32.284Z</time>
      </trkpt>
      <trkpt lat="49.52242" lon="3.52828">
        <ele>210.5</ele>
        <time>2016-05-09T13:58:39.294Z</time>
      </trkpt>
      <trkpt lat="49.52243" lon="3.52828">
        <ele>210.6</ele>
        <time>2016-05-09T13:58:40.284Z</time>
      </trkpt>
      <trkpt lat="49.52251" lon="3.5283">
        <ele>211</ele>
        <time>2016-05-09T13:58:50.293Z</time>
      </trkpt>
      <trkpt lat="49.52252" lon="3.5283">
        <ele>210.9</ele>
        <time>2016-05-09T13:58:51.287Z</time>
      </trkpt>
      <trkpt lat="49.52259" lon="3.52838">
        <ele>210.3</ele>
        <time>2016-05-09T13:59:02.290Z</time>
      </trkpt>
      <trkpt lat="49.52259" lon="3.52839">
        <ele>210.3</ele>
        <time>2016-05-09T13:59:03.280Z</time>
      </trkpt>
      <trkpt lat="49.52263" lon="3.52851">
        <ele>210.8</ele>
        <time>2016-05-09T13:59:11.444Z</time>
      </trkpt>
      <trkpt lat="49.52263" lon="3.52853">
        <ele>211</ele>
        <time>2016-05-09T13:59:12.266Z</time>
      </trkpt>
      <trkpt lat="49.52266" lon="3.52864">
        <ele>210.7</ele>
        <time>2016-05-09T13:59:21.253Z</time>
      </trkpt>
      <trkpt lat="49.52267" lon="3.52866">
        <ele>210.7</ele>
        <time>2016-05-09T13:59:22.222Z</time>
      </trkpt>
      <trkpt lat="49.52265" lon="3.52879">
        <ele>209.8</ele>
        <time>2016-05-09T13:59:30.229Z</time>
      </trkpt>
      <trkpt lat="49.52265" lon="3.5288">
        <ele>209.7</ele>
        <time>2016-05-09T13:59:31.263Z</time>
      </trkpt>
      <trkpt lat="49.52265" lon="3.52893">
        <ele>209</ele>
        <time>2016-05-09T13:59:38.226Z</time>
      </trkpt>
      <trkpt lat="49.52265" lon="3.52894">
        <ele>208.9</ele>
        <time>2016-05-09T13:59:39.216Z</time>
      </trkpt>
      <trkpt lat="49.52268" lon="3.52906">
        <ele>207.5</ele>
        <time>2016-05-09T13:59:48.345Z</time>
      </trkpt>
      <trkpt lat="49.52268" lon="3.52907">
        <ele>207.4</ele>
        <time>2016-05-09T13:59:49.333Z</time>
      </trkpt>
      <trkpt lat="49.52271" lon="3.5292">
        <ele>205.4</ele>
        <time>2016-05-09T13:59:58.308Z</time>
      </trkpt>
      <trkpt lat="49.52271" lon="3.52922">
        <ele>205.3</ele>
        <time>2016-05-09T13:59:59.299Z</time>
      </trkpt>
      <trkpt lat="49.52268" lon="3.52934">
        <ele>204.6</ele>
        <time>2016-05-09T14:00:07.286Z</time>
      </trkpt>
      <trkpt lat="49.52268" lon="3.52936">
        <ele>204.6</ele>
        <time>2016-05-09T14:00:08.270Z</time>
      </trkpt>
      <trkpt lat="49.52269" lon="3.52948">
        <ele>204.8</ele>
        <time>2016-05-09T14:00:14.298Z</time>
      </trkpt>
      <trkpt lat="49.52269" lon="3.5295">
        <ele>205</ele>
        <time>2016-05-09T14:00:15.304Z</time>
      </trkpt>
      <trkpt lat="49.52272" lon="3.52962">
        <ele>205</ele>
        <time>2016-05-09T14:00:23.320Z</time>
      </trkpt>
      <trkpt lat="49.52273" lon="3.52963">
        <ele>205.1</ele>
        <time>2016-05-09T14:00:24.302Z</time>
      </trkpt>
      <trkpt lat="49.52278" lon="3.52974">
        <ele>203.6</ele>
        <time>2016-05-09T14:00:36.267Z</time>
      </trkpt>
      <trkpt lat="49.52279" lon="3.52975">
        <ele>203.5</ele>
        <time>2016-05-09T14:00:37.268Z</time>
      </trkpt>
      <trkpt lat="49.52279" lon="3.52976">
        <ele>203.3</ele>
        <time>2016-05-09T14:00:39.297Z</time>
      </trkpt>
      <trkpt lat="49.52279" lon="3.52976">
        <ele>203.2</ele>
        <time>2016-05-09T14:00:40.285Z</time>
      </trkpt>
      <trkpt lat="49.5228" lon="3.52976">
        <ele>202.7</ele>
        <time>2016-05-09T14:00:45.245Z</time>
      </trkpt>
      <trkpt lat="49.5228" lon="3.52975">
        <ele>201.9</ele>
        <time>2016-05-09T14:00:46.234Z</time>
      </trkpt>
      <trkpt lat="49.52279" lon="3.52975">
        <ele>201.5</ele>
        <time>2016-05-09T14:00:48.268Z</time>
      </trkpt>
      <trkpt lat="49.5228" lon="3.52975">
        <ele>201.3</ele>
        <time>2016-05-09T14:00:49.266Z</time>
      </trkpt>
      <trkpt lat="49.5228" lon="3.52975">
        <ele>201.2</ele>
        <time>2016-05-09T14:00:50.310Z</time>
      </trkpt>
      <trkpt lat="49.52279" lon="3.52974">
        <ele>201.1</ele>
        <time>2016-05-09T14:00:51.298Z</time>
      </trkpt>
      <trkpt lat="49.52279" lon="3.52974">
        <ele>201</ele>
        <time>2016-05-09T14:00:53.236Z</time>
      </trkpt>
      <trkpt lat="49.5228" lon="3.52974">
        <ele>201.1</ele>
        <time>2016-05-09T14:00:54.228Z</time>
      </trkpt>
      <trkpt lat="49.5228" lon="3.52974">
        <ele>201</ele>
        <time>2016-05-09T14:00:58.325Z</time>
      </trkpt>
      <trkpt lat="49.52281" lon="3.52973">
        <ele>200.8</ele>
        <time>2016-05-09T14:00:59.218Z</time>
      </trkpt>
      <trkpt lat="49.52281" lon="3.52972">
        <ele>200.9</ele>
        <time>2016-05-09T14:01:01.326Z</time>
      </trkpt>
      <trkpt lat="49.5228" lon="3.52972">
        <ele>201.1</ele>
        <time>2016-05-09T14:01:02.216Z</time>
      </trkpt>
      <trkpt lat="49.52281" lon="3.52971">
        <ele>201</ele>
        <time>2016-05-09T14:01:42.330Z</time>
      </trkpt>
      <trkpt lat="49.52284" lon="3.52971">
        <ele>197</ele>
        <time>2016-05-09T14:01:43.305Z</time>
      </trkpt>
      <trkpt lat="49.52289" lon="3.52982">
        <ele>196.2</ele>
        <time>2016-05-09T14:01:53.230Z</time>
      </trkpt>
      <trkpt lat="49.52289" lon="3.52984">
        <ele>195.8</ele>
        <time>2016-05-09T14:01:54.219Z</time>
      </trkpt>
      <trkpt lat="49.52293" lon="3.52996">
        <ele>195.1</ele>
        <time>2016-05-09T14:02:04.254Z</time>
      </trkpt>
      <trkpt lat="49.52294" lon="3.52996">
        <ele>195</ele>
        <time>2016-05-09T14:02:05.248Z</time>
      </trkpt>
      <trkpt lat="49.523" lon="3.53004">
        <ele>193.7</ele>
        <time>2016-05-09T14:02:14.246Z</time>
      </trkpt>
      <trkpt lat="49.52301" lon="3.53005">
        <ele>193.6</ele>
        <time>2016-05-09T14:02:15.219Z</time>
      </trkpt>
      <trkpt lat="49.52309" lon="3.53009">
        <ele>192.3</ele>
        <time>2016-05-09T14:02:23.330Z</time>
      </trkpt>
      <trkpt lat="49.5231" lon="3.5301">
        <ele>192.1</ele>
        <time>2016-05-09T14:02:24.224Z</time>
      </trkpt>
      <trkpt lat="49.52314" lon="3.5302">
        <ele>191.2</ele>
        <time>2016-05-09T14:02:35.253Z</time>
      </trkpt>
      <trkpt lat="49.52315" lon="3.53022">
        <ele>191.2</ele>
        <time>2016-05-09T14:02:36.256Z</time>
      </trkpt>
      <trkpt lat="49.52315" lon="3.53035">
        <ele>190.5</ele>
        <time>2016-05-09T14:02:45.299Z</time>
      </trkpt>
      <trkpt lat="49.52315" lon="3.53036">
        <ele>190.4</ele>
        <time>2016-05-09T14:02:46.285Z</time>
      </trkpt>
      <trkpt lat="49.52315" lon="3.5305">
        <ele>189.5</ele>
        <time>2016-05-09T14:02:55.474Z</time>
      </trkpt>
      <trkpt lat="49.52316" lon="3.53051">
        <ele>189.5</ele>
        <time>2016-05-09T14:02:56.325Z</time>
      </trkpt>
      <trkpt lat="49.52319" lon="3.53064">
        <ele>189.5</ele>
        <time>2016-05-09T14:03:06.326Z</time>
      </trkpt>
      <trkpt lat="49.52319" lon="3.53066">
        <ele>189.6</ele>
        <time>2016-05-09T14:03:07.316Z</time>
      </trkpt>
      <trkpt lat="49.52321" lon="3.53078">
        <ele>190</ele>
        <time>2016-05-09T14:03:14.299Z</time>
      </trkpt>
      <trkpt lat="49.52321" lon="3.5308">
        <ele>190</ele>
        <time>2016-05-09T14:03:15.285Z</time>
      </trkpt>
      <trkpt lat="49.52323" lon="3.53092">
        <ele>188.6</ele>
        <time>2016-05-09T14:03:23.258Z</time>
      </trkpt>
      <trkpt lat="49.52323" lon="3.53094">
        <ele>188.5</ele>
        <time>2016-05-09T14:03:24.251Z</time>
      </trkpt>
      <trkpt lat="49.52323" lon="3.53107">
        <ele>188.2</ele>
        <time>2016-05-09T14:03:35.258Z</time>
      </trkpt>
      <trkpt lat="49.52323" lon="3.53108">
        <ele>188</ele>
        <time>2016-05-09T14:03:36.248Z</time>
      </trkpt>
      <trkpt lat="49.52324" lon="3.53112">
        <ele>187.6</ele>
        <time>2016-05-09T14:03:39.303Z</time>
      </trkpt>
      <trkpt lat="49.52324" lon="3.53113">
        <ele>187.2</ele>
        <time>2016-05-09T14:03:40.292Z</time>
      </trkpt>
      <trkpt lat="49.52324" lon="3.53113">
        <ele>187.2</ele>
        <time>2016-05-09T14:03:40.311Z</time>
      </trkpt>
      <trkpt lat="49.52324" lon="3.53114">
        <ele>187</ele>
        <time>2016-05-09T14:03:41.306Z</time>
      </trkpt>
      <trkpt lat="49.52326" lon="3.53126">
        <ele>186.1</ele>
        <time>2016-05-09T14:03:49.584Z</time>
      </trkpt>
      <trkpt lat="49.52326" lon="3.53128">
        <ele>185.9</ele>
        <time>2016-05-09T14:03:50.218Z</time>
      </trkpt>
      <trkpt lat="49.52329" lon="3.5314">
        <ele>183.9</ele>
        <time>2016-05-09T14:03:59.311Z</time>
      </trkpt>
      <trkpt lat="49.5233" lon="3.53142">
        <ele>184</ele>
        <time>2016-05-09T14:04:00.303Z</time>
      </trkpt>
      <trkpt lat="49.52336" lon="3.53148">
        <ele>182.4</ele>
        <time>2016-05-09T14:04:04.263Z</time>
      </trkpt>
      <trkpt lat="49.52339" lon="3.53149">
        <ele>181.5</ele>
        <time>2016-05-09T14:04:05.249Z</time>
      </trkpt>
      <trkpt lat="49.52346" lon="3.53153">
        <ele>179.7</ele>
        <time>2016-05-09T14:04:09.300Z</time>
      </trkpt>
      <trkpt lat="49.52348" lon="3.53154">
        <ele>179.4</ele>
        <time>2016-05-09T14:04:10.297Z</time>
      </trkpt>
      <trkpt lat="49.5235" lon="3.53166">
        <ele>177.8</ele>
        <time>2016-05-09T14:04:16.302Z</time>
      </trkpt>
      <trkpt lat="49.5235" lon="3.53167">
        <ele>177.8</ele>
        <time>2016-05-09T14:04:17.296Z</time>
      </trkpt>
      <trkpt lat="49.52357" lon="3.53175">
        <ele>177</ele>
        <time>2016-05-09T14:04:23.250Z</time>
      </trkpt>
      <trkpt lat="49.52357" lon="3.53177">
        <ele>176.6</ele>
        <time>2016-05-09T14:04:24.246Z</time>
      </trkpt>
      <trkpt lat="49.52361" lon="3.53189">
        <ele>176.7</ele>
        <time>2016-05-09T14:04:34.247Z</time>
      </trkpt>
      <trkpt lat="49.5236" lon="3.53189">
        <ele>176.4</ele>
        <time>2016-05-09T14:04:35.242Z</time>
      </trkpt>
      <trkpt lat="49.5236" lon="3.53189">
        <ele>176.4</ele>
        <time>2016-05-09T14:04:36.270Z</time>
      </trkpt>
      <trkpt lat="49.52361" lon="3.53189">
        <ele>176.4</ele>
        <time>2016-05-09T14:04:37.270Z</time>
      </trkpt>
      <trkpt lat="49.52362" lon="3.5319">
        <ele>176.3</ele>
        <time>2016-05-09T14:04:40.358Z</time>
      </trkpt>
      <trkpt lat="49.52361" lon="3.5319">
        <ele>176.1</ele>
        <time>2016-05-09T14:04:41.219Z</time>
      </trkpt>
      <trkpt lat="49.52359" lon="3.53191">
        <ele>176.2</ele>
        <time>2016-05-09T14:05:12.290Z</time>
      </trkpt>
      <trkpt lat="49.52362" lon="3.53191">
        <ele>173.1</ele>
        <time>2016-05-09T14:05:13.297Z</time>
      </trkpt>
      <trkpt lat="49.52362" lon="3.5319">
        <ele>173.1</ele>
        <time>2016-05-09T14:05:14.229Z</time>
      </trkpt>
      <trkpt lat="49.52363" lon="3.53189">
        <ele>173.1</ele>
        <time>2016-05-09T14:05:15.222Z</time>
      </trkpt>
      <trkpt lat="49.52362" lon="3.53189">
        <ele>173.2</ele>
        <time>2016-05-09T14:05:20.271Z</time>
      </trkpt>
      <trkpt lat="49.52362" lon="3.53189">
        <ele>173.8</ele>
        <time>2016-05-09T14:05:21.280Z</time>
      </trkpt>
      <trkpt lat="49.52364" lon="3.53188">
        <ele>173.8</ele>
        <time>2016-05-09T14:05:25.271Z</time>
      </trkpt>
      <trkpt lat="49.52365" lon="3.53187">
        <ele>173.2</ele>
        <time>2016-05-09T14:05:26.257Z</time>
      </trkpt>
      <trkpt lat="49.52364" lon="3.53186">
        <ele>173</ele>
        <time>2016-05-09T14:06:47.219Z</time>
      </trkpt>
      <trkpt lat="49.52367" lon="3.53185">
        <ele>172.5</ele>
        <time>2016-05-09T14:06:48.213Z</time>
      </trkpt>
      <trkpt lat="49.52375" lon="3.53188">
        <ele>172.3</ele>
        <time>2016-05-09T14:06:59.248Z</time>
      </trkpt>
      <trkpt lat="49.52375" lon="3.53187">
        <ele>172.2</ele>
        <time>2016-05-09T14:07:00.244Z</time>
      </trkpt>
      <trkpt lat="49.52376" lon="3.53187">
        <ele>172.1</ele>
        <time>2016-05-09T14:07:09.285Z</time>
      </trkpt>
      <trkpt lat="49.52379" lon="3.53193">
        <ele>170.7</ele>
        <time>2016-05-09T14:07:10.273Z</time>
      </trkpt>
      <trkpt lat="49.52387" lon="3.53196">
        <ele>168.2</ele>
        <time>2016-05-09T14:07:18.274Z</time>
      </trkpt>
      <trkpt lat="49.52388" lon="3.53196">
        <ele>168</ele>
        <time>2016-05-09T14:07:19.259Z</time>
      </trkpt>
      <trkpt lat="49.52395" lon="3.53203">
        <ele>167.3</ele>
        <time>2016-05-09T14:07:27.304Z</time>
      </trkpt>
      <trkpt lat="49.52396" lon="3.53204">
        <ele>167</ele>
        <time>2016-05-09T14:07:28.290Z</time>
      </trkpt>
      <trkpt lat="49.52403" lon="3.53213">
        <ele>165.3</ele>
        <time>2016-05-09T14:07:35.219Z</time>
      </trkpt>
      <trkpt lat="49.52403" lon="3.53213">
        <ele>165.3</ele>
        <time>2016-05-09T14:07:36.218Z</time>
      </trkpt>
      <trkpt lat="49.52409" lon="3.53224">
        <ele>163.7</ele>
        <time>2016-05-09T14:07:45.241Z</time>
      </trkpt>
      <trkpt lat="49.52409" lon="3.53226">
        <ele>163.4</ele>
        <time>2016-05-09T14:07:46.238Z</time>
      </trkpt>
      <trkpt lat="49.52414" lon="3.53237">
        <ele>161.7</ele>
        <time>2016-05-09T14:07:54.227Z</time>
      </trkpt>
      <trkpt lat="49.52415" lon="3.53239">
        <ele>161.6</ele>
        <time>2016-05-09T14:07:55.258Z</time>
      </trkpt>
      <trkpt lat="49.52419" lon="3.53249">
        <ele>160.6</ele>
        <time>2016-05-09T14:08:02.220Z</time>
      </trkpt>
      <trkpt lat="49.5242" lon="3.5325">
        <ele>160.5</ele>
        <time>2016-05-09T14:08:03.212Z</time>
      </trkpt>
      <trkpt lat="49.52425" lon="3.53261">
        <ele>160.2</ele>
        <time>2016-05-09T14:08:10.300Z</time>
      </trkpt>
      <trkpt lat="49.52426" lon="3.53262">
        <ele>160.1</ele>
        <time>2016-05-09T14:08:11.284Z</time>
      </trkpt>
      <trkpt lat="49.52431" lon="3.53273">
        <ele>159.3</ele>
        <time>2016-05-09T14:08:17.261Z</time>
      </trkpt>
      <trkpt lat="49.52432" lon="3.53274">
        <ele>159.2</ele>
        <time>2016-05-09T14:08:18.250Z</time>
      </trkpt>
      <trkpt lat="49.52437" lon="3.53285">
        <ele>158.6</ele>
        <time>2016-05-09T14:08:25.331Z</time>
      </trkpt>
      <trkpt lat="49.52438" lon="3.53287">
        <ele>158.5</ele>
        <time>2016-05-09T14:08:26.212Z</time>
      </trkpt>
      <trkpt lat="49.52442" lon="3.53298">
        <ele>157.5</ele>
        <time>2016-05-09T14:08:32.311Z</time>
      </trkpt>
      <trkpt lat="49.52443" lon="3.53299">
        <ele>157.4</ele>
        <time>2016-05-09T14:08:33.206Z</time>
      </trkpt>
      <trkpt lat="49.52448" lon="3.5331">
        <ele>156.4</ele>
        <time>2016-05-09T14:08:39.270Z</time>
      </trkpt>
      <trkpt lat="49.52448" lon="3.53312">
        <ele>156.4</ele>
        <time>2016-05-09T14:08:40.256Z</time>
      </trkpt>
      <trkpt lat="49.52453" lon="3.53323">
        <ele>155.9</ele>
        <time>2016-05-09T14:08:46.279Z</time>
      </trkpt>
      <trkpt lat="49.52453" lon="3.53325">
        <ele>155.8</ele>
        <time>2016-05-09T14:08:47.263Z</time>
      </trkpt>
      <trkpt lat="49.52457" lon="3.53336">
        <ele>155.2</ele>
        <time>2016-05-09T14:08:53.291Z</time>
      </trkpt>
      <trkpt lat="49.52457" lon="3.53338">
        <ele>154.8</ele>
        <time>2016-05-09T14:08:54.253Z</time>
      </trkpt>
      <trkpt lat="49.52462" lon="3.53349">
        <ele>154</ele>
        <time>2016-05-09T14:09:01.301Z</time>
      </trkpt>
      <trkpt lat="49.52463" lon="3.5335">
        <ele>154.1</ele>
        <time>2016-05-09T14:09:02.281Z</time>
      </trkpt>
      <trkpt lat="49.52468" lon="3.5336">
        <ele>154</ele>
        <time>2016-05-09T14:09:09.281Z</time>
      </trkpt>
      <trkpt lat="49.52469" lon="3.53361">
        <ele>153.8</ele>
        <time>2016-05-09T14:09:10.272Z</time>
      </trkpt>
      <trkpt lat="49.52474" lon="3.53372">
        <ele>153.2</ele>
        <time>2016-05-09T14:09:17.226Z</time>
      </trkpt>
      <trkpt lat="49.52474" lon="3.53374">
        <ele>153.3</ele>
        <time>2016-05-09T14:09:18.226Z</time>
      </trkpt>
      <trkpt lat="49.52479" lon="3.53383">
        <ele>153.4</ele>
        <time>2016-05-09T14:09:24.224Z</time>
      </trkpt>
      <trkpt lat="49.52479" lon="3.53386">
        <ele>153.6</ele>
        <time>2016-05-09T14:09:25.318Z</time>
      </trkpt>
      <trkpt lat="49.52484" lon="3.53396">
        <ele>153.3</ele>
        <time>2016-05-09T14:09:32.288Z</time>
      </trkpt>
      <trkpt lat="49.52485" lon="3.53398">
        <ele>153.4</ele>
        <time>2016-05-09T14:09:33.275Z</time>
      </trkpt>
      <trkpt lat="49.5249" lon="3.53408">
        <ele>154</ele>
        <time>2016-05-09T14:09:40.288Z</time>
      </trkpt>
      <trkpt lat="49.5249" lon="3.5341">
        <ele>154</ele>
        <time>2016-05-09T14:09:41.283Z</time>
      </trkpt>
      <trkpt lat="49.52495" lon="3.53421">
        <ele>153.6</ele>
        <time>2016-05-09T14:09:48.268Z</time>
      </trkpt>
      <trkpt lat="49.52496" lon="3.53422">
        <ele>153.6</ele>
        <time>2016-05-09T14:09:49.254Z</time>
      </trkpt>
      <trkpt lat="49.525" lon="3.53433">
        <ele>153.7</ele>
        <time>2016-05-09T14:09:56.330Z</time>
      </trkpt>
      <trkpt lat="49.52501" lon="3.53434">
        <ele>153.6</ele>
        <time>2016-05-09T14:09:57.283Z</time>
      </trkpt>
      <trkpt lat="49.52505" lon="3.53446">
        <ele>153.5</ele>
        <time>2016-05-09T14:10:04.218Z</time>
      </trkpt>
      <trkpt lat="49.52506" lon="3.53448">
        <ele>153.7</ele>
        <time>2016-05-09T14:10:05.216Z</time>
      </trkpt>
      <trkpt lat="49.52506" lon="3.53461">
        <ele>153.3</ele>
        <time>2016-05-09T14:10:13.317Z</time>
      </trkpt>
      <trkpt lat="49.52505" lon="3.53463">
        <ele>153.2</ele>
        <time>2016-05-09T14:10:14.306Z</time>
      </trkpt>
      <trkpt lat="49.52499" lon="3.53472">
        <ele>151.4</ele>
        <time>2016-05-09T14:10:22.425Z</time>
      </trkpt>
      <trkpt lat="49.52498" lon="3.53473">
        <ele>151.2</ele>
        <time>2016-05-09T14:10:23.291Z</time>
      </trkpt>
      <trkpt lat="49.52491" lon="3.53478">
        <ele>150.9</ele>
        <time>2016-05-09T14:10:29.263Z</time>
      </trkpt>
      <trkpt lat="49.5249" lon="3.53479">
        <ele>151</ele>
        <time>2016-05-09T14:10:30.250Z</time>
      </trkpt>
      <trkpt lat="49.52482" lon="3.53486">
        <ele>149.8</ele>
        <time>2016-05-09T14:10:37.326Z</time>
      </trkpt>
      <trkpt lat="49.52481" lon="3.53487">
        <ele>149.6</ele>
        <time>2016-05-09T14:10:38.208Z</time>
      </trkpt>
      <trkpt lat="49.52474" lon="3.53493">
        <ele>148.2</ele>
        <time>2016-05-09T14:10:45.291Z</time>
      </trkpt>
      <trkpt lat="49.52473" lon="3.53494">
        <ele>148</ele>
        <time>2016-05-09T14:10:46.282Z</time>
      </trkpt>
      <trkpt lat="49.52466" lon="3.535">
        <ele>147.3</ele>
        <time>2016-05-09T14:10:52.293Z</time>
      </trkpt>
      <trkpt lat="49.52465" lon="3.53501">
        <ele>147.1</ele>
        <time>2016-05-09T14:10:53.285Z</time>
      </trkpt>
      <trkpt lat="49.52457" lon="3.53509">
        <ele>146.3</ele>
        <time>2016-05-09T14:11:00.254Z</time>
      </trkpt>
      <trkpt lat="49.52456" lon="3.5351">
        <ele>146.2</ele>
        <time>2016-05-09T14:11:01.254Z</time>
      </trkpt>
      <trkpt lat="49.52449" lon="3.53517">
        <ele>146</ele>
        <time>2016-05-09T14:11:08.228Z</time>
      </trkpt>
      <trkpt lat="49.52448" lon="3.53519">
        <ele>146</ele>
        <time>2016-05-09T14:11:09.226Z</time>
      </trkpt>
      <trkpt lat="49.5244" lon="3.53524">
        <ele>145.9</ele>
        <time>2016-05-09T14:11:16.246Z</time>
      </trkpt>
      <trkpt lat="49.52439" lon="3.53525">
        <ele>145.8</ele>
        <time>2016-05-09T14:11:17.240Z</time>
      </trkpt>
      <trkpt lat="49.52432" lon="3.53529">
        <ele>145.4</ele>
        <time>2016-05-09T14:11:24.371Z</time>
      </trkpt>
      <trkpt lat="49.5243" lon="3.5353">
        <ele>145.5</ele>
        <time>2016-05-09T14:11:25.253Z</time>
      </trkpt>
      <trkpt lat="49.52423" lon="3.53535">
        <ele>144.9</ele>
        <time>2016-05-09T14:11:32.282Z</time>
      </trkpt>
      <trkpt lat="49.52422" lon="3.53536">
        <ele>144.9</ele>
        <time>2016-05-09T14:11:33.279Z</time>
      </trkpt>
      <trkpt lat="49.52415" lon="3.53542">
        <ele>144.3</ele>
        <time>2016-05-09T14:11:39.292Z</time>
      </trkpt>
      <trkpt lat="49.52414" lon="3.53542">
        <ele>144.2</ele>
        <time>2016-05-09T14:11:40.283Z</time>
      </trkpt>
      <trkpt lat="49.52407" lon="3.53548">
        <ele>144.2</ele>
        <time>2016-05-09T14:11:46.242Z</time>
      </trkpt>
      <trkpt lat="49.52405" lon="3.53548">
        <ele>144.3</ele>
        <time>2016-05-09T14:11:47.235Z</time>
      </trkpt>
      <trkpt lat="49.52398" lon="3.53556">
        <ele>145.1</ele>
        <time>2016-05-09T14:11:53.311Z</time>
      </trkpt>
      <trkpt lat="49.52398" lon="3.53557">
        <ele>145.2</ele>
        <time>2016-05-09T14:11:54.211Z</time>
      </trkpt>
      <trkpt lat="49.52391" lon="3.53563">
        <ele>145.5</ele>
        <time>2016-05-09T14:12:00.264Z</time>
      </trkpt>
      <trkpt lat="49.52389" lon="3.53564">
        <ele>145.5</ele>
        <time>2016-05-09T14:12:01.288Z</time>
      </trkpt>
      <trkpt lat="49.52383" lon="3.53572">
        <ele>145.6</ele>
        <time>2016-05-09T14:12:07.263Z</time>
      </trkpt>
      <trkpt lat="49.52382" lon="3.53574">
        <ele>145.6</ele>
        <time>2016-05-09T14:12:08.317Z</time>
      </trkpt>
      <trkpt lat="49.52376" lon="3.53584">
        <ele>146.5</ele>
        <time>2016-05-09T14:12:15.284Z</time>
      </trkpt>
      <trkpt lat="49.52375" lon="3.53585">
        <ele>146.5</ele>
        <time>2016-05-09T14:12:16.284Z</time>
      </trkpt>
      <trkpt lat="49.52371" lon="3.53595">
        <ele>146.2</ele>
        <time>2016-05-09T14:12:22.243Z</time>
      </trkpt>
      <trkpt lat="49.5237" lon="3.53597">
        <ele>146.4</ele>
        <time>2016-05-09T14:12:23.235Z</time>
      </trkpt>
      <trkpt lat="49.52365" lon="3.53608">
        <ele>146.4</ele>
        <time>2016-05-09T14:12:30.229Z</time>
      </trkpt>
      <trkpt lat="49.52364" lon="3.53609">
        <ele>146.4</ele>
        <time>2016-05-09T14:12:31.301Z</time>
      </trkpt>
      <trkpt lat="49.52359" lon="3.5362">
        <ele>146.3</ele>
        <time>2016-05-09T14:12:37.255Z</time>
      </trkpt>
      <trkpt lat="49.52359" lon="3.53621">
        <ele>146.1</ele>
        <time>2016-05-09T14:12:38.258Z</time>
      </trkpt>
      <trkpt lat="49.52355" lon="3.53632">
        <ele>146.2</ele>
        <time>2016-05-09T14:12:44.322Z</time>
      </trkpt>
      <trkpt lat="49.52354" lon="3.53634">
        <ele>146.3</ele>
        <time>2016-05-09T14:12:45.288Z</time>
      </trkpt>
      <trkpt lat="49.5235" lon="3.53645">
        <ele>146.3</ele>
        <time>2016-05-09T14:12:52.366Z</time>
      </trkpt>
      <trkpt lat="49.5235" lon="3.53647">
        <ele>146.3</ele>
        <time>2016-05-09T14:12:53.231Z</time>
      </trkpt>
      <trkpt lat="49.52344" lon="3.53657">
        <ele>146.3</ele>
        <time>2016-05-09T14:12:59.277Z</time>
      </trkpt>
      <trkpt lat="49.52344" lon="3.53659">
        <ele>146.3</ele>
        <time>2016-05-09T14:13:00.267Z</time>
      </trkpt>
      <trkpt lat="49.5234" lon="3.53669">
        <ele>146.3</ele>
        <time>2016-05-09T14:13:07.466Z</time>
      </trkpt>
      <trkpt lat="49.52339" lon="3.53671">
        <ele>146.3</ele>
        <time>2016-05-09T14:13:08.237Z</time>
      </trkpt>
      <trkpt lat="49.52333" lon="3.5368">
        <ele>145.9</ele>
        <time>2016-05-09T14:13:15.336Z</time>
      </trkpt>
      <trkpt lat="49.52332" lon="3.53681">
        <ele>145.7</ele>
        <time>2016-05-09T14:13:16.225Z</time>
      </trkpt>
      <trkpt lat="49.52325" lon="3.53689">
        <ele>145.1</ele>
        <time>2016-05-09T14:13:23.296Z</time>
      </trkpt>
      <trkpt lat="49.52324" lon="3.5369">
        <ele>145.1</ele>
        <time>2016-05-09T14:13:24.387Z</time>
      </trkpt>
      <trkpt lat="49.52317" lon="3.53696">
        <ele>144.8</ele>
        <time>2016-05-09T14:13:31.378Z</time>
      </trkpt>
      <trkpt lat="49.52316" lon="3.53697">
        <ele>144.9</ele>
        <time>2016-05-09T14:13:32.315Z</time>
      </trkpt>
      <trkpt lat="49.52309" lon="3.53701">
        <ele>144.6</ele>
        <time>2016-05-09T14:13:38.302Z</time>
      </trkpt>
      <trkpt lat="49.52308" lon="3.53702">
        <ele>144.5</ele>
        <time>2016-05-09T14:13:39.294Z</time>
      </trkpt>
      <trkpt lat="49.52301" lon="3.53706">
        <ele>144.2</ele>
        <time>2016-05-09T14:13:45.249Z</time>
      </trkpt>
      <trkpt lat="49.52299" lon="3.53707">
        <ele>144.1</ele>
        <time>2016-05-09T14:13:46.255Z</time>
      </trkpt>
      <trkpt lat="49.52292" lon="3.5371">
        <ele>144.2</ele>
        <time>2016-05-09T14:13:53.260Z</time>
      </trkpt>
      <trkpt lat="49.5229" lon="3.5371">
        <ele>144.4</ele>
        <time>2016-05-09T14:13:54.238Z</time>
      </trkpt>
      <trkpt lat="49.52282" lon="3.53713">
        <ele>144.8</ele>
        <time>2016-05-09T14:14:01.363Z</time>
      </trkpt>
      <trkpt lat="49.52281" lon="3.53714">
        <ele>144.8</ele>
        <time>2016-05-09T14:14:02.220Z</time>
      </trkpt>
      <trkpt lat="49.52272" lon="3.53719">
        <ele>144.4</ele>
        <time>2016-05-09T14:14:08.314Z</time>
      </trkpt>
      <trkpt lat="49.52271" lon="3.53719">
        <ele>144.4</ele>
        <time>2016-05-09T14:14:09.280Z</time>
      </trkpt>
      <trkpt lat="49.52263" lon="3.53724">
        <ele>144.1</ele>
        <time>2016-05-09T14:14:17.257Z</time>
      </trkpt>
      <trkpt lat="49.52262" lon="3.53724">
        <ele>144.1</ele>
        <time>2016-05-09T14:14:18.255Z</time>
      </trkpt>
      <trkpt lat="49.52254" lon="3.53727">
        <ele>144.3</ele>
        <time>2016-05-09T14:14:25.289Z</time>
      </trkpt>
      <trkpt lat="49.52253" lon="3.53728">
        <ele>144.2</ele>
        <time>2016-05-09T14:14:26.285Z</time>
      </trkpt>
      <trkpt lat="49.52245" lon="3.53732">
        <ele>143.4</ele>
        <time>2016-05-09T14:14:33.271Z</time>
      </trkpt>
      <trkpt lat="49.52244" lon="3.53733">
        <ele>143.3</ele>
        <time>2016-05-09T14:14:34.246Z</time>
      </trkpt>
      <trkpt lat="49.5224" lon="3.53744">
        <ele>143.2</ele>
        <time>2016-05-09T14:14:42.352Z</time>
      </trkpt>
      <trkpt lat="49.5224" lon="3.53746">
        <ele>143.1</ele>
        <time>2016-05-09T14:14:43.380Z</time>
      </trkpt>
      <trkpt lat="49.52238" lon="3.53758">
        <ele>143.3</ele>
        <time>2016-05-09T14:14:49.317Z</time>
      </trkpt>
      <trkpt lat="49.52237" lon="3.5376">
        <ele>143.2</ele>
        <time>2016-05-09T14:14:50.316Z</time>
      </trkpt>
      <trkpt lat="49.52235" lon="3.53773">
        <ele>143.2</ele>
        <time>2016-05-09T14:14:57.299Z</time>
      </trkpt>
      <trkpt lat="49.52234" lon="3.53775">
        <ele>143.2</ele>
        <time>2016-05-09T14:14:58.299Z</time>
      </trkpt>
      <trkpt lat="49.52233" lon="3.53788">
        <ele>143.8</ele>
        <time>2016-05-09T14:15:05.276Z</time>
      </trkpt>
      <trkpt lat="49.52232" lon="3.5379">
        <ele>143.9</ele>
        <time>2016-05-09T14:15:06.269Z</time>
      </trkpt>
      <trkpt lat="49.52232" lon="3.53803">
        <ele>143.9</ele>
        <time>2016-05-09T14:15:13.378Z</time>
      </trkpt>
      <trkpt lat="49.52233" lon="3.53805">
        <ele>144</ele>
        <time>2016-05-09T14:15:14.237Z</time>
      </trkpt>
      <trkpt lat="49.52237" lon="3.53816">
        <ele>143.9</ele>
        <time>2016-05-09T14:15:21.301Z</time>
      </trkpt>
      <trkpt lat="49.52238" lon="3.53817">
        <ele>143.9</ele>
        <time>2016-05-09T14:15:22.291Z</time>
      </trkpt>
      <trkpt lat="49.52245" lon="3.53825">
        <ele>144.6</ele>
        <time>2016-05-09T14:15:28.252Z</time>
      </trkpt>
      <trkpt lat="49.52245" lon="3.53827">
        <ele>145</ele>
        <time>2016-05-09T14:15:29.247Z</time>
      </trkpt>
      <trkpt lat="49.52247" lon="3.5383">
        <ele>145</ele>
        <time>2016-05-09T14:15:32.301Z</time>
      </trkpt>
      <trkpt lat="49.52248" lon="3.5383">
        <ele>144.8</ele>
        <time>2016-05-09T14:15:33.297Z</time>
      </trkpt>
      <trkpt lat="49.52248" lon="3.5383">
        <ele>144.8</ele>
        <time>2016-05-09T14:15:33.318Z</time>
      </trkpt>
      <trkpt lat="49.52248" lon="3.53831">
        <ele>144.5</ele>
        <time>2016-05-09T14:15:34.303Z</time>
      </trkpt>
      <trkpt lat="49.52253" lon="3.5384">
        <ele>144.4</ele>
        <time>2016-05-09T14:15:42.308Z</time>
      </trkpt>
      <trkpt lat="49.52254" lon="3.53842">
        <ele>144.2</ele>
        <time>2016-05-09T14:15:43.293Z</time>
      </trkpt>
      <trkpt lat="49.5226" lon="3.53851">
        <ele>144</ele>
        <time>2016-05-09T14:15:50.314Z</time>
      </trkpt>
      <trkpt lat="49.52261" lon="3.53852">
        <ele>144.1</ele>
        <time>2016-05-09T14:15:51.302Z</time>
      </trkpt>
      <trkpt lat="49.52266" lon="3.53862">
        <ele>145</ele>
        <time>2016-05-09T14:15:57.301Z</time>
      </trkpt>
      <trkpt lat="49.52266" lon="3.53864">
        <ele>145</ele>
        <time>2016-05-09T14:15:58.304Z</time>
      </trkpt>
      <trkpt lat="49.52271" lon="3.53874">
        <ele>145</ele>
        <time>2016-05-09T14:16:05.338Z</time>
      </trkpt>
      <trkpt lat="49.52272" lon="3.53875">
        <ele>145</ele>
        <time>2016-05-09T14:16:06.327Z</time>
      </trkpt>
      <trkpt lat="49.52278" lon="3.53884">
        <ele>145.3</ele>
        <time>2016-05-09T14:16:13.300Z</time>
      </trkpt>
      <trkpt lat="49.52279" lon="3.53885">
        <ele>145.5</ele>
        <time>2016-05-09T14:16:14.288Z</time>
      </trkpt>
      <trkpt lat="49.52287" lon="3.53892">
        <ele>145.6</ele>
        <time>2016-05-09T14:16:21.256Z</time>
      </trkpt>
      <trkpt lat="49.52287" lon="3.53894">
        <ele>145.8</ele>
        <time>2016-05-09T14:16:22.250Z</time>
      </trkpt>
      <trkpt lat="49.52294" lon="3.53901">
        <ele>146.2</ele>
        <time>2016-05-09T14:16:30.345Z</time>
      </trkpt>
      <trkpt lat="49.52295" lon="3.53902">
        <ele>146.3</ele>
        <time>2016-05-09T14:16:31.341Z</time>
      </trkpt>
      <trkpt lat="49.52302" lon="3.53911">
        <ele>146.7</ele>
        <time>2016-05-09T14:16:38.309Z</time>
      </trkpt>
      <trkpt lat="49.52302" lon="3.53912">
        <ele>146.8</ele>
        <time>2016-05-09T14:16:39.298Z</time>
      </trkpt>
      <trkpt lat="49.52308" lon="3.53922">
        <ele>147.1</ele>
        <time>2016-05-09T14:16:46.270Z</time>
      </trkpt>
      <trkpt lat="49.52309" lon="3.53923">
        <ele>147.1</ele>
        <time>2016-05-09T14:16:47.257Z</time>
      </trkpt>
      <trkpt lat="49.52316" lon="3.53932">
        <ele>147.6</ele>
        <time>2016-05-09T14:16:55.339Z</time>
      </trkpt>
      <trkpt lat="49.52317" lon="3.53933">
        <ele>147.6</ele>
        <time>2016-05-09T14:16:56.238Z</time>
      </trkpt>
      <trkpt lat="49.52325" lon="3.53932">
        <ele>148.1</ele>
        <time>2016-05-09T14:17:02.310Z</time>
      </trkpt>
      <trkpt lat="49.52327" lon="3.53932">
        <ele>148.2</ele>
        <time>2016-05-09T14:17:03.304Z</time>
      </trkpt>
      <trkpt lat="49.52335" lon="3.53927">
        <ele>149.5</ele>
        <time>2016-05-09T14:17:10.316Z</time>
      </trkpt>
      <trkpt lat="49.52336" lon="3.53926">
        <ele>149.4</ele>
        <time>2016-05-09T14:17:11.310Z</time>
      </trkpt>
      <trkpt lat="49.52342" lon="3.53918">
        <ele>150.3</ele>
        <time>2016-05-09T14:17:19.318Z</time>
      </trkpt>
      <trkpt lat="49.52343" lon="3.53917">
        <ele>150.4</ele>
        <time>2016-05-09T14:17:20.312Z</time>
      </trkpt>
      <trkpt lat="49.52349" lon="3.53907">
        <ele>152.1</ele>
        <time>2016-05-09T14:17:28.319Z</time>
      </trkpt>
      <trkpt lat="49.5235" lon="3.53906">
        <ele>152.3</ele>
        <time>2016-05-09T14:17:29.312Z</time>
      </trkpt>
      <trkpt lat="49.52356" lon="3.53898">
        <ele>152.4</ele>
        <time>2016-05-09T14:17:36.271Z</time>
      </trkpt>
      <trkpt lat="49.52357" lon="3.53897">
        <ele>152.5</ele>
        <time>2016-05-09T14:17:37.281Z</time>
      </trkpt>
      <trkpt lat="49.52364" lon="3.53888">
        <ele>153</ele>
        <time>2016-05-09T14:17:45.255Z</time>
      </trkpt>
      <trkpt lat="49.52365" lon="3.53887">
        <ele>153</ele>
        <time>2016-05-09T14:17:46.257Z</time>
      </trkpt>
      <trkpt lat="49.52372" lon="3.5388">
        <ele>153.1</ele>
        <time>2016-05-09T14:17:53.252Z</time>
      </trkpt>
      <trkpt lat="49.52372" lon="3.53879">
        <ele>153.3</ele>
        <time>2016-05-09T14:17:54.252Z</time>
      </trkpt>
      <trkpt lat="49.5238" lon="3.53872">
        <ele>153.1</ele>
        <time>2016-05-09T14:18:02.300Z</time>
      </trkpt>
      <trkpt lat="49.52381" lon="3.53871">
        <ele>153.1</ele>
        <time>2016-05-09T14:18:03.287Z</time>
      </trkpt>
      <trkpt lat="49.52388" lon="3.53863">
        <ele>153.5</ele>
        <time>2016-05-09T14:18:11.335Z</time>
      </trkpt>
      <trkpt lat="49.52389" lon="3.53862">
        <ele>153.5</ele>
        <time>2016-05-09T14:18:12.238Z</time>
      </trkpt>
      <trkpt lat="49.52397" lon="3.53856">
        <ele>153.9</ele>
        <time>2016-05-09T14:18:20.298Z</time>
      </trkpt>
      <trkpt lat="49.52398" lon="3.53855">
        <ele>153.9</ele>
        <time>2016-05-09T14:18:21.289Z</time>
      </trkpt>
      <trkpt lat="49.52405" lon="3.53849">
        <ele>154.3</ele>
        <time>2016-05-09T14:18:28.272Z</time>
      </trkpt>
      <trkpt lat="49.52406" lon="3.53847">
        <ele>154.5</ele>
        <time>2016-05-09T14:18:29.262Z</time>
      </trkpt>
      <trkpt lat="49.52413" lon="3.53842">
        <ele>155.3</ele>
        <time>2016-05-09T14:18:35.348Z</time>
      </trkpt>
      <trkpt lat="49.52414" lon="3.53841">
        <ele>155.3</ele>
        <time>2016-05-09T14:18:36.245Z</time>
      </trkpt>
      <trkpt lat="49.52422" lon="3.53834">
        <ele>155.3</ele>
        <time>2016-05-09T14:18:43.356Z</time>
      </trkpt>
      <trkpt lat="49.52423" lon="3.53832">
        <ele>155.2</ele>
        <time>2016-05-09T14:18:44.239Z</time>
      </trkpt>
      <trkpt lat="49.52427" lon="3.53825">
        <ele>154.7</ele>
        <time>2016-05-09T14:18:50.323Z</time>
      </trkpt>
      <trkpt lat="49.52427" lon="3.53825">
        <ele>154.7</ele>
        <time>2016-05-09T14:18:51.315Z</time>
      </trkpt>
      <trkpt lat="49.52428" lon="3.53825">
        <ele>154.8</ele>
        <time>2016-05-09T14:18:54.252Z</time>
      </trkpt>
      <trkpt lat="49.52427" lon="3.53824">
        <ele>154.8</ele>
        <time>2016-05-09T14:18:55.282Z</time>
      </trkpt>
      <trkpt lat="49.52425" lon="3.53824">
        <ele>154.8</ele>
        <time>2016-05-09T14:18:59.340Z</time>
      </trkpt>
      <trkpt lat="49.52425" lon="3.53824">
        <ele>155</ele>
        <time>2016-05-09T14:19:00.325Z</time>
      </trkpt>
      <trkpt lat="49.52425" lon="3.53824">
        <ele>155</ele>
        <time>2016-05-09T14:19:00.344Z</time>
      </trkpt>
      <trkpt lat="49.52426" lon="3.53824">
        <ele>155.1</ele>
        <time>2016-05-09T14:19:01.334Z</time>
      </trkpt>
      <trkpt lat="49.52433" lon="3.53818">
        <ele>154.6</ele>
        <time>2016-05-09T14:19:10.336Z</time>
      </trkpt>
      <trkpt lat="49.52434" lon="3.53816">
        <ele>154.7</ele>
        <time>2016-05-09T14:19:11.325Z</time>
      </trkpt>
      <trkpt lat="49.52438" lon="3.53808">
        <ele>155.2</ele>
        <time>2016-05-09T14:19:18.254Z</time>
      </trkpt>
      <trkpt lat="49.52438" lon="3.53807">
        <ele>155.1</ele>
        <time>2016-05-09T14:19:19.283Z</time>
      </trkpt>
      <trkpt lat="49.52438" lon="3.53807">
        <ele>155.1</ele>
        <time>2016-05-09T14:19:19.303Z</time>
      </trkpt>
      <trkpt lat="49.52439" lon="3.53807">
        <ele>155.1</ele>
        <time>2016-05-09T14:19:20.290Z</time>
      </trkpt>
      <trkpt lat="49.52444" lon="3.53797">
        <ele>154.7</ele>
        <time>2016-05-09T14:19:27.348Z</time>
      </trkpt>
      <trkpt lat="49.52445" lon="3.53795">
        <ele>154.8</ele>
        <time>2016-05-09T14:19:28.310Z</time>
      </trkpt>
      <trkpt lat="49.52449" lon="3.53784">
        <ele>155.2</ele>
        <time>2016-05-09T14:19:34.247Z</time>
      </trkpt>
      <trkpt lat="49.5245" lon="3.53782">
        <ele>155</ele>
        <time>2016-05-09T14:19:35.237Z</time>
      </trkpt>
      <trkpt lat="49.52452" lon="3.5377">
        <ele>154.7</ele>
        <time>2016-05-09T14:19:45.250Z</time>
      </trkpt>
      <trkpt lat="49.52452" lon="3.53769">
        <ele>154.9</ele>
        <time>2016-05-09T14:19:46.238Z</time>
      </trkpt>
      <trkpt lat="49.5246" lon="3.53767">
        <ele>155.3</ele>
        <time>2016-05-09T14:19:55.288Z</time>
      </trkpt>
      <trkpt lat="49.5246" lon="3.53767">
        <ele>155.4</ele>
        <time>2016-05-09T14:19:56.292Z</time>
      </trkpt>
      <trkpt lat="49.5246" lon="3.53767">
        <ele>155.5</ele>
        <time>2016-05-09T14:20:04.322Z</time>
      </trkpt>
      <trkpt lat="49.52462" lon="3.53767">
        <ele>154.9</ele>
        <time>2016-05-09T14:20:05.313Z</time>
      </trkpt>
      <trkpt lat="49.52464" lon="3.53767">
        <ele>154.9</ele>
        <time>2016-05-09T14:20:09.251Z</time>
      </trkpt>
      <trkpt lat="49.52464" lon="3.53767">
        <ele>154.9</ele>
        <time>2016-05-09T14:20:10.256Z</time>
      </trkpt>
      <trkpt lat="49.52465" lon="3.53767">
        <ele>154.8</ele>
        <time>2016-05-09T14:20:23.270Z</time>
      </trkpt>
      <trkpt lat="49.52466" lon="3.53765">
        <ele>154.8</ele>
        <time>2016-05-09T14:20:24.260Z</time>
      </trkpt>
      <trkpt lat="49.5247" lon="3.53763">
        <ele>154.8</ele>
        <time>2016-05-09T14:20:31.337Z</time>
      </trkpt>
      <trkpt lat="49.5247" lon="3.53763">
        <ele>154.6</ele>
        <time>2016-05-09T14:20:32.242Z</time>
      </trkpt>
      <trkpt lat="49.5247" lon="3.53763">
        <ele>154.8</ele>
        <time>2016-05-09T14:20:33.244Z</time>
      </trkpt>
      <trkpt lat="49.5247" lon="3.53763">
        <ele>154.8</ele>
        <time>2016-05-09T14:20:34.242Z</time>
      </trkpt>
      <trkpt lat="49.52479" lon="3.53765">
        <ele>154.4</ele>
        <time>2016-05-09T14:20:46.267Z</time>
      </trkpt>
      <trkpt lat="49.5248" lon="3.53766">
        <ele>154.4</ele>
        <time>2016-05-09T14:20:47.264Z</time>
      </trkpt>
      <trkpt lat="49.52488" lon="3.53768">
        <ele>153.9</ele>
        <time>2016-05-09T14:20:54.344Z</time>
      </trkpt>
      <trkpt lat="49.52489" lon="3.53768">
        <ele>153.9</ele>
        <time>2016-05-09T14:20:55.336Z</time>
      </trkpt>
      <trkpt lat="49.52498" lon="3.5377">
        <ele>153.6</ele>
        <time>2016-05-09T14:21:04.260Z</time>
      </trkpt>
      <trkpt lat="49.52499" lon="3.5377">
        <ele>153.7</ele>
        <time>2016-05-09T14:21:05.236Z</time>
      </trkpt>
      <trkpt lat="49.52506" lon="3.53772">
        <ele>154.5</ele>
        <time>2016-05-09T14:21:13.339Z</time>
      </trkpt>
      <trkpt lat="49.52508" lon="3.53773">
        <ele>154.5</ele>
        <time>2016-05-09T14:21:14.238Z</time>
      </trkpt>
      <trkpt lat="49.52516" lon="3.53777">
        <ele>155.1</ele>
        <time>2016-05-09T14:21:22.321Z</time>
      </trkpt>
      <trkpt lat="49.52516" lon="3.53778">
        <ele>155.1</ele>
        <time>2016-05-09T14:21:23.318Z</time>
      </trkpt>
      <trkpt lat="49.52522" lon="3.53784">
        <ele>155.3</ele>
        <time>2016-05-09T14:21:34.443Z</time>
      </trkpt>
      <trkpt lat="49.52524" lon="3.53784">
        <ele>155.3</ele>
        <time>2016-05-09T14:21:35.226Z</time>
      </trkpt>
      <trkpt lat="49.52532" lon="3.53779">
        <ele>155.4</ele>
        <time>2016-05-09T14:21:40.314Z</time>
      </trkpt>
      <trkpt lat="49.52533" lon="3.53779">
        <ele>155.5</ele>
        <time>2016-05-09T14:21:41.300Z</time>
      </trkpt>
      <trkpt lat="49.52541" lon="3.53779">
        <ele>155.8</ele>
        <time>2016-05-09T14:21:46.270Z</time>
      </trkpt>
      <trkpt lat="49.52543" lon="3.5378">
        <ele>155.9</ele>
        <time>2016-05-09T14:21:47.263Z</time>
      </trkpt>
      <trkpt lat="49.52551" lon="3.53782">
        <ele>155.9</ele>
        <time>2016-05-09T14:21:53.341Z</time>
      </trkpt>
      <trkpt lat="49.52552" lon="3.53783">
        <ele>155.8</ele>
        <time>2016-05-09T14:21:54.230Z</time>
      </trkpt>
      <trkpt lat="49.5256" lon="3.53786">
        <ele>155.9</ele>
        <time>2016-05-09T14:22:03.248Z</time>
      </trkpt>
      <trkpt lat="49.52561" lon="3.53787">
        <ele>156</ele>
        <time>2016-05-09T14:22:04.242Z</time>
      </trkpt>
      <trkpt lat="49.52569" lon="3.53792">
        <ele>155.9</ele>
        <time>2016-05-09T14:22:10.324Z</time>
      </trkpt>
      <trkpt lat="49.5257" lon="3.53793">
        <ele>156.1</ele>
        <time>2016-05-09T14:22:11.314Z</time>
      </trkpt>
      <trkpt lat="49.52575" lon="3.53801">
        <ele>155.8</ele>
        <time>2016-05-09T14:22:17.299Z</time>
      </trkpt>
      <trkpt lat="49.52576" lon="3.53803">
        <ele>155.6</ele>
        <time>2016-05-09T14:22:18.282Z</time>
      </trkpt>
      <trkpt lat="49.52583" lon="3.53811">
        <ele>156</ele>
        <time>2016-05-09T14:22:26.321Z</time>
      </trkpt>
      <trkpt lat="49.52583" lon="3.53812">
        <ele>156.2</ele>
        <time>2016-05-09T14:22:27.311Z</time>
      </trkpt>
      <trkpt lat="49.5259" lon="3.53819">
        <ele>157</ele>
        <time>2016-05-09T14:22:34.251Z</time>
      </trkpt>
      <trkpt lat="49.52591" lon="3.5382">
        <ele>156.9</ele>
        <time>2016-05-09T14:22:35.245Z</time>
      </trkpt>
      <trkpt lat="49.52598" lon="3.53829">
        <ele>157.2</ele>
        <time>2016-05-09T14:22:45.254Z</time>
      </trkpt>
      <trkpt lat="49.52598" lon="3.5383">
        <ele>157.2</ele>
        <time>2016-05-09T14:22:46.254Z</time>
      </trkpt>
      <trkpt lat="49.52604" lon="3.53832">
        <ele>157.3</ele>
        <time>2016-05-09T14:22:52.325Z</time>
      </trkpt>
      <trkpt lat="49.52604" lon="3.53832">
        <ele>157.2</ele>
        <time>2016-05-09T14:22:53.318Z</time>
      </trkpt>
      <trkpt lat="49.52605" lon="3.53833">
        <ele>157.2</ele>
        <time>2016-05-09T14:22:56.253Z</time>
      </trkpt>
      <trkpt lat="49.52607" lon="3.53834">
        <ele>157.2</ele>
        <time>2016-05-09T14:22:57.250Z</time>
      </trkpt>
      <trkpt lat="49.52615" lon="3.5384">
        <ele>156.6</ele>
        <time>2016-05-09T14:23:03.354Z</time>
      </trkpt>
      <trkpt lat="49.52616" lon="3.5384">
        <ele>156.6</ele>
        <time>2016-05-09T14:23:04.241Z</time>
      </trkpt>
      <trkpt lat="49.52625" lon="3.53844">
        <ele>156.5</ele>
        <time>2016-05-09T14:23:10.327Z</time>
      </trkpt>
      <trkpt lat="49.52627" lon="3.53845">
        <ele>156.5</ele>
        <time>2016-05-09T14:23:11.319Z</time>
      </trkpt>
      <trkpt lat="49.52634" lon="3.5385">
        <ele>154.8</ele>
        <time>2016-05-09T14:23:20.312Z</time>
      </trkpt>
      <trkpt lat="49.52635" lon="3.53851">
        <ele>154.8</ele>
        <time>2016-05-09T14:23:21.306Z</time>
      </trkpt>
      <trkpt lat="49.5264" lon="3.53862">
        <ele>152.6</ele>
        <time>2016-05-09T14:23:30.349Z</time>
      </trkpt>
      <trkpt lat="49.5264" lon="3.53863">
        <ele>152.5</ele>
        <time>2016-05-09T14:23:31.334Z</time>
      </trkpt>
      <trkpt lat="49.52645" lon="3.53874">
        <ele>151.6</ele>
        <time>2016-05-09T14:23:39.314Z</time>
      </trkpt>
      <trkpt lat="49.52645" lon="3.53875">
        <ele>151.4</ele>
        <time>2016-05-09T14:23:40.296Z</time>
      </trkpt>
      <trkpt lat="49.52652" lon="3.53882">
        <ele>150.3</ele>
        <time>2016-05-09T14:23:50.300Z</time>
      </trkpt>
      <trkpt lat="49.52653" lon="3.53882">
        <ele>150.3</ele>
        <time>2016-05-09T14:23:51.283Z</time>
      </trkpt>
      <trkpt lat="49.52657" lon="3.53885">
        <ele>150.4</ele>
        <time>2016-05-09T14:23:56.300Z</time>
      </trkpt>
      <trkpt lat="49.52658" lon="3.53886">
        <ele>150.7</ele>
        <time>2016-05-09T14:23:57.289Z</time>
      </trkpt>
      <trkpt lat="49.52658" lon="3.53886">
        <ele>150.7</ele>
        <time>2016-05-09T14:23:57.309Z</time>
      </trkpt>
      <trkpt lat="49.52659" lon="3.53886">
        <ele>150.9</ele>
        <time>2016-05-09T14:23:58.307Z</time>
      </trkpt>
      <trkpt lat="49.52667" lon="3.53888">
        <ele>150.9</ele>
        <time>2016-05-09T14:24:03.252Z</time>
      </trkpt>
      <trkpt lat="49.52669" lon="3.53888">
        <ele>150.7</ele>
        <time>2016-05-09T14:24:04.248Z</time>
      </trkpt>
      <trkpt lat="49.52678" lon="3.53889">
        <ele>150.2</ele>
        <time>2016-05-09T14:24:09.317Z</time>
      </trkpt>
      <trkpt lat="49.52679" lon="3.53889">
        <ele>150</ele>
        <time>2016-05-09T14:24:10.308Z</time>
      </trkpt>
      <trkpt lat="49.52687" lon="3.53887">
        <ele>149.4</ele>
        <time>2016-05-09T14:24:16.329Z</time>
      </trkpt>
      <trkpt lat="49.52689" lon="3.53887">
        <ele>149.5</ele>
        <time>2016-05-09T14:24:17.320Z</time>
      </trkpt>
      <trkpt lat="49.52697" lon="3.53886">
        <ele>149.3</ele>
        <time>2016-05-09T14:24:24.294Z</time>
      </trkpt>
      <trkpt lat="49.52699" lon="3.53886">
        <ele>149.2</ele>
        <time>2016-05-09T14:24:25.285Z</time>
      </trkpt>
      <trkpt lat="49.52707" lon="3.53882">
        <ele>148.7</ele>
        <time>2016-05-09T14:24:33.239Z</time>
      </trkpt>
      <trkpt lat="49.52708" lon="3.53882">
        <ele>148.6</ele>
        <time>2016-05-09T14:24:34.223Z</time>
      </trkpt>
      <trkpt lat="49.52716" lon="3.53882">
        <ele>148.2</ele>
        <time>2016-05-09T14:24:40.315Z</time>
      </trkpt>
      <trkpt lat="49.52717" lon="3.53883">
        <ele>148.1</ele>
        <time>2016-05-09T14:24:41.305Z</time>
      </trkpt>
      <trkpt lat="49.52726" lon="3.53886">
        <ele>146.4</ele>
        <time>2016-05-09T14:24:47.270Z</time>
      </trkpt>
      <trkpt lat="49.52727" lon="3.53887">
        <ele>146.2</ele>
        <time>2016-05-09T14:24:48.262Z</time>
      </trkpt>
      <trkpt lat="49.52733" lon="3.53896">
        <ele>144.3</ele>
        <time>2016-05-09T14:24:55.357Z</time>
      </trkpt>
      <trkpt lat="49.52734" lon="3.53898">
        <ele>144.2</ele>
        <time>2016-05-09T14:24:56.240Z</time>
      </trkpt>
      <trkpt lat="49.52739" lon="3.53908">
        <ele>143.6</ele>
        <time>2016-05-09T14:25:03.341Z</time>
      </trkpt>
      <trkpt lat="49.52739" lon="3.5391">
        <ele>143.5</ele>
        <time>2016-05-09T14:25:04.235Z</time>
      </trkpt>
      <trkpt lat="49.5274" lon="3.53922">
        <ele>142.2</ele>
        <time>2016-05-09T14:25:11.359Z</time>
      </trkpt>
      <trkpt lat="49.5274" lon="3.53923">
        <ele>142</ele>
        <time>2016-05-09T14:25:12.335Z</time>
      </trkpt>
      <trkpt lat="49.52743" lon="3.53935">
        <ele>141.7</ele>
        <time>2016-05-09T14:25:19.304Z</time>
      </trkpt>
      <trkpt lat="49.52743" lon="3.53937">
        <ele>141.8</ele>
        <time>2016-05-09T14:25:20.295Z</time>
      </trkpt>
      <trkpt lat="49.52743" lon="3.53949">
        <ele>141.4</ele>
        <time>2016-05-09T14:25:26.309Z</time>
      </trkpt>
      <trkpt lat="49.52743" lon="3.53951">
        <ele>141.2</ele>
        <time>2016-05-09T14:25:27.302Z</time>
      </trkpt>
      <trkpt lat="49.52745" lon="3.53962">
        <ele>141.5</ele>
        <time>2016-05-09T14:25:33.328Z</time>
      </trkpt>
      <trkpt lat="49.52745" lon="3.53964">
        <ele>141.1</ele>
        <time>2016-05-09T14:25:34.314Z</time>
      </trkpt>
      <trkpt lat="49.52747" lon="3.53977">
        <ele>140.5</ele>
        <time>2016-05-09T14:25:41.336Z</time>
      </trkpt>
      <trkpt lat="49.52747" lon="3.53979">
        <ele>140.3</ele>
        <time>2016-05-09T14:25:42.322Z</time>
      </trkpt>
      <trkpt lat="49.52748" lon="3.53991">
        <ele>139.8</ele>
        <time>2016-05-09T14:25:48.288Z</time>
      </trkpt>
      <trkpt lat="49.52748" lon="3.53992">
        <ele>139.8</ele>
        <time>2016-05-09T14:25:49.288Z</time>
      </trkpt>
      <trkpt lat="49.52749" lon="3.54006">
        <ele>139</ele>
        <time>2016-05-09T14:25:56.309Z</time>
      </trkpt>
      <trkpt lat="49.52749" lon="3.54008">
        <ele>139</ele>
        <time>2016-05-09T14:25:57.302Z</time>
      </trkpt>
      <trkpt lat="49.52749" lon="3.54021">
        <ele>138.6</ele>
        <time>2016-05-09T14:26:04.254Z</time>
      </trkpt>
      <trkpt lat="49.52749" lon="3.54023">
        <ele>138.6</ele>
        <time>2016-05-09T14:26:05.253Z</time>
      </trkpt>
      <trkpt lat="49.5275" lon="3.54036">
        <ele>138.6</ele>
        <time>2016-05-09T14:26:12.264Z</time>
      </trkpt>
      <trkpt lat="49.5275" lon="3.54038">
        <ele>138.8</ele>
        <time>2016-05-09T14:26:13.267Z</time>
      </trkpt>
      <trkpt lat="49.52753" lon="3.5405">
        <ele>138.2</ele>
        <time>2016-05-09T14:26:21.267Z</time>
      </trkpt>
      <trkpt lat="49.52754" lon="3.54051">
        <ele>138.1</ele>
        <time>2016-05-09T14:26:22.261Z</time>
      </trkpt>
      <trkpt lat="49.52762" lon="3.54056">
        <ele>138</ele>
        <time>2016-05-09T14:26:30.248Z</time>
      </trkpt>
      <trkpt lat="49.52763" lon="3.54056">
        <ele>137.8</ele>
        <time>2016-05-09T14:26:31.371Z</time>
      </trkpt>
      <trkpt lat="49.52769" lon="3.54066">
        <ele>136.4</ele>
        <time>2016-05-09T14:26:39.317Z</time>
      </trkpt>
      <trkpt lat="49.52769" lon="3.54067">
        <ele>135.9</ele>
        <time>2016-05-09T14:26:40.306Z</time>
      </trkpt>
      <trkpt lat="49.52775" lon="3.54074">
        <ele>135.1</ele>
        <time>2016-05-09T14:26:47.278Z</time>
      </trkpt>
      <trkpt lat="49.52777" lon="3.54074">
        <ele>134.8</ele>
        <time>2016-05-09T14:26:48.268Z</time>
      </trkpt>
      <trkpt lat="49.52785" lon="3.54072">
        <ele>133.5</ele>
        <time>2016-05-09T14:26:54.262Z</time>
      </trkpt>
      <trkpt lat="49.52786" lon="3.54071">
        <ele>133.4</ele>
        <time>2016-05-09T14:26:55.353Z</time>
      </trkpt>
      <trkpt lat="49.52795" lon="3.54069">
        <ele>133</ele>
        <time>2016-05-09T14:27:01.311Z</time>
      </trkpt>
      <trkpt lat="49.52796" lon="3.54069">
        <ele>132.9</ele>
        <time>2016-05-09T14:27:02.312Z</time>
      </trkpt>
      <trkpt lat="49.52804" lon="3.54067">
        <ele>133.1</ele>
        <time>2016-05-09T14:27:09.305Z</time>
      </trkpt>
      <trkpt lat="49.52805" lon="3.54067">
        <ele>133.1</ele>
        <time>2016-05-09T14:27:10.293Z</time>
      </trkpt>
      <trkpt lat="49.52813" lon="3.54064">
        <ele>133</ele>
        <time>2016-05-09T14:27:16.279Z</time>
      </trkpt>
      <trkpt lat="49.52815" lon="3.54064">
        <ele>132.9</ele>
        <time>2016-05-09T14:27:17.280Z</time>
      </trkpt>
      <trkpt lat="49.52824" lon="3.54064">
        <ele>133.1</ele>
        <time>2016-05-09T14:27:29.348Z</time>
      </trkpt>
      <trkpt lat="49.52825" lon="3.54063">
        <ele>133.1</ele>
        <time>2016-05-09T14:27:30.242Z</time>
      </trkpt>
      <trkpt lat="49.52833" lon="3.54064">
        <ele>133.1</ele>
        <time>2016-05-09T14:27:36.249Z</time>
      </trkpt>
      <trkpt lat="49.52835" lon="3.54063">
        <ele>133.2</ele>
        <time>2016-05-09T14:27:37.269Z</time>
      </trkpt>
      <trkpt lat="49.52844" lon="3.54062">
        <ele>133.2</ele>
        <time>2016-05-09T14:27:43.332Z</time>
      </trkpt>
      <trkpt lat="49.52846" lon="3.54062">
        <ele>133.5</ele>
        <time>2016-05-09T14:27:44.326Z</time>
      </trkpt>
      <trkpt lat="49.52854" lon="3.54062">
        <ele>133</ele>
        <time>2016-05-09T14:27:51.314Z</time>
      </trkpt>
      <trkpt lat="49.52856" lon="3.54062">
        <ele>133</ele>
        <time>2016-05-09T14:27:52.304Z</time>
      </trkpt>
      <trkpt lat="49.52863" lon="3.54063">
        <ele>133.3</ele>
        <time>2016-05-09T14:27:59.258Z</time>
      </trkpt>
      <trkpt lat="49.52865" lon="3.54063">
        <ele>133.5</ele>
        <time>2016-05-09T14:28:00.253Z</time>
      </trkpt>
      <trkpt lat="49.52868" lon="3.54068">
        <ele>133.8</ele>
        <time>2016-05-09T14:28:06.254Z</time>
      </trkpt>
      <trkpt lat="49.52869" lon="3.54069">
        <ele>133.9</ele>
        <time>2016-05-09T14:28:07.350Z</time>
      </trkpt>
      <trkpt lat="49.52868" lon="3.5407">
        <ele>134.4</ele>
        <time>2016-05-09T14:28:18.246Z</time>
      </trkpt>
      <trkpt lat="49.5287" lon="3.54071">
        <ele>135.1</ele>
        <time>2016-05-09T14:28:19.247Z</time>
      </trkpt>
      <trkpt lat="49.52871" lon="3.54071">
        <ele>135.1</ele>
        <time>2016-05-09T14:28:20.341Z</time>
      </trkpt>
      <trkpt lat="49.52871" lon="3.54071">
        <ele>135.1</ele>
        <time>2016-05-09T14:28:21.398Z</time>
      </trkpt>
      <trkpt lat="49.52872" lon="3.5407">
        <ele>135.2</ele>
        <time>2016-05-09T14:28:30.265Z</time>
      </trkpt>
      <trkpt lat="49.52872" lon="3.5407">
        <ele>136.2</ele>
        <time>2016-05-09T14:28:31.271Z</time>
      </trkpt>
      <trkpt lat="49.52872" lon="3.5407">
        <ele>136.1</ele>
        <time>2016-05-09T14:28:32.287Z</time>
      </trkpt>
      <trkpt lat="49.52872" lon="3.54071">
        <ele>135.8</ele>
        <time>2016-05-09T14:28:33.283Z</time>
      </trkpt>
      <trkpt lat="49.52872" lon="3.54071">
        <ele>135.7</ele>
        <time>2016-05-09T14:28:43.421Z</time>
      </trkpt>
      <trkpt lat="49.52872" lon="3.54072">
        <ele>135.4</ele>
        <time>2016-05-09T14:28:44.220Z</time>
      </trkpt>
      <trkpt lat="49.52871" lon="3.54074">
        <ele>135.2</ele>
        <time>2016-05-09T14:28:47.262Z</time>
      </trkpt>
      <trkpt lat="49.52871" lon="3.54075">
        <ele>135.3</ele>
        <time>2016-05-09T14:28:48.246Z</time>
      </trkpt>
      <trkpt lat="49.52871" lon="3.54075">
        <ele>135.5</ele>
        <time>2016-05-09T14:29:34.231Z</time>
      </trkpt>
      <trkpt lat="49.52876" lon="3.54072">
        <ele>136.3</ele>
        <time>2016-05-09T14:29:35.224Z</time>
      </trkpt>
      <trkpt lat="49.52876" lon="3.54072">
        <ele>136.3</ele>
        <time>2016-05-09T14:29:35.233Z</time>
      </trkpt>
      <trkpt lat="49.52876" lon="3.54072">
        <ele>136.2</ele>
        <time>2016-05-09T14:29:36.241Z</time>
      </trkpt>
      <trkpt lat="49.52876" lon="3.54072">
        <ele>136</ele>
        <time>2016-05-09T14:30:18.314Z</time>
      </trkpt>
      <trkpt lat="49.52876" lon="3.54076">
        <ele>134.6</ele>
        <time>2016-05-09T14:30:19.299Z</time>
      </trkpt>
      <trkpt lat="49.52876" lon="3.54076">
        <ele>134.7</ele>
        <time>2016-05-09T14:30:20.233Z</time>
      </trkpt>
      <trkpt lat="49.52876" lon="3.54076">
        <ele>134.6</ele>
        <time>2016-05-09T14:30:21.222Z</time>
      </trkpt>
      <trkpt lat="49.52876" lon="3.54076">
        <ele>134.6</ele>
        <time>2016-05-09T14:30:48.296Z</time>
      </trkpt>
      <trkpt lat="49.52876" lon="3.54077">
        <ele>134</ele>
        <time>2016-05-09T14:30:49.275Z</time>
      </trkpt>
      <trkpt lat="49.52876" lon="3.54077">
        <ele>134</ele>
        <time>2016-05-09T14:30:49.285Z</time>
      </trkpt>
      <trkpt lat="49.52876" lon="3.54078">
        <ele>134.1</ele>
        <time>2016-05-09T14:30:50.293Z</time>
      </trkpt>
      <trkpt lat="49.52876" lon="3.54078">
        <ele>134.1</ele>
        <time>2016-05-09T14:30:50.316Z</time>
      </trkpt>
      <trkpt lat="49.52876" lon="3.54078">
        <ele>134.2</ele>
        <time>2016-05-09T14:30:51.305Z</time>
      </trkpt>
      <trkpt lat="49.52876" lon="3.5407">
        <ele>134.8</ele>
        <time>2016-05-09T14:31:50.302Z</time>
      </trkpt>
      <trkpt lat="49.52873" lon="3.54064">
        <ele>135.4</ele>
        <time>2016-05-09T14:31:51.290Z</time>
      </trkpt>
      <trkpt lat="49.52874" lon="3.54052">
        <ele>135.5</ele>
        <time>2016-05-09T14:31:59.290Z</time>
      </trkpt>
      <trkpt lat="49.52873" lon="3.5405">
        <ele>135.5</ele>
        <time>2016-05-09T14:32:00.281Z</time>
      </trkpt>
      <trkpt lat="49.5287" lon="3.54039">
        <ele>135.2</ele>
        <time>2016-05-09T14:32:05.242Z</time>
      </trkpt>
      <trkpt lat="49.5287" lon="3.54036">
        <ele>135.2</ele>
        <time>2016-05-09T14:32:06.237Z</time>
      </trkpt>
      <trkpt lat="49.52869" lon="3.54024">
        <ele>135.1</ele>
        <time>2016-05-09T14:32:11.232Z</time>
      </trkpt>
      <trkpt lat="49.52869" lon="3.54021">
        <ele>135.1</ele>
        <time>2016-05-09T14:32:12.237Z</time>
      </trkpt>
      <trkpt lat="49.52868" lon="3.54008">
        <ele>134.7</ele>
        <time>2016-05-09T14:32:18.355Z</time>
      </trkpt>
      <trkpt lat="49.52867" lon="3.54006">
        <ele>134.7</ele>
        <time>2016-05-09T14:32:19.325Z</time>
      </trkpt>
      <trkpt lat="49.52869" lon="3.53993">
        <ele>134.8</ele>
        <time>2016-05-09T14:32:24.262Z</time>
      </trkpt>
      <trkpt lat="49.52869" lon="3.53991">
        <ele>134.8</ele>
        <time>2016-05-09T14:32:25.373Z</time>
      </trkpt>
      <trkpt lat="49.52871" lon="3.53979">
        <ele>134.8</ele>
        <time>2016-05-09T14:32:30.306Z</time>
      </trkpt>
      <trkpt lat="49.5287" lon="3.53977">
        <ele>134.8</ele>
        <time>2016-05-09T14:32:31.328Z</time>
      </trkpt>
      <trkpt lat="49.52868" lon="3.53965">
        <ele>135</ele>
        <time>2016-05-09T14:32:36.317Z</time>
      </trkpt>
      <trkpt lat="49.52868" lon="3.53962">
        <ele>135</ele>
        <time>2016-05-09T14:32:37.308Z</time>
      </trkpt>
      <trkpt lat="49.52866" lon="3.53951">
        <ele>134.6</ele>
        <time>2016-05-09T14:32:42.265Z</time>
      </trkpt>
      <trkpt lat="49.52866" lon="3.53948">
        <ele>134.5</ele>
        <time>2016-05-09T14:32:43.267Z</time>
      </trkpt>
      <trkpt lat="49.52865" lon="3.53935">
        <ele>134.3</ele>
        <time>2016-05-09T14:32:49.353Z</time>
      </trkpt>
      <trkpt lat="49.52865" lon="3.53933">
        <ele>134.3</ele>
        <time>2016-05-09T14:32:50.244Z</time>
      </trkpt>
      <trkpt lat="49.52865" lon="3.53921">
        <ele>134.5</ele>
        <time>2016-05-09T14:32:55.318Z</time>
      </trkpt>
      <trkpt lat="49.52865" lon="3.53919">
        <ele>134.5</ele>
        <time>2016-05-09T14:32:56.307Z</time>
      </trkpt>
      <trkpt lat="49.52864" lon="3.53905">
        <ele>134.4</ele>
        <time>2016-05-09T14:33:02.251Z</time>
      </trkpt>
      <trkpt lat="49.52865" lon="3.53903">
        <ele>134.6</ele>
        <time>2016-05-09T14:33:03.240Z</time>
      </trkpt>
      <trkpt lat="49.52866" lon="3.53891">
        <ele>134.5</ele>
        <time>2016-05-09T14:33:08.549Z</time>
      </trkpt>
      <trkpt lat="49.52866" lon="3.53888">
        <ele>134.5</ele>
        <time>2016-05-09T14:33:09.305Z</time>
      </trkpt>
      <trkpt lat="49.52867" lon="3.53876">
        <ele>134</ele>
        <time>2016-05-09T14:33:15.312Z</time>
      </trkpt>
      <trkpt lat="49.52866" lon="3.53874">
        <ele>134</ele>
        <time>2016-05-09T14:33:16.302Z</time>
      </trkpt>
      <trkpt lat="49.52868" lon="3.53861">
        <ele>133.5</ele>
        <time>2016-05-09T14:33:23.282Z</time>
      </trkpt>
      <trkpt lat="49.52869" lon="3.53859">
        <ele>133.7</ele>
        <time>2016-05-09T14:33:24.276Z</time>
      </trkpt>
      <trkpt lat="49.52876" lon="3.53851">
        <ele>134.5</ele>
        <time>2016-05-09T14:33:30.340Z</time>
      </trkpt>
      <trkpt lat="49.52877" lon="3.53849">
        <ele>134.7</ele>
        <time>2016-05-09T14:33:31.339Z</time>
      </trkpt>
      <trkpt lat="49.52878" lon="3.53836">
        <ele>135.5</ele>
        <time>2016-05-09T14:33:38.300Z</time>
      </trkpt>
      <trkpt lat="49.52878" lon="3.53834">
        <ele>135.6</ele>
        <time>2016-05-09T14:33:39.302Z</time>
      </trkpt>
      <trkpt lat="49.52876" lon="3.5382">
        <ele>136.4</ele>
        <time>2016-05-09T14:33:47.290Z</time>
      </trkpt>
      <trkpt lat="49.52876" lon="3.53819">
        <ele>136.5</ele>
        <time>2016-05-09T14:33:48.267Z</time>
      </trkpt>
      <trkpt lat="49.52877" lon="3.53805">
        <ele>137.3</ele>
        <time>2016-05-09T14:33:55.357Z</time>
      </trkpt>
      <trkpt lat="49.52877" lon="3.53803">
        <ele>137.1</ele>
        <time>2016-05-09T14:33:56.243Z</time>
      </trkpt>
      <trkpt lat="49.52879" lon="3.5379">
        <ele>136.3</ele>
        <time>2016-05-09T14:34:01.324Z</time>
      </trkpt>
      <trkpt lat="49.52879" lon="3.53788">
        <ele>136.5</ele>
        <time>2016-05-09T14:34:02.313Z</time>
      </trkpt>
      <trkpt lat="49.5288" lon="3.53774">
        <ele>138</ele>
        <time>2016-05-09T14:34:08.291Z</time>
      </trkpt>
      <trkpt lat="49.52881" lon="3.53772">
        <ele>138.1</ele>
        <time>2016-05-09T14:34:09.279Z</time>
      </trkpt>
      <trkpt lat="49.52884" lon="3.5376">
        <ele>140.7</ele>
        <time>2016-05-09T14:34:18.255Z</time>
      </trkpt>
      <trkpt lat="49.52885" lon="3.53758">
        <ele>140.9</ele>
        <time>2016-05-09T14:34:19.287Z</time>
      </trkpt>
      <trkpt lat="49.52886" lon="3.53746">
        <ele>142.8</ele>
        <time>2016-05-09T14:34:25.295Z</time>
      </trkpt>
      <trkpt lat="49.52885" lon="3.53744">
        <ele>143.3</ele>
        <time>2016-05-09T14:34:26.292Z</time>
      </trkpt>
      <trkpt lat="49.52884" lon="3.5373">
        <ele>144.6</ele>
        <time>2016-05-09T14:34:31.358Z</time>
      </trkpt>
      <trkpt lat="49.52883" lon="3.53728">
        <ele>144.8</ele>
        <time>2016-05-09T14:34:32.243Z</time>
      </trkpt>
      <trkpt lat="49.52881" lon="3.53714">
        <ele>145.7</ele>
        <time>2016-05-09T14:34:37.294Z</time>
      </trkpt>
      <trkpt lat="49.52881" lon="3.53711">
        <ele>145.7</ele>
        <time>2016-05-09T14:34:38.294Z</time>
      </trkpt>
      <trkpt lat="49.52877" lon="3.537">
        <ele>147</ele>
        <time>2016-05-09T14:34:43.362Z</time>
      </trkpt>
      <trkpt lat="49.52876" lon="3.53698">
        <ele>147.2</ele>
        <time>2016-05-09T14:34:44.243Z</time>
      </trkpt>
      <trkpt lat="49.52877" lon="3.53686">
        <ele>147.8</ele>
        <time>2016-05-09T14:34:49.321Z</time>
      </trkpt>
      <trkpt lat="49.52877" lon="3.53684">
        <ele>148.1</ele>
        <time>2016-05-09T14:34:50.307Z</time>
      </trkpt>
      <trkpt lat="49.52875" lon="3.53672">
        <ele>149.2</ele>
        <time>2016-05-09T14:34:57.310Z</time>
      </trkpt>
      <trkpt lat="49.52874" lon="3.53669">
        <ele>149.4</ele>
        <time>2016-05-09T14:34:58.301Z</time>
      </trkpt>
      <trkpt lat="49.52874" lon="3.53657">
        <ele>150.7</ele>
        <time>2016-05-09T14:35:03.256Z</time>
      </trkpt>
      <trkpt lat="49.52874" lon="3.53654">
        <ele>150.9</ele>
        <time>2016-05-09T14:35:04.251Z</time>
      </trkpt>
      <trkpt lat="49.52873" lon="3.53642">
        <ele>151.4</ele>
        <time>2016-05-09T14:35:09.324Z</time>
      </trkpt>
      <trkpt lat="49.52872" lon="3.5364">
        <ele>151</ele>
        <time>2016-05-09T14:35:10.319Z</time>
      </trkpt>
      <trkpt lat="49.52869" lon="3.53628">
        <ele>150.7</ele>
        <time>2016-05-09T14:35:15.322Z</time>
      </trkpt>
      <trkpt lat="49.52868" lon="3.53626">
        <ele>150.6</ele>
        <time>2016-05-09T14:35:16.308Z</time>
      </trkpt>
      <trkpt lat="49.52866" lon="3.53613">
        <ele>149.5</ele>
        <time>2016-05-09T14:35:21.262Z</time>
      </trkpt>
      <trkpt lat="49.52864" lon="3.53611">
        <ele>149.1</ele>
        <time>2016-05-09T14:35:22.251Z</time>
      </trkpt>
      <trkpt lat="49.52858" lon="3.53602">
        <ele>148.3</ele>
        <time>2016-05-09T14:35:28.327Z</time>
      </trkpt>
      <trkpt lat="49.52857" lon="3.53601">
        <ele>148.1</ele>
        <time>2016-05-09T14:35:29.319Z</time>
      </trkpt>
      <trkpt lat="49.52849" lon="3.53596">
        <ele>148</ele>
        <time>2016-05-09T14:35:36.312Z</time>
      </trkpt>
      <trkpt lat="49.52848" lon="3.53596">
        <ele>147.7</ele>
        <time>2016-05-09T14:35:37.288Z</time>
      </trkpt>
      <trkpt lat="49.5284" lon="3.53594">
        <ele>147.3</ele>
        <time>2016-05-09T14:35:43.353Z</time>
      </trkpt>
      <trkpt lat="49.52838" lon="3.53594">
        <ele>147.6</ele>
        <time>2016-05-09T14:35:44.239Z</time>
      </trkpt>
      <trkpt lat="49.52831" lon="3.53592">
        <ele>148.4</ele>
        <time>2016-05-09T14:35:50.393Z</time>
      </trkpt>
      <trkpt lat="49.52829" lon="3.53591">
        <ele>148.5</ele>
        <time>2016-05-09T14:35:51.290Z</time>
      </trkpt>
      <trkpt lat="49.52821" lon="3.53587">
        <ele>149.1</ele>
        <time>2016-05-09T14:35:58.268Z</time>
      </trkpt>
      <trkpt lat="49.52819" lon="3.53586">
        <ele>149.2</ele>
        <time>2016-05-09T14:35:59.254Z</time>
      </trkpt>
      <trkpt lat="49.52811" lon="3.53584">
        <ele>149.9</ele>
        <time>2016-05-09T14:36:05.331Z</time>
      </trkpt>
      <trkpt lat="49.5281" lon="3.53584">
        <ele>150.1</ele>
        <time>2016-05-09T14:36:06.325Z</time>
      </trkpt>
      <trkpt lat="49.52803" lon="3.5358">
        <ele>151.7</ele>
        <time>2016-05-09T14:36:11.294Z</time>
      </trkpt>
      <trkpt lat="49.52801" lon="3.53578">
        <ele>151.8</ele>
        <time>2016-05-09T14:36:12.288Z</time>
      </trkpt>
      <trkpt lat="49.52795" lon="3.53571">
        <ele>152.3</ele>
        <time>2016-05-09T14:36:17.261Z</time>
      </trkpt>
      <trkpt lat="49.52794" lon="3.5357">
        <ele>152.4</ele>
        <time>2016-05-09T14:36:18.260Z</time>
      </trkpt>
      <trkpt lat="49.52787" lon="3.53561">
        <ele>152.1</ele>
        <time>2016-05-09T14:36:23.346Z</time>
      </trkpt>
      <trkpt lat="49.52786" lon="3.53559">
        <ele>152</ele>
        <time>2016-05-09T14:36:24.331Z</time>
      </trkpt>
      <trkpt lat="49.52779" lon="3.53551">
        <ele>152.7</ele>
        <time>2016-05-09T14:36:29.270Z</time>
      </trkpt>
      <trkpt lat="49.52778" lon="3.5355">
        <ele>152.7</ele>
        <time>2016-05-09T14:36:30.265Z</time>
      </trkpt>
      <trkpt lat="49.52771" lon="3.53541">
        <ele>153</ele>
        <time>2016-05-09T14:36:35.336Z</time>
      </trkpt>
      <trkpt lat="49.5277" lon="3.5354">
        <ele>153.1</ele>
        <time>2016-05-09T14:36:36.329Z</time>
      </trkpt>
      <trkpt lat="49.52763" lon="3.53532">
        <ele>153.7</ele>
        <time>2016-05-09T14:36:42.282Z</time>
      </trkpt>
      <trkpt lat="49.52762" lon="3.5353">
        <ele>153.8</ele>
        <time>2016-05-09T14:36:43.276Z</time>
      </trkpt>
      <trkpt lat="49.52756" lon="3.5352">
        <ele>154.8</ele>
        <time>2016-05-09T14:36:50.251Z</time>
      </trkpt>
      <trkpt lat="49.52755" lon="3.53519">
        <ele>155</ele>
        <time>2016-05-09T14:36:51.445Z</time>
      </trkpt>
      <trkpt lat="49.5275" lon="3.53509">
        <ele>155.3</ele>
        <time>2016-05-09T14:36:57.334Z</time>
      </trkpt>
      <trkpt lat="49.52749" lon="3.53507">
        <ele>155.5</ele>
        <time>2016-05-09T14:36:58.328Z</time>
      </trkpt>
      <trkpt lat="49.52745" lon="3.53497">
        <ele>156.9</ele>
        <time>2016-05-09T14:37:04.258Z</time>
      </trkpt>
      <trkpt lat="49.52745" lon="3.53495">
        <ele>157.1</ele>
        <time>2016-05-09T14:37:05.241Z</time>
      </trkpt>
      <trkpt lat="49.52741" lon="3.53483">
        <ele>158</ele>
        <time>2016-05-09T14:37:12.338Z</time>
      </trkpt>
      <trkpt lat="49.52741" lon="3.53481">
        <ele>158.3</ele>
        <time>2016-05-09T14:37:13.338Z</time>
      </trkpt>
      <trkpt lat="49.52734" lon="3.53473">
        <ele>158.6</ele>
        <time>2016-05-09T14:37:21.312Z</time>
      </trkpt>
      <trkpt lat="49.52733" lon="3.53473">
        <ele>158.6</ele>
        <time>2016-05-09T14:37:22.301Z</time>
      </trkpt>
      <trkpt lat="49.52726" lon="3.53466">
        <ele>159.2</ele>
        <time>2016-05-09T14:37:28.256Z</time>
      </trkpt>
      <trkpt lat="49.52726" lon="3.53464">
        <ele>159.5</ele>
        <time>2016-05-09T14:37:29.246Z</time>
      </trkpt>
      <trkpt lat="49.52722" lon="3.53452">
        <ele>160.3</ele>
        <time>2016-05-09T14:37:35.247Z</time>
      </trkpt>
      <trkpt lat="49.52722" lon="3.53451">
        <ele>160.6</ele>
        <time>2016-05-09T14:37:36.224Z</time>
      </trkpt>
      <trkpt lat="49.52716" lon="3.53442">
        <ele>162.8</ele>
        <time>2016-05-09T14:37:43.330Z</time>
      </trkpt>
      <trkpt lat="49.52715" lon="3.5344">
        <ele>163</ele>
        <time>2016-05-09T14:37:44.316Z</time>
      </trkpt>
      <trkpt lat="49.52711" lon="3.53436">
        <ele>164</ele>
        <time>2016-05-09T14:37:51.436Z</time>
      </trkpt>
    </trkseg>
  </trk>
</gpx>